Time,TemperatureF,DewpointF,PressureIn,WindDirection,WindDirectionDegrees,WindSpeedMPH,WindSpeedGustMPH,Humidity,HourlyPrecipIn,Conditions,Clouds,dailyrainin,SolarRadiationWatts/m^2,SoftwareType,DateUTC
2013-10-11 00:00:00,62.0,53.3,29.86,SSE,160,0.0,1.0,73,0.00,,OVC043,0.00,0.00,VWS V14.00,2013-10-11 05:00:00,
2013-10-11 00:02:00,62.0,53.3,29.86,SSE,160,0.0,1.0,73,0.00,,CLR,0.00,0.00,VWS V14.00,2013-10-11 05:02:00,
2013-10-11 00:03:00,62.0,53.3,29.86,SSE,160,0.0,0.0,73,0.00,,CLR,0.00,0.00,VWS V14.00,2013-10-11 05:03:00,
2013-10-11 00:04:00,62.0,53.3,29.86,SE,138,0.0,2.0,73,0.00,,CLR,0.00,0.00,VWS V14.00,2013-10-11 05:04:00,
2013-10-11 00:05:00,62.0,53.3,29.86,SSE,150,0.0,2.0,73,0.00,,CLR,0.00,0.00,VWS V14.00,2013-10-11 05:05:00,
2013-10-11 00:07:00,62.0,53.3,29.85,South,178,0.0,5.0,73,0.00,,CLR,0.00,0.00,VWS V14.00,2013-10-11 05:07:00,
2013-10-11 00:08:00,62.0,53.3,29.86,South,178,0.0,0.0,73,0.00,,CLR,0.00,0.00,VWS V14.00,2013-10-11 05:08:00,
2013-10-11 00:09:00,62.1,53.3,29.85,South,180,0.0,1.0,73,0.00,,CLR,0.00,0.00,VWS V14.00,2013-10-11 05:09:00,
2013-10-11 00:10:00,62.0,53.3,29.85,South,180,0.0,1.0,73,0.00,,CLR,0.00,0.00,VWS V14.00,2013-10-11 05:10:00,
2013-10-11 00:12:00,62.1,53.3,29.86,South,181,0.0,1.0,73,0.00,,CLR,0.00,0.00,VWS V14.00,2013-10-11 05:12:00,
2013-10-11 00:13:00,62.1,53.3,29.86,South,181,0.0,0.0,73,0.00,,CLR,0.00,0.00,VWS V14.00,2013-10-11 05:13:00,
2013-10-11 00:14:00,62.1,53.3,29.86,South,181,0.0,0.0,73,0.00,,CLR,0.00,0.00,VWS V14.00,2013-10-11 05:14:00,
2013-10-11 00:15:00,62.1,53.3,29.85,South,181,0.0,1.0,73,0.00,,CLR,0.00,0.00,VWS V14.00,2013-10-11 05:15:00,
2013-10-11 00:17:00,62.1,53.3,29.85,South,181,0.0,2.0,73,0.00,,CLR,0.00,0.00,VWS V14.00,2013-10-11 05:17:00,
2013-10-11 00:18:00,62.1,53.3,29.85,South,181,0.0,2.0,73,0.00,,CLR,0.00,0.00,VWS V14.00,2013-10-11 05:18:00,
2013-10-11 00:19:00,62.1,53.3,29.85,South,181,0.0,0.0,73,0.00,,CLR,0.00,0.00,VWS V14.00,2013-10-11 05:19:00,
2013-10-11 00:20:00,62.1,53.3,29.85,South,181,0.0,1.0,73,0.00,,CLR,0.00,0.00,VWS V14.00,2013-10-11 05:20:00,
2013-10-11 00:21:00,62.1,53.3,29.85,South,181,0.0,1.0,73,0.00,,CLR,0.00,0.00,VWS V14.00,2013-10-11 05:21:00,
2013-10-11 00:22:00,62.0,53.3,29.85,South,181,1.0,1.0,73,0.00,,CLR,0.00,0.00,VWS V14.00,2013-10-11 05:22:00,
2013-10-11 00:23:00,62.0,53.3,29.85,South,181,0.0,1.0,73,0.00,,CLR,0.00,0.00,VWS V14.00,2013-10-11 05:23:00,
2013-10-11 00:24:00,62.0,53.3,29.85,South,181,0.0,1.0,73,0.00,,CLR,0.00,0.00,VWS V14.00,2013-10-11 05:24:00,
2013-10-11 00:25:00,62.0,53.3,29.85,South,181,0.0,1.0,73,0.00,,OVC043,0.00,0.00,VWS V14.00,2013-10-11 05:25:00,
2013-10-11 00:26:00,61.9,53.5,29.85,South,181,0.0,1.0,74,0.00,,CLR,0.00,0.00,VWS V14.00,2013-10-11 05:26:00,
2013-10-11 00:28:00,61.9,53.5,29.85,South,180,0.0,2.0,74,0.00,,CLR,0.00,0.00,VWS V14.00,2013-10-11 05:28:00,
2013-10-11 00:29:00,61.9,53.5,29.85,South,180,0.0,1.0,74,0.00,,CLR,0.00,0.00,VWS V14.00,2013-10-11 05:29:00,
2013-10-11 00:30:00,61.9,53.5,29.85,South,180,0.0,2.0,74,0.00,,CLR,0.00,0.00,VWS V14.00,2013-10-11 05:30:00,
2013-10-11 00:31:00,61.9,53.5,29.85,South,180,0.0,2.0,74,0.00,,CLR,0.00,0.00,VWS V14.00,2013-10-11 05:31:00,
2013-10-11 00:33:00,61.9,53.5,29.85,South,179,0.0,2.0,74,0.00,,CLR,0.00,0.00,VWS V14.00,2013-10-11 05:33:00,
2013-10-11 00:34:00,61.9,53.5,29.85,South,180,0.0,1.0,74,0.00,,CLR,0.00,0.00,VWS V14.00,2013-10-11 05:34:00,
2013-10-11 00:35:00,61.9,53.5,29.85,South,179,0.0,2.0,74,0.00,,OVC043,0.00,0.00,VWS V14.00,2013-10-11 05:35:00,
2013-10-11 00:36:00,62.0,53.6,29.85,South,180,0.0,1.0,74,0.00,,CLR,0.00,0.00,VWS V14.00,2013-10-11 05:36:00,
2013-10-11 00:37:00,61.9,53.5,29.85,South,180,0.0,1.0,74,0.00,,CLR,0.00,0.00,VWS V14.00,2013-10-11 05:37:00,
2013-10-11 00:38:00,61.9,53.5,29.86,South,180,0.0,0.0,74,0.00,,CLR,0.00,0.00,VWS V14.00,2013-10-11 05:38:00,
2013-10-11 00:39:00,61.9,53.5,29.86,South,180,0.0,2.0,74,0.00,,CLR,0.00,0.00,VWS V14.00,2013-10-11 05:39:00,
2013-10-11 00:40:00,61.9,53.5,29.86,South,180,0.0,1.0,74,0.00,,OVC043,0.00,0.00,VWS V14.00,2013-10-11 05:40:00,
2013-10-11 00:41:00,61.9,53.5,29.86,South,180,0.0,2.0,74,0.00,,CLR,0.00,0.00,VWS V14.00,2013-10-11 05:41:00,
2013-10-11 00:42:00,61.9,53.5,29.86,South,180,0.0,2.0,74,0.00,,CLR,0.00,0.00,VWS V14.00,2013-10-11 05:42:00,
2013-10-11 00:43:00,61.9,53.5,29.86,South,179,0.0,1.0,74,0.00,,CLR,0.00,0.00,VWS V14.00,2013-10-11 05:43:00,
2013-10-11 00:45:00,61.8,53.4,29.86,South,180,0.0,1.0,74,0.00,,CLR,0.00,0.00,VWS V14.00,2013-10-11 05:45:00,
2013-10-11 00:46:00,61.8,53.4,29.86,South,180,0.0,2.0,74,0.00,,CLR,0.00,0.00,VWS V14.00,2013-10-11 05:46:00,
2013-10-11 00:47:00,61.8,53.8,29.86,South,180,0.0,2.0,75,0.00,,CLR,0.00,0.00,VWS V14.00,2013-10-11 05:47:00,
2013-10-11 00:48:00,61.8,53.8,29.86,South,180,0.0,0.0,75,0.00,,CLR,0.00,0.00,VWS V14.00,2013-10-11 05:48:00,
2013-10-11 00:49:00,61.7,53.7,29.86,South,180,0.0,0.0,75,0.00,,CLR,0.00,0.00,VWS V14.00,2013-10-11 05:49:00,
2013-10-11 00:50:00,61.7,53.7,29.86,South,180,0.0,1.0,75,0.00,,CLR,0.00,0.00,VWS V14.00,2013-10-11 05:50:00,
2013-10-11 00:51:00,61.7,53.7,29.86,South,180,0.0,1.0,75,0.00,,CLR,0.00,0.00,VWS V14.00,2013-10-11 05:51:00,
2013-10-11 00:52:00,61.7,53.7,29.86,South,180,0.0,1.0,75,0.00,,CLR,0.00,0.00,VWS V14.00,2013-10-11 05:52:00,
2013-10-11 00:54:00,61.6,53.6,29.86,South,180,0.0,1.0,75,0.00,,CLR,0.00,0.00,VWS V14.00,2013-10-11 05:54:00,
2013-10-11 00:55:00,61.6,53.6,29.86,South,180,0.0,2.0,75,0.00,,CLR,0.00,0.00,VWS V14.00,2013-10-11 05:55:00,
2013-10-11 00:56:00,61.6,53.6,29.86,South,180,0.0,2.0,75,0.00,,CLR,0.00,0.00,VWS V14.00,2013-10-11 05:56:00,
2013-10-11 00:57:00,61.6,53.6,29.86,South,180,0.0,2.0,75,0.00,,CLR,0.00,0.00,VWS V14.00,2013-10-11 05:57:00,
2013-10-11 00:58:00,61.6,53.6,29.86,South,180,0.0,2.0,75,0.00,,CLR,0.00,0.00,VWS V14.00,2013-10-11 05:58:00,
2013-10-11 00:59:00,61.6,53.6,29.87,South,180,0.0,1.0,75,0.00,,CLR,0.00,0.00,VWS V14.00,2013-10-11 05:59:00,
2013-10-11 01:00:00,61.5,53.5,29.87,South,180,0.0,1.0,75,0.00,,CLR,0.00,0.00,VWS V14.00,2013-10-11 06:00:00,
2013-10-11 01:02:00,61.5,53.5,29.86,South,180,0.0,1.0,75,0.00,,CLR,0.00,0.00,VWS V14.00,2013-10-11 06:02:00,
2013-10-11 01:03:00,61.4,53.4,29.86,South,180,0.0,0.0,75,0.00,,CLR,0.00,0.00,VWS V14.00,2013-10-11 06:03:00,
2013-10-11 01:04:00,61.4,53.4,29.86,South,180,0.0,0.0,75,0.00,,CLR,0.00,0.00,VWS V14.00,2013-10-11 06:04:00,
2013-10-11 01:05:00,61.3,53.7,29.86,South,180,0.0,0.0,76,0.00,,CLR,0.00,0.00,VWS V14.00,2013-10-11 06:05:00,
2013-10-11 01:07:00,61.2,53.6,29.86,South,180,0.0,0.0,76,0.00,,CLR,0.00,0.00,VWS V14.00,2013-10-11 06:07:00,
2013-10-11 01:08:00,61.1,53.5,29.86,South,180,0.0,0.0,76,0.00,,CLR,0.00,0.00,VWS V14.00,2013-10-11 06:08:00,
2013-10-11 01:09:00,61.1,53.5,29.86,South,180,0.0,0.0,76,0.00,,CLR,0.00,0.00,VWS V14.00,2013-10-11 06:09:00,
2013-10-11 01:10:00,61.1,53.5,29.86,South,180,0.0,0.0,76,0.00,,CLR,0.00,0.00,VWS V14.00,2013-10-11 06:10:00,
2013-10-11 01:12:00,60.9,53.3,29.86,South,180,0.0,1.0,76,0.00,,CLR,0.00,0.00,VWS V14.00,2013-10-11 06:12:00,
2013-10-11 01:13:00,60.9,53.3,29.86,South,180,0.0,0.0,76,0.00,,CLR,0.00,0.00,VWS V14.00,2013-10-11 06:13:00,
2013-10-11 01:15:00,60.8,53.5,29.86,South,180,0.0,0.0,77,0.00,,CLR,0.00,0.00,VWS V14.00,2013-10-11 06:15:00,
2013-10-11 01:16:00,60.7,53.5,29.86,South,180,0.0,0.0,77,0.00,,CLR,0.00,0.00,VWS V14.00,2013-10-11 06:16:00,
2013-10-11 01:17:00,60.7,53.5,29.87,South,180,0.0,0.0,77,0.00,,CLR,0.00,0.00,VWS V14.00,2013-10-11 06:17:00,
2013-10-11 01:18:00,60.7,53.5,29.87,South,180,0.0,0.0,77,0.00,,CLR,0.00,0.00,VWS V14.00,2013-10-11 06:18:00,
2013-10-11 01:19:00,60.6,53.4,29.87,South,180,0.0,0.0,77,0.00,,CLR,0.00,0.00,VWS V14.00,2013-10-11 06:19:00,
2013-10-11 01:20:00,60.6,53.4,29.87,South,180,0.0,0.0,77,0.00,,CLR,0.00,0.00,VWS V14.00,2013-10-11 06:20:00,
2013-10-11 01:21:00,60.5,53.3,29.87,South,180,0.0,0.0,77,0.00,,CLR,0.00,0.00,VWS V14.00,2013-10-11 06:21:00,
2013-10-11 01:22:00,60.5,53.3,29.87,South,180,0.0,0.0,77,0.00,,CLR,0.00,0.00,VWS V14.00,2013-10-11 06:22:00,
2013-10-11 01:23:00,60.4,53.2,29.87,South,180,0.0,0.0,77,0.00,,CLR,0.00,0.00,VWS V14.00,2013-10-11 06:23:00,
2013-10-11 01:24:00,60.4,53.2,29.87,South,180,0.0,0.0,77,0.00,,CLR,0.00,0.00,VWS V14.00,2013-10-11 06:24:00,
2013-10-11 01:25:00,60.4,53.2,29.87,South,180,0.0,0.0,77,0.00,,CLR,0.00,0.00,VWS V14.00,2013-10-11 06:25:00,
2013-10-11 01:26:00,60.3,53.1,29.87,South,180,0.0,0.0,77,0.00,,CLR,0.00,0.00,VWS V14.00,2013-10-11 06:26:00,
2013-10-11 01:27:00,60.2,53.0,29.87,South,180,0.0,0.0,77,0.00,,CLR,0.00,0.00,VWS V14.00,2013-10-11 06:27:00,
2013-10-11 01:29:00,60.1,53.2,29.87,South,180,0.0,0.0,78,0.00,,CLR,0.00,0.00,VWS V14.00,2013-10-11 06:29:00,
2013-10-11 01:30:00,60.1,53.2,29.87,South,180,0.0,0.0,78,0.00,,CLR,0.00,0.00,VWS V14.00,2013-10-11 06:30:00,
2013-10-11 01:31:00,60.0,53.1,29.87,South,179,0.0,0.0,78,0.00,,CLR,0.00,0.00,VWS V14.00,2013-10-11 06:31:00,
2013-10-11 01:33:00,60.0,53.1,29.86,South,180,0.0,0.0,78,0.00,,CLR,0.00,0.00,VWS V14.00,2013-10-11 06:33:00,
2013-10-11 01:34:00,59.9,53.0,29.87,South,180,0.0,0.0,78,0.00,,CLR,0.00,0.00,VWS V14.00,2013-10-11 06:34:00,
2013-10-11 01:35:00,59.9,53.0,29.87,South,180,0.0,0.0,78,0.00,,CLR,0.00,0.00,VWS V14.00,2013-10-11 06:35:00,
2013-10-11 01:36:00,59.8,52.9,29.86,South,180,0.0,0.0,78,0.00,,CLR,0.00,0.00,VWS V14.00,2013-10-11 06:36:00,
2013-10-11 01:38:00,59.8,52.9,29.86,South,180,0.0,0.0,78,0.00,,CLR,0.00,0.00,VWS V14.00,2013-10-11 06:38:00,
2013-10-11 01:40:00,59.7,52.8,29.86,South,180,0.0,0.0,78,0.00,,CLR,0.00,0.00,VWS V14.00,2013-10-11 06:40:00,
2013-10-11 01:41:00,59.6,53.1,29.86,South,179,0.0,1.0,79,0.00,,CLR,0.00,0.00,VWS V14.00,2013-10-11 06:41:00,
2013-10-11 01:43:00,59.6,53.1,29.86,South,180,0.0,0.0,79,0.00,,CLR,0.00,0.00,VWS V14.00,2013-10-11 06:43:00,
2013-10-11 01:45:00,59.5,53.0,29.86,South,180,0.0,0.0,79,0.00,,CLR,0.00,0.00,VWS V14.00,2013-10-11 06:45:00,
2013-10-11 01:47:00,59.4,52.9,29.86,South,180,0.0,0.0,79,0.00,,CLR,0.00,0.00,VWS V14.00,2013-10-11 06:47:00,
2013-10-11 01:48:00,59.4,52.9,29.86,South,180,0.0,0.0,79,0.00,,CLR,0.00,0.00,VWS V14.00,2013-10-11 06:48:00,
2013-10-11 01:49:00,59.4,52.9,29.86,South,180,0.0,0.0,79,0.00,,CLR,0.00,0.00,VWS V14.00,2013-10-11 06:49:00,
2013-10-11 01:50:00,59.4,52.9,29.86,South,180,0.0,1.0,79,0.00,,CLR,0.00,0.00,VWS V14.00,2013-10-11 06:50:00,
2013-10-11 01:53:00,59.3,52.8,29.86,South,180,0.0,1.0,79,0.00,,CLR,0.00,0.00,VWS V14.00,2013-10-11 06:53:00,
2013-10-11 01:54:00,59.2,52.7,29.86,South,180,0.0,0.0,79,0.00,,CLR,0.00,0.00,VWS V14.00,2013-10-11 06:54:00,
2013-10-11 01:55:00,59.2,52.7,29.86,South,180,0.0,0.0,79,0.00,,CLR,0.00,0.00,VWS V14.00,2013-10-11 06:55:00,
2013-10-11 01:56:00,59.2,52.7,29.86,South,180,0.0,0.0,79,0.00,,CLR,0.00,0.00,VWS V14.00,2013-10-11 06:56:00,
2013-10-11 01:58:00,59.0,52.8,29.86,South,180,0.0,1.0,80,0.00,,CLR,0.00,0.00,VWS V14.00,2013-10-11 06:58:00,
2013-10-11 01:59:00,59.0,52.8,29.86,South,180,0.0,0.0,80,0.00,,CLR,0.00,0.00,VWS V14.00,2013-10-11 06:59:00,
2013-10-11 02:00:00,59.0,52.8,29.86,South,180,0.0,0.0,80,0.00,,CLR,0.00,0.00,VWS V14.00,2013-10-11 07:00:00,
2013-10-11 02:01:00,59.0,52.8,29.86,South,180,0.0,0.0,80,0.00,,CLR,0.00,0.00,VWS V14.00,2013-10-11 07:01:00,
2013-10-11 02:03:00,58.9,52.8,29.86,South,179,0.0,0.0,80,0.00,,CLR,0.00,0.00,VWS V14.00,2013-10-11 07:03:00,
2013-10-11 02:04:00,58.9,52.8,29.86,South,180,0.0,0.0,80,0.00,,CLR,0.00,0.00,VWS V14.00,2013-10-11 07:04:00,
2013-10-11 02:05:00,58.8,52.7,29.86,South,180,0.0,1.0,80,0.00,,CLR,0.00,0.00,VWS V14.00,2013-10-11 07:05:00,
2013-10-11 02:06:00,58.8,52.7,29.86,South,180,0.0,1.0,80,0.00,,CLR,0.00,0.00,VWS V14.00,2013-10-11 07:06:00,
2013-10-11 02:09:00,58.7,52.6,29.86,South,180,1.0,1.0,80,0.00,,CLR,0.00,0.00,VWS V14.00,2013-10-11 07:09:00,
2013-10-11 02:10:00,58.7,52.6,29.86,South,180,0.0,1.0,80,0.00,,CLR,0.00,0.00,VWS V14.00,2013-10-11 07:10:00,
2013-10-11 02:11:00,58.7,52.6,29.86,South,180,0.0,1.0,80,0.00,,CLR,0.00,0.00,VWS V14.00,2013-10-11 07:11:00,
2013-10-11 02:14:00,58.6,52.5,29.85,South,180,0.0,0.0,80,0.00,,CLR,0.00,0.00,VWS V14.00,2013-10-11 07:14:00,
2013-10-11 02:15:00,58.6,52.5,29.85,South,180,0.0,0.0,80,0.00,,CLR,0.00,0.00,VWS V14.00,2013-10-11 07:15:00,
2013-10-11 02:16:00,58.6,52.5,29.85,South,180,0.0,0.0,80,0.00,,CLR,0.00,0.00,VWS V14.00,2013-10-11 07:16:00,
2013-10-11 02:18:00,58.5,52.4,29.85,South,180,0.0,0.0,80,0.00,,CLR,0.00,0.00,VWS V14.00,2013-10-11 07:18:00,
2013-10-11 02:19:00,58.5,52.4,29.85,South,180,0.0,0.0,80,0.00,,CLR,0.00,0.00,VWS V14.00,2013-10-11 07:19:00,
2013-10-11 02:20:00,58.4,52.3,29.85,South,180,0.0,0.0,80,0.00,,CLR,0.00,0.00,VWS V14.00,2013-10-11 07:20:00,
2013-10-11 02:21:00,58.3,52.2,29.85,South,180,0.0,1.0,80,0.00,,CLR,0.00,0.00,VWS V14.00,2013-10-11 07:21:00,
2013-10-11 02:22:00,58.2,52.1,29.85,South,180,0.0,1.0,80,0.00,,CLR,0.00,0.00,VWS V14.00,2013-10-11 07:22:00,
2013-10-11 02:24:00,57.9,51.8,29.85,South,180,0.0,0.0,80,0.00,,CLR,0.00,0.00,VWS V14.00,2013-10-11 07:24:00,
2013-10-11 02:25:00,57.7,51.9,29.85,South,179,0.0,0.0,81,0.00,,CLR,0.00,0.00,VWS V14.00,2013-10-11 07:25:00,
2013-10-11 02:26:00,57.6,51.8,29.85,South,180,0.0,0.0,81,0.00,,CLR,0.00,0.00,VWS V14.00,2013-10-11 07:26:00,
2013-10-11 02:27:00,57.5,51.7,29.85,South,180,0.0,0.0,81,0.00,,CLR,0.00,0.00,VWS V14.00,2013-10-11 07:27:00,
2013-10-11 02:29:00,57.3,51.5,29.85,South,180,0.0,0.0,81,0.00,,CLR,0.00,0.00,VWS V14.00,2013-10-11 07:29:00,
2013-10-11 02:30:00,57.4,51.6,29.85,South,180,0.0,0.0,81,0.00,,OVC043,0.00,0.00,VWS V14.00,2013-10-11 07:30:00,
2013-10-11 02:31:00,57.1,51.7,29.85,South,180,0.0,0.0,82,0.00,,CLR,0.00,0.00,VWS V14.00,2013-10-11 07:31:00,
2013-10-11 02:32:00,57.0,51.6,29.85,South,180,0.0,0.0,82,0.00,,CLR,0.00,0.00,VWS V14.00,2013-10-11 07:32:00,
2013-10-11 02:33:00,57.0,51.6,29.85,South,180,0.0,0.0,82,0.00,,CLR,0.00,0.00,VWS V14.00,2013-10-11 07:33:00,
2013-10-11 02:34:00,56.9,51.5,29.85,South,180,0.0,0.0,82,0.00,,CLR,0.00,0.00,VWS V14.00,2013-10-11 07:34:00,
2013-10-11 02:35:00,56.9,51.5,29.85,South,180,0.0,0.0,82,0.00,,CLR,0.00,0.00,VWS V14.00,2013-10-11 07:35:00,
2013-10-11 02:36:00,56.9,51.5,29.85,South,180,0.0,0.0,82,0.00,,CLR,0.00,0.00,VWS V14.00,2013-10-11 07:36:00,
2013-10-11 02:37:00,56.9,51.5,29.85,South,180,0.0,0.0,82,0.00,,CLR,0.00,0.00,VWS V14.00,2013-10-11 07:37:00,
2013-10-11 02:38:00,56.9,51.5,29.85,South,180,0.0,0.0,82,0.00,,CLR,0.00,0.00,VWS V14.00,2013-10-11 07:38:00,
2013-10-11 02:39:00,56.9,51.5,29.85,South,180,0.0,0.0,82,0.00,,CLR,0.00,0.00,VWS V14.00,2013-10-11 07:39:00,
2013-10-11 02:40:00,56.9,51.5,29.85,South,180,0.0,0.0,82,0.00,,CLR,0.00,0.00,VWS V14.00,2013-10-11 07:40:00,
2013-10-11 02:41:00,56.9,51.5,29.85,South,180,0.0,0.0,82,0.00,,CLR,0.00,0.00,VWS V14.00,2013-10-11 07:41:00,
2013-10-11 02:42:00,56.9,51.5,29.85,South,180,0.0,0.0,82,0.00,,CLR,0.00,0.00,VWS V14.00,2013-10-11 07:42:00,
2013-10-11 02:43:00,56.9,51.5,29.85,South,180,0.0,0.0,82,0.00,,CLR,0.00,0.00,VWS V14.00,2013-10-11 07:43:00,
2013-10-11 02:45:00,56.9,51.5,29.85,South,180,0.0,1.0,82,0.00,,CLR,0.00,0.00,VWS V14.00,2013-10-11 07:45:00,
2013-10-11 02:46:00,57.0,51.6,29.85,South,180,0.0,1.0,82,0.00,,CLR,0.00,0.00,VWS V14.00,2013-10-11 07:46:00,
2013-10-11 02:47:00,57.0,51.6,29.85,South,180,0.0,1.0,82,0.00,,CLR,0.00,0.00,VWS V14.00,2013-10-11 07:47:00,
2013-10-11 02:48:00,57.0,51.6,29.85,South,180,0.0,0.0,82,0.00,,CLR,0.00,0.00,VWS V14.00,2013-10-11 07:48:00,
2013-10-11 02:50:00,57.1,51.7,29.84,South,180,0.0,0.0,82,0.00,,CLR,0.00,0.00,VWS V14.00,2013-10-11 07:50:00,
2013-10-11 02:51:00,57.1,51.7,29.84,South,180,0.0,0.0,82,0.00,,CLR,0.00,0.00,VWS V14.00,2013-10-11 07:51:00,
2013-10-11 02:52:00,57.1,51.7,29.84,South,180,0.0,0.0,82,0.00,,CLR,0.00,0.00,VWS V14.00,2013-10-11 07:52:00,
2013-10-11 02:53:00,57.1,51.7,29.84,South,180,1.0,1.0,82,0.00,,CLR,0.00,0.00,VWS V14.00,2013-10-11 07:53:00,
2013-10-11 02:55:00,57.1,51.7,29.84,South,179,0.0,1.0,82,0.00,,CLR,0.00,0.00,VWS V14.00,2013-10-11 07:55:00,
2013-10-11 02:56:00,57.1,51.7,29.84,South,180,0.0,1.0,82,0.00,,CLR,0.00,0.00,VWS V14.00,2013-10-11 07:56:00,
2013-10-11 02:57:00,57.1,51.7,29.85,South,180,0.0,1.0,82,0.00,,CLR,0.00,0.00,VWS V14.00,2013-10-11 07:57:00,
2013-10-11 02:58:00,57.1,51.7,29.85,South,180,0.0,1.0,82,0.00,,CLR,0.00,0.00,VWS V14.00,2013-10-11 07:58:00,
2013-10-11 02:59:00,57.1,51.7,29.85,South,180,0.0,1.0,82,0.00,,CLR,0.00,0.00,VWS V14.00,2013-10-11 07:59:00,
2013-10-11 03:00:00,57.1,51.7,29.85,South,180,0.0,1.0,82,0.00,,OVC043,0.00,0.00,VWS V14.00,2013-10-11 08:00:00,
2013-10-11 03:01:00,57.2,51.8,29.85,South,180,0.0,1.0,82,0.00,,CLR,0.00,0.00,VWS V14.00,2013-10-11 08:01:00,
2013-10-11 03:03:00,57.2,51.8,29.85,South,180,0.0,1.0,82,0.00,,CLR,0.00,0.00,VWS V14.00,2013-10-11 08:03:00,
2013-10-11 03:04:00,57.1,51.7,29.85,South,180,0.0,0.0,82,0.00,,CLR,0.00,0.00,VWS V14.00,2013-10-11 08:04:00,
2013-10-11 03:05:00,57.1,51.7,29.85,South,180,0.0,1.0,82,0.00,,OVC043,0.00,0.00,VWS V14.00,2013-10-11 08:05:00,
2013-10-11 03:07:00,57.1,51.7,29.85,South,180,0.0,0.0,82,0.00,,CLR,0.00,0.00,VWS V14.00,2013-10-11 08:07:00,
2013-10-11 03:08:00,57.1,51.7,29.85,South,180,0.0,0.0,82,0.00,,CLR,0.00,0.00,VWS V14.00,2013-10-11 08:08:00,
2013-10-11 03:09:00,57.1,51.7,29.85,South,180,0.0,0.0,82,0.00,,CLR,0.00,0.00,VWS V14.00,2013-10-11 08:09:00,
2013-10-11 03:10:00,58.8,52.7,29.86,South,180,0.0,1.0,80,0.00,,CLR,0.00,0.00,VWS V14.00,2013-10-11 08:10:00,
2013-10-11 03:12:00,57.2,51.8,29.85,South,180,0.0,0.0,82,0.00,,CLR,0.00,0.00,VWS V14.00,2013-10-11 08:12:00,
2013-10-11 03:13:00,57.2,51.8,29.85,South,180,0.0,0.0,82,0.00,,CLR,0.00,0.00,VWS V14.00,2013-10-11 08:13:00,
2013-10-11 03:14:00,57.2,51.8,29.85,South,180,0.0,0.0,82,0.00,,CLR,0.00,0.00,VWS V14.00,2013-10-11 08:14:00,
2013-10-11 03:15:00,57.2,51.8,29.85,South,180,0.0,0.0,82,0.00,,OVC043,0.00,0.00,VWS V14.00,2013-10-11 08:15:00,
2013-10-11 03:17:00,57.3,51.9,29.85,South,180,0.0,0.0,82,0.00,,CLR,0.00,0.00,VWS V14.00,2013-10-11 08:17:00,
2013-10-11 03:18:00,57.3,51.9,29.85,South,180,0.0,0.0,82,0.00,,CLR,0.00,0.00,VWS V14.00,2013-10-11 08:18:00,
2013-10-11 03:20:00,57.3,51.9,29.85,South,180,0.0,0.0,82,0.00,,CLR,0.00,0.00,VWS V14.00,2013-10-11 08:20:00,
2013-10-11 03:23:00,57.3,51.9,29.84,South,180,0.0,0.0,82,0.00,,CLR,0.00,0.00,VWS V14.00,2013-10-11 08:23:00,
2013-10-11 03:25:00,57.4,52.0,29.84,South,180,0.0,0.0,82,0.00,,CLR,0.00,0.00,VWS V14.00,2013-10-11 08:25:00,
2013-10-11 03:28:00,57.5,52.1,29.84,South,180,0.0,1.0,82,0.00,,CLR,0.00,0.00,VWS V14.00,2013-10-11 08:28:00,
2013-10-11 03:29:00,57.4,52.0,29.84,South,180,0.0,0.0,82,0.00,,CLR,0.00,0.00,VWS V14.00,2013-10-11 08:29:00,
2013-10-11 03:30:00,57.5,52.1,29.84,South,180,0.0,0.0,82,0.00,,CLR,0.00,0.00,VWS V14.00,2013-10-11 08:30:00,
2013-10-11 03:33:00,57.4,52.0,29.84,South,180,0.0,0.0,82,0.00,,CLR,0.00,0.00,VWS V14.00,2013-10-11 08:33:00,
2013-10-11 03:34:00,57.4,52.0,29.84,South,180,0.0,0.0,82,0.00,,CLR,0.00,0.00,VWS V14.00,2013-10-11 08:34:00,
2013-10-11 03:35:00,57.4,52.0,29.84,South,180,0.0,0.0,82,0.00,,CLR,0.00,0.00,VWS V14.00,2013-10-11 08:35:00,
2013-10-11 03:36:00,57.3,51.9,29.84,South,180,0.0,0.0,82,0.00,,CLR,0.00,0.00,VWS V14.00,2013-10-11 08:36:00,
2013-10-11 03:38:00,57.3,51.9,29.84,South,180,0.0,1.0,82,0.00,,CLR,0.00,0.00,VWS V14.00,2013-10-11 08:38:00,
2013-10-11 03:39:00,57.2,51.8,29.84,South,180,0.0,0.0,82,0.00,,CLR,0.00,0.00,VWS V14.00,2013-10-11 08:39:00,
2013-10-11 03:40:00,57.2,51.8,29.84,South,180,0.0,0.0,82,0.00,,CLR,0.00,0.00,VWS V14.00,2013-10-11 08:40:00,
2013-10-11 03:42:00,57.1,51.7,29.85,South,180,0.0,0.0,82,0.00,,CLR,0.00,0.00,VWS V14.00,2013-10-11 08:42:00,
2013-10-11 03:43:00,57.1,51.7,29.84,South,179,0.0,0.0,82,0.00,,CLR,0.00,0.00,VWS V14.00,2013-10-11 08:43:00,
2013-10-11 03:44:00,57.1,51.7,29.85,South,180,0.0,0.0,82,0.00,,CLR,0.00,0.00,VWS V14.00,2013-10-11 08:44:00,
2013-10-11 03:45:00,57.0,51.6,29.85,South,180,0.0,0.0,82,0.00,,CLR,0.00,0.00,VWS V14.00,2013-10-11 08:45:00,
2013-10-11 03:47:00,57.0,51.6,29.85,South,180,0.0,0.0,82,0.00,,CLR,0.00,0.00,VWS V14.00,2013-10-11 08:47:00,
2013-10-11 03:48:00,56.9,51.5,29.85,South,180,0.0,0.0,82,0.00,,CLR,0.00,0.00,VWS V14.00,2013-10-11 08:48:00,
2013-10-11 03:49:00,56.9,51.8,29.85,South,180,0.0,0.0,83,0.00,,CLR,0.00,0.00,VWS V14.00,2013-10-11 08:49:00,
2013-10-11 03:50:00,56.9,51.5,29.85,South,180,0.0,0.0,82,0.00,,OVC043,0.00,0.00,VWS V14.00,2013-10-11 08:50:00,
2013-10-11 03:51:00,56.9,51.8,29.84,South,180,0.0,0.0,83,0.00,,CLR,0.00,0.00,VWS V14.00,2013-10-11 08:51:00,
2013-10-11 03:52:00,56.9,51.8,29.84,South,180,0.0,0.0,83,0.00,,CLR,0.00,0.00,VWS V14.00,2013-10-11 08:52:00,
2013-10-11 03:53:00,56.9,51.8,29.84,South,180,0.0,0.0,83,0.00,,CLR,0.00,0.00,VWS V14.00,2013-10-11 08:53:00,
2013-10-11 03:54:00,56.9,51.8,29.84,South,180,0.0,0.0,83,0.00,,CLR,0.00,0.00,VWS V14.00,2013-10-11 08:54:00,
2013-10-11 03:55:00,56.9,51.8,29.84,South,180,0.0,0.0,83,0.00,,OVC043,0.00,0.00,VWS V14.00,2013-10-11 08:55:00,
2013-10-11 03:56:00,56.9,51.8,29.84,South,180,0.0,0.0,83,0.00,,CLR,0.00,0.00,VWS V14.00,2013-10-11 08:56:00,
2013-10-11 03:57:00,56.9,51.8,29.84,South,180,0.0,0.0,83,0.00,,CLR,0.00,0.00,VWS V14.00,2013-10-11 08:57:00,
2013-10-11 03:59:00,56.9,51.8,29.84,South,180,0.0,0.0,83,0.00,,CLR,0.00,0.00,VWS V14.00,2013-10-11 08:59:00,
2013-10-11 04:00:00,56.9,51.8,29.84,South,180,0.0,1.0,83,0.00,,CLR,0.00,0.00,VWS V14.00,2013-10-11 09:00:00,
2013-10-11 04:01:00,56.9,51.8,29.84,South,180,0.0,1.0,83,0.00,,CLR,0.00,0.00,VWS V14.00,2013-10-11 09:01:00,
2013-10-11 04:02:00,56.9,51.8,29.84,South,180,0.0,1.0,83,0.00,,CLR,0.00,0.00,VWS V14.00,2013-10-11 09:02:00,
2013-10-11 04:04:00,57.0,51.9,29.84,South,179,0.0,0.0,83,0.00,,CLR,0.00,0.00,VWS V14.00,2013-10-11 09:04:00,
2013-10-11 04:05:00,57.0,51.9,29.84,South,180,0.0,0.0,83,0.00,,CLR,0.00,0.00,VWS V14.00,2013-10-11 09:05:00,
2013-10-11 04:06:00,57.1,52.0,29.85,South,180,0.0,0.0,83,0.00,,CLR,0.00,0.00,VWS V14.00,2013-10-11 09:06:00,
2013-10-11 04:08:00,57.1,52.0,29.85,South,180,0.0,1.0,83,0.00,,CLR,0.00,0.00,VWS V14.00,2013-10-11 09:08:00,
2013-10-11 04:09:00,57.2,52.1,29.84,South,180,0.0,0.0,83,0.00,,CLR,0.00,0.00,VWS V14.00,2013-10-11 09:09:00,
2013-10-11 04:10:00,57.3,52.2,29.85,South,179,0.0,0.0,83,0.00,,CLR,0.00,0.00,VWS V14.00,2013-10-11 09:10:00,
2013-10-11 04:12:00,57.4,52.3,29.85,South,180,0.0,0.0,83,0.00,,CLR,0.00,0.00,VWS V14.00,2013-10-11 09:12:00,
2013-10-11 04:13:00,57.4,52.3,29.84,South,180,0.0,0.0,83,0.00,,CLR,0.00,0.00,VWS V14.00,2013-10-11 09:13:00,
2013-10-11 04:14:00,57.5,52.4,29.84,South,180,0.0,1.0,83,0.00,,CLR,0.00,0.00,VWS V14.00,2013-10-11 09:14:00,
2013-10-11 04:15:00,57.6,52.5,29.84,South,180,0.0,1.0,83,0.00,,CLR,0.00,0.00,VWS V14.00,2013-10-11 09:15:00,
2013-10-11 04:16:00,57.7,52.6,29.84,South,180,1.0,1.0,83,0.00,,CLR,0.00,0.00,VWS V14.00,2013-10-11 09:16:00,
2013-10-11 04:17:00,57.7,52.6,29.84,South,180,0.0,1.0,83,0.00,,CLR,0.00,0.00,VWS V14.00,2013-10-11 09:17:00,
2013-10-11 04:18:00,57.8,52.3,29.84,South,179,0.0,0.0,82,0.00,,CLR,0.00,0.00,VWS V14.00,2013-10-11 09:18:00,
2013-10-11 04:20:00,57.9,52.5,29.84,South,180,0.0,2.0,82,0.00,,CLR,0.00,0.00,VWS V14.00,2013-10-11 09:20:00,
2013-10-11 04:21:00,58.0,52.9,29.84,South,180,0.0,2.0,83,0.00,,CLR,0.00,0.00,VWS V14.00,2013-10-11 09:21:00,
2013-10-11 04:22:00,58.0,52.5,29.85,South,179,0.0,2.0,82,0.00,,CLR,0.00,0.00,VWS V14.00,2013-10-11 09:22:00,
2013-10-11 04:23:00,58.1,52.6,29.85,South,178,2.0,2.0,82,0.00,,CLR,0.00,0.00,VWS V14.00,2013-10-11 09:23:00,
2013-10-11 04:25:00,58.2,52.7,29.85,South,175,1.0,2.0,82,0.00,,CLR,0.00,0.00,VWS V14.00,2013-10-11 09:25:00,
2013-10-11 04:26:00,58.3,52.8,29.85,South,175,0.0,2.0,82,0.00,,CLR,0.00,0.00,VWS V14.00,2013-10-11 09:26:00,
2013-10-11 04:27:00,58.3,52.8,29.85,South,175,0.0,2.0,82,0.00,,CLR,0.00,0.00,VWS V14.00,2013-10-11 09:27:00,
2013-10-11 04:28:00,58.4,52.9,29.85,South,175,0.0,2.0,82,0.00,,CLR,0.00,0.00,VWS V14.00,2013-10-11 09:28:00,
2013-10-11 04:30:00,58.3,52.8,29.85,South,175,0.0,2.0,82,0.00,,OVC043,0.00,0.00,VWS V14.00,2013-10-11 09:30:00,
2013-10-11 04:31:00,58.5,53.0,29.85,South,175,0.0,5.0,82,0.00,,CLR,0.00,0.00,VWS V14.00,2013-10-11 09:31:00,
2013-10-11 04:32:00,58.5,53.0,29.85,South,175,0.0,5.0,82,0.00,,CLR,0.00,0.00,VWS V14.00,2013-10-11 09:32:00,
2013-10-11 04:33:00,58.5,53.0,29.85,SSE,167,1.0,5.0,82,0.00,,CLR,0.00,0.00,VWS V14.00,2013-10-11 09:33:00,
2013-10-11 04:34:00,58.5,53.0,29.85,SSE,167,0.0,2.0,82,0.00,,CLR,0.00,0.00,VWS V14.00,2013-10-11 09:34:00,
2013-10-11 04:35:00,58.5,53.0,29.85,SSE,167,1.0,5.0,82,0.00,,OVC043,0.00,0.00,VWS V14.00,2013-10-11 09:35:00,
2013-10-11 04:36:00,58.6,53.1,29.85,SSE,167,0.0,2.0,82,0.00,,CLR,0.00,0.00,VWS V14.00,2013-10-11 09:36:00,
2013-10-11 04:37:00,58.6,53.1,29.85,SSE,167,0.0,2.0,82,0.00,,CLR,0.00,0.00,VWS V14.00,2013-10-11 09:37:00,
2013-10-11 04:38:00,58.6,53.1,29.85,SSE,167,0.0,2.0,82,0.00,,CLR,0.00,0.00,VWS V14.00,2013-10-11 09:38:00,
2013-10-11 04:39:00,58.7,53.2,29.85,SSE,165,0.0,2.0,82,0.00,,CLR,0.00,0.00,VWS V14.00,2013-10-11 09:39:00,
2013-10-11 04:40:00,58.6,53.1,29.85,SSE,167,0.0,2.0,82,0.00,,OVC043,0.00,0.00,VWS V14.00,2013-10-11 09:40:00,
2013-10-11 04:41:00,58.6,53.1,29.84,SSE,166,0.0,2.0,82,0.00,,CLR,0.00,0.00,VWS V14.00,2013-10-11 09:41:00,
2013-10-11 04:42:00,58.7,53.2,29.84,SSE,166,0.0,2.0,82,0.00,,CLR,0.00,0.00,VWS V14.00,2013-10-11 09:42:00,
2013-10-11 04:43:00,58.7,53.2,29.84,SSE,165,5.0,5.0,82,0.00,,CLR,0.00,0.00,VWS V14.00,2013-10-11 09:43:00,
2013-10-11 04:44:00,58.7,53.2,29.84,SSE,165,0.0,1.0,82,0.00,,CLR,0.00,0.00,VWS V14.00,2013-10-11 09:44:00,
2013-10-11 04:45:00,58.7,53.2,29.84,SSE,166,0.0,1.0,82,0.00,,CLR,0.00,0.00,VWS V14.00,2013-10-11 09:45:00,
2013-10-11 04:47:00,58.7,53.2,29.84,SSE,166,0.0,1.0,82,0.00,,CLR,0.00,0.00,VWS V14.00,2013-10-11 09:47:00,
2013-10-11 04:48:00,58.7,53.2,29.84,SSE,166,0.0,0.0,82,0.00,,CLR,0.00,0.00,VWS V14.00,2013-10-11 09:48:00,
2013-10-11 04:49:00,58.7,53.2,29.84,SSE,166,0.0,0.0,82,0.00,,CLR,0.00,0.00,VWS V14.00,2013-10-11 09:49:00,
2013-10-11 04:50:00,58.7,53.2,29.84,SSE,165,0.0,1.0,82,0.00,,CLR,0.00,0.00,VWS V14.00,2013-10-11 09:50:00,
2013-10-11 04:52:00,58.8,53.3,29.84,SSE,166,0.0,4.0,82,0.00,,CLR,0.00,0.00,VWS V14.00,2013-10-11 09:52:00,
2013-10-11 04:53:00,58.8,53.0,29.84,SSE,165,0.0,0.0,81,0.00,,CLR,0.00,0.00,VWS V14.00,2013-10-11 09:53:00,
2013-10-11 04:54:00,58.8,53.0,29.84,SSE,166,0.0,0.0,81,0.00,,CLR,0.00,0.00,VWS V14.00,2013-10-11 09:54:00,
2013-10-11 04:55:00,58.8,53.0,29.84,SSE,166,0.0,1.0,81,0.00,,CLR,0.00,0.00,VWS V14.00,2013-10-11 09:55:00,
2013-10-11 04:57:00,58.8,53.0,29.84,SSE,165,0.0,1.0,81,0.00,,CLR,0.00,0.00,VWS V14.00,2013-10-11 09:57:00,
2013-10-11 04:58:00,58.8,53.0,29.84,SSE,165,0.0,1.0,81,0.00,,CLR,0.00,0.00,VWS V14.00,2013-10-11 09:58:00,
2013-10-11 04:59:00,58.8,53.0,29.85,SSE,166,0.0,1.0,81,0.00,,CLR,0.00,0.00,VWS V14.00,2013-10-11 09:59:00,
2013-10-11 05:00:00,58.8,53.0,29.84,SSE,165,1.0,1.0,81,0.00,,OVC043,0.00,0.00,VWS V14.00,2013-10-11 10:00:00,
2013-10-11 05:01:00,58.7,52.9,29.85,SSE,166,0.0,2.0,81,0.00,,CLR,0.00,0.00,VWS V14.00,2013-10-11 10:01:00,
2013-10-11 05:02:00,58.7,52.9,29.85,SSE,166,0.0,4.0,81,0.00,,CLR,0.00,0.00,VWS V14.00,2013-10-11 10:02:00,
2013-10-11 05:03:00,58.7,52.9,29.85,SSE,166,0.0,4.0,81,0.00,,CLR,0.00,0.00,VWS V14.00,2013-10-11 10:03:00,
2013-10-11 05:04:00,58.7,52.9,29.84,SSE,166,0.0,1.0,81,0.00,,CLR,0.00,0.00,VWS V14.00,2013-10-11 10:04:00,
2013-10-11 05:05:00,58.7,52.9,29.85,SSE,166,0.0,4.0,81,0.00,,OVC043,0.00,0.00,VWS V14.00,2013-10-11 10:05:00,
2013-10-11 05:06:00,58.6,53.1,29.84,SSE,166,0.0,5.0,82,0.00,,CLR,0.00,0.00,VWS V14.00,2013-10-11 10:06:00,
2013-10-11 05:07:00,58.6,53.1,29.84,SSE,167,0.0,5.0,82,0.00,,CLR,0.00,0.00,VWS V14.00,2013-10-11 10:07:00,
2013-10-11 05:08:00,58.6,53.1,29.84,SSE,167,0.0,5.0,82,0.00,,CLR,0.00,0.00,VWS V14.00,2013-10-11 10:08:00,
2013-10-11 05:09:00,58.6,53.1,29.84,SSE,168,0.0,0.0,82,0.00,,CLR,0.00,0.00,VWS V14.00,2013-10-11 10:09:00,
2013-10-11 05:10:00,58.6,53.1,29.84,SSE,168,0.0,5.0,82,0.00,,OVC043,0.00,0.00,VWS V14.00,2013-10-11 10:10:00,
2013-10-11 05:11:00,58.6,53.1,29.84,SSE,168,0.0,1.0,82,0.00,,CLR,0.00,0.00,VWS V14.00,2013-10-11 10:11:00,
2013-10-11 05:12:00,58.5,53.0,29.84,SSE,168,0.0,1.0,82,0.00,,CLR,0.00,0.00,VWS V14.00,2013-10-11 10:12:00,
2013-10-11 05:13:00,58.5,53.0,29.84,SSE,167,0.0,1.0,82,0.00,,CLR,0.00,0.00,VWS V14.00,2013-10-11 10:13:00,
2013-10-11 05:14:00,58.5,53.0,29.84,SSE,168,0.0,0.0,82,0.00,,CLR,0.00,0.00,VWS V14.00,2013-10-11 10:14:00,
2013-10-11 05:15:00,58.5,53.0,29.84,SSE,168,0.0,1.0,82,0.00,,OVC043,0.00,0.00,VWS V14.00,2013-10-11 10:15:00,
2013-10-11 05:16:00,58.4,52.9,29.84,SSE,168,0.0,1.0,82,0.00,,CLR,0.00,0.00,VWS V14.00,2013-10-11 10:16:00,
2013-10-11 05:17:00,58.4,52.9,29.84,SSE,168,1.0,1.0,82,0.00,,CLR,0.00,0.00,VWS V14.00,2013-10-11 10:17:00,
2013-10-11 05:18:00,58.4,52.9,29.84,SSE,168,0.0,1.0,82,0.00,,CLR,0.00,0.00,VWS V14.00,2013-10-11 10:18:00,
2013-10-11 05:19:00,58.3,52.8,29.84,SSE,167,0.0,1.0,82,0.00,,CLR,0.00,0.00,VWS V14.00,2013-10-11 10:19:00,
2013-10-11 05:20:00,58.4,52.9,29.84,SSE,168,0.0,2.0,82,0.00,,CLR,0.00,0.00,VWS V14.00,2013-10-11 10:20:00,
2013-10-11 05:22:00,58.3,52.8,29.84,SSE,168,0.0,2.0,82,0.00,,CLR,0.00,0.00,VWS V14.00,2013-10-11 10:22:00,
2013-10-11 05:23:00,58.3,52.8,29.84,SSE,168,0.0,2.0,82,0.00,,CLR,0.00,0.00,VWS V14.00,2013-10-11 10:23:00,
2013-10-11 05:24:00,58.3,52.8,29.84,SSE,168,0.0,2.0,82,0.00,,CLR,0.00,0.00,VWS V14.00,2013-10-11 10:24:00,
2013-10-11 05:25:00,58.3,52.8,29.84,SSE,168,0.0,2.0,82,0.00,,CLR,0.00,0.00,VWS V14.00,2013-10-11 10:25:00,
2013-10-11 05:28:00,58.2,52.7,29.84,SSE,168,0.0,2.0,82,0.00,,CLR,0.00,0.00,VWS V14.00,2013-10-11 10:28:00,
2013-10-11 05:29:00,58.2,52.7,29.84,SSE,168,0.0,2.0,82,0.00,,CLR,0.00,0.00,VWS V14.00,2013-10-11 10:29:00,
2013-10-11 05:30:00,58.2,52.7,29.84,SSE,168,0.0,2.0,82,0.00,,OVC043,0.00,0.00,VWS V14.00,2013-10-11 10:30:00,
2013-10-11 05:31:00,58.2,52.7,29.84,SSE,168,0.0,2.0,82,0.00,,CLR,0.00,0.00,VWS V14.00,2013-10-11 10:31:00,
2013-10-11 05:33:00,58.1,52.6,29.84,SSE,168,0.0,2.0,82,0.00,,CLR,0.00,0.00,VWS V14.00,2013-10-11 10:33:00,
2013-10-11 05:34:00,58.1,52.6,29.84,SSE,164,0.0,0.0,82,0.00,,CLR,0.00,0.00,VWS V14.00,2013-10-11 10:34:00,
2013-10-11 05:35:00,58.1,52.6,29.84,SSE,164,0.0,0.0,82,0.00,,CLR,0.00,0.00,VWS V14.00,2013-10-11 10:35:00,
2013-10-11 05:36:00,58.0,52.5,29.84,SSE,163,0.0,1.0,82,0.00,,CLR,0.00,0.00,VWS V14.00,2013-10-11 10:36:00,
2013-10-11 05:38:00,58.0,52.9,29.84,SSE,164,0.0,1.0,83,0.00,,CLR,0.00,0.00,VWS V14.00,2013-10-11 10:38:00,
2013-10-11 05:39:00,58.0,52.9,29.84,SSE,164,0.0,1.0,83,0.00,,CLR,0.00,0.00,VWS V14.00,2013-10-11 10:39:00,
2013-10-11 05:40:00,58.0,52.9,29.84,SSE,164,0.0,1.0,83,0.00,,CLR,0.00,0.00,VWS V14.00,2013-10-11 10:40:00,
2013-10-11 05:41:00,57.9,52.8,29.84,SSE,164,0.0,1.0,83,0.00,,CLR,0.00,0.00,VWS V14.00,2013-10-11 10:41:00,
2013-10-11 05:43:00,57.9,52.8,29.84,SSE,163,0.0,1.0,83,0.00,,CLR,0.00,0.00,VWS V14.00,2013-10-11 10:43:00,
2013-10-11 05:44:00,57.9,52.8,29.84,SSE,164,0.0,0.0,83,0.00,,CLR,0.00,0.00,VWS V14.00,2013-10-11 10:44:00,
2013-10-11 05:45:00,57.9,52.8,29.84,SSE,164,0.0,0.0,83,0.00,,CLR,0.00,0.00,VWS V14.00,2013-10-11 10:45:00,
2013-10-11 05:46:00,57.8,52.7,29.84,SSE,164,0.0,1.0,83,0.00,,CLR,0.00,0.00,VWS V14.00,2013-10-11 10:46:00,
2013-10-11 05:48:00,57.8,52.7,29.83,SSE,164,0.0,2.0,83,0.00,,CLR,0.00,0.00,VWS V14.00,2013-10-11 10:48:00,
2013-10-11 05:49:00,57.8,52.7,29.84,SSE,164,0.0,0.0,83,0.00,,CLR,0.00,0.00,VWS V14.00,2013-10-11 10:49:00,
2013-10-11 05:50:00,57.8,52.7,29.83,SSE,164,0.0,0.0,83,0.00,,CLR,0.00,0.00,VWS V14.00,2013-10-11 10:50:00,
2013-10-11 05:51:00,57.8,52.7,29.83,SSE,165,0.0,0.0,83,0.00,,CLR,0.00,0.00,VWS V14.00,2013-10-11 10:51:00,
2013-10-11 05:53:00,57.7,52.6,29.83,SSE,164,0.0,0.0,83,0.00,,CLR,0.00,0.00,VWS V14.00,2013-10-11 10:53:00,
2013-10-11 05:55:00,57.8,52.7,29.83,SSE,164,0.0,2.0,83,0.00,,CLR,0.00,0.00,VWS V14.00,2013-10-11 10:55:00,
2013-10-11 05:56:00,57.7,52.6,29.83,SSE,164,0.0,2.0,83,0.00,,CLR,0.00,0.00,VWS V14.00,2013-10-11 10:56:00,
2013-10-11 05:58:00,57.8,52.7,29.83,SSE,164,0.0,0.0,83,0.00,,CLR,0.00,0.00,VWS V14.00,2013-10-11 10:58:00,
2013-10-11 06:00:00,57.8,52.7,29.83,SSE,164,0.0,0.0,83,0.00,,CLR,0.00,0.00,VWS V14.00,2013-10-11 11:00:00,
2013-10-11 06:01:00,57.8,52.7,29.83,SSE,164,1.0,1.0,83,0.00,,CLR,0.00,0.00,VWS V14.00,2013-10-11 11:01:00,
2013-10-11 06:02:00,57.7,52.6,29.83,SSE,164,0.0,1.0,83,0.00,,CLR,0.00,0.00,VWS V14.00,2013-10-11 11:02:00,
2013-10-11 06:03:00,57.7,52.6,29.83,SSE,164,0.0,0.0,83,0.00,,CLR,0.00,0.00,VWS V14.00,2013-10-11 11:03:00,
2013-10-11 06:05:00,57.7,52.6,29.83,SSE,164,0.0,0.0,83,0.00,,CLR,0.00,0.00,VWS V14.00,2013-10-11 11:05:00,
2013-10-11 06:06:00,57.7,52.6,29.83,SSE,164,0.0,1.0,83,0.00,,CLR,0.00,0.00,VWS V14.00,2013-10-11 11:06:00,
2013-10-11 06:07:00,57.7,52.6,29.83,SSE,164,0.0,1.0,83,0.00,,CLR,0.00,0.00,VWS V14.00,2013-10-11 11:07:00,
2013-10-11 06:09:00,57.7,52.6,29.83,SSE,163,0.0,1.0,83,0.00,,CLR,0.00,0.00,VWS V14.00,2013-10-11 11:09:00,
2013-10-11 06:10:00,57.7,52.6,29.83,SSE,163,0.0,1.0,83,0.00,,CLR,0.00,0.00,VWS V14.00,2013-10-11 11:10:00,
2013-10-11 06:11:00,57.7,52.6,29.83,SSE,164,0.0,1.0,83,0.00,,CLR,0.00,0.00,VWS V14.00,2013-10-11 11:11:00,
2013-10-11 06:12:00,57.7,52.6,29.83,SSE,164,0.0,1.0,83,0.00,,CLR,0.00,0.00,VWS V14.00,2013-10-11 11:12:00,
2013-10-11 06:14:00,57.7,52.6,29.83,SSE,163,0.0,1.0,83,0.00,,CLR,0.00,0.00,VWS V14.00,2013-10-11 11:14:00,
2013-10-11 06:15:00,57.7,52.6,29.83,SSE,162,1.0,1.0,83,0.00,,CLR,0.00,0.00,VWS V14.00,2013-10-11 11:15:00,
2013-10-11 06:16:00,57.7,52.6,29.83,SSE,162,0.0,1.0,83,0.00,,CLR,0.00,0.00,VWS V14.00,2013-10-11 11:16:00,
2013-10-11 06:17:00,57.7,52.6,29.83,SSE,162,0.0,1.0,83,0.00,,CLR,0.00,0.00,VWS V14.00,2013-10-11 11:17:00,
2013-10-11 06:18:00,57.7,52.6,29.83,SSE,162,0.0,1.0,83,0.00,,CLR,0.00,0.00,VWS V14.00,2013-10-11 11:18:00,
2013-10-11 06:20:00,57.7,52.6,29.83,SSE,166,0.0,4.0,83,0.00,,CLR,0.00,0.00,VWS V14.00,2013-10-11 11:20:00,
2013-10-11 06:21:00,57.7,52.6,29.83,SSE,166,1.0,4.0,83,0.00,,CLR,0.00,0.00,VWS V14.00,2013-10-11 11:21:00,
2013-10-11 06:22:00,57.7,52.6,29.83,SSE,166,0.0,4.0,83,0.00,,CLR,0.00,0.00,VWS V14.00,2013-10-11 11:22:00,
2013-10-11 06:23:00,57.7,52.6,29.83,SSE,166,0.0,4.0,83,0.00,,CLR,0.00,0.00,VWS V14.00,2013-10-11 11:23:00,
2013-10-11 06:25:00,57.7,52.6,29.83,SSE,166,0.0,1.0,83,0.00,,CLR,0.00,0.00,VWS V14.00,2013-10-11 11:25:00,
2013-10-11 06:26:00,57.7,52.6,29.83,SSE,166,0.0,1.0,83,0.00,,CLR,0.00,0.00,VWS V14.00,2013-10-11 11:26:00,
2013-10-11 06:28:00,57.7,52.6,29.83,SSE,166,0.0,2.0,83,0.00,,CLR,0.00,0.00,VWS V14.00,2013-10-11 11:28:00,
2013-10-11 06:30:00,57.7,52.6,29.83,SSE,167,1.0,1.0,83,0.00,,CLR,0.00,0.00,VWS V14.00,2013-10-11 11:30:00,
2013-10-11 06:32:00,57.7,52.6,29.83,SSE,166,0.0,2.0,83,0.00,,CLR,0.00,0.00,VWS V14.00,2013-10-11 11:32:00,
2013-10-11 06:33:00,57.7,52.6,29.83,SSE,166,0.0,2.0,83,0.00,,CLR,0.00,0.00,VWS V14.00,2013-10-11 11:33:00,
2013-10-11 06:34:00,57.7,52.6,29.83,SSE,166,0.0,0.0,83,0.00,,CLR,0.00,0.00,VWS V14.00,2013-10-11 11:34:00,
2013-10-11 06:35:00,57.7,52.6,29.83,SSE,166,0.0,0.0,83,0.00,,CLR,0.00,0.00,VWS V14.00,2013-10-11 11:35:00,
2013-10-11 06:38:00,57.7,52.6,29.82,SSE,166,0.0,1.0,83,0.00,,CLR,0.00,0.00,VWS V14.00,2013-10-11 11:38:00,
2013-10-11 06:39:00,57.7,52.6,29.82,SSE,166,0.0,0.0,83,0.00,,CLR,0.00,0.00,VWS V14.00,2013-10-11 11:39:00,
2013-10-11 06:40:00,57.7,52.6,29.82,SSE,166,0.0,0.0,83,0.00,,CLR,0.00,0.00,VWS V14.00,2013-10-11 11:40:00,
2013-10-11 06:43:00,57.7,52.6,29.82,SSE,166,0.0,0.0,83,0.00,,CLR,0.00,0.00,VWS V14.00,2013-10-11 11:43:00,
2013-10-11 06:44:00,57.7,52.9,29.82,SSE,166,0.0,0.0,84,0.00,,CLR,0.00,0.00,VWS V14.00,2013-10-11 11:44:00,
2013-10-11 06:45:00,57.7,52.9,29.82,SSE,166,0.0,0.0,84,0.00,,CLR,0.00,0.00,VWS V14.00,2013-10-11 11:45:00,
2013-10-11 06:48:00,57.6,52.8,29.82,SSE,166,0.0,2.0,84,0.00,,CLR,0.00,0.00,VWS V14.00,2013-10-11 11:48:00,
2013-10-11 06:49:00,57.6,52.8,29.82,SSE,166,0.0,2.0,84,0.00,,CLR,0.00,0.00,VWS V14.00,2013-10-11 11:49:00,
2013-10-11 06:50:00,57.6,52.8,29.82,SSE,166,0.0,2.0,84,0.00,,CLR,0.00,0.00,VWS V14.00,2013-10-11 11:50:00,
2013-10-11 06:51:00,57.7,52.9,29.82,SSE,166,0.0,2.0,84,0.00,,CLR,0.00,0.00,VWS V14.00,2013-10-11 11:51:00,
2013-10-11 06:53:00,57.7,52.9,29.82,SSE,166,0.0,0.0,84,0.00,,CLR,0.00,0.00,VWS V14.00,2013-10-11 11:53:00,
2013-10-11 06:54:00,57.7,52.9,29.82,SSE,166,0.0,1.0,84,0.00,,CLR,0.00,0.00,VWS V14.00,2013-10-11 11:54:00,
2013-10-11 06:55:00,57.7,52.9,29.82,SSE,166,0.0,2.0,84,0.00,,OVC043,0.00,0.00,VWS V14.00,2013-10-11 11:55:00,
2013-10-11 06:56:00,57.7,52.9,29.82,SSE,166,0.0,1.0,84,0.00,,CLR,0.00,0.00,VWS V14.00,2013-10-11 11:56:00,
2013-10-11 06:59:00,57.7,52.9,29.81,SSE,166,0.0,1.0,84,0.00,,CLR,0.00,0.00,VWS V14.00,2013-10-11 11:59:00,
2013-10-11 07:00:00,57.7,52.9,29.81,SSE,167,0.0,1.0,84,0.00,,OVC043,0.00,0.00,VWS V14.00,2013-10-11 12:00:00,
2013-10-11 07:01:00,57.7,52.9,29.81,SSE,166,0.0,1.0,84,0.00,,CLR,0.00,0.00,VWS V14.00,2013-10-11 12:01:00,
2013-10-11 07:04:00,57.7,52.9,29.81,SSE,166,0.0,0.0,84,0.00,,CLR,0.00,0.00,VWS V14.00,2013-10-11 12:04:00,
2013-10-11 07:05:00,57.7,52.9,29.81,SSE,166,0.0,1.0,84,0.00,,OVC043,0.00,0.00,VWS V14.00,2013-10-11 12:05:00,
2013-10-11 07:06:00,57.7,52.9,29.81,SSE,166,0.0,0.0,84,0.00,,CLR,0.00,0.00,VWS V14.00,2013-10-11 12:06:00,
2013-10-11 07:09:00,57.6,52.8,29.81,SSE,166,0.0,0.0,84,0.00,,CLR,0.00,0.00,VWS V14.00,2013-10-11 12:09:00,
2013-10-11 07:10:00,57.6,52.8,29.81,SSE,167,0.0,0.0,84,0.00,,CLR,0.00,0.00,VWS V14.00,2013-10-11 12:10:00,
2013-10-11 07:11:00,57.5,52.7,29.81,SSE,166,0.0,0.0,84,0.00,,CLR,0.00,0.00,VWS V14.00,2013-10-11 12:11:00,
2013-10-11 07:12:00,57.5,52.7,29.81,SSE,166,0.0,0.0,84,0.00,,CLR,0.00,0.00,VWS V14.00,2013-10-11 12:12:00,
2013-10-11 07:14:00,57.5,52.7,29.81,SSE,163,0.0,1.0,84,0.00,,CLR,0.00,0.00,VWS V14.00,2013-10-11 12:14:00,
2013-10-11 07:15:00,57.5,52.7,29.81,SSE,163,0.0,2.0,84,0.00,,OVC043,0.00,0.00,VWS V14.00,2013-10-11 12:15:00,
2013-10-11 07:16:00,57.5,52.7,29.81,SSE,163,0.0,2.0,84,0.00,,CLR,0.00,0.00,VWS V14.00,2013-10-11 12:16:00,
2013-10-11 07:17:00,57.5,52.7,29.80,SSE,163,0.0,2.0,84,0.00,,CLR,0.00,0.00,VWS V14.00,2013-10-11 12:17:00,
2013-10-11 07:19:00,57.5,52.7,29.80,SSE,163,0.0,0.0,84,0.00,,CLR,0.00,0.00,VWS V14.00,2013-10-11 12:19:00,
2013-10-11 07:20:00,57.5,52.7,29.80,SSE,163,0.0,2.0,84,0.00,,OVC043,0.00,0.00,VWS V14.00,2013-10-11 12:20:00,
2013-10-11 07:21:00,57.4,52.6,29.80,SSE,163,0.0,0.0,84,0.00,,CLR,0.00,0.00,VWS V14.00,2013-10-11 12:21:00,
2013-10-11 07:22:00,57.3,52.5,29.80,SSE,163,0.0,0.0,84,0.00,,CLR,0.00,0.00,VWS V14.00,2013-10-11 12:22:00,
2013-10-11 07:23:00,57.3,52.5,29.81,SSE,163,0.0,0.0,84,0.00,,CLR,0.00,0.00,VWS V14.00,2013-10-11 12:23:00,
2013-10-11 07:24:00,57.3,52.5,29.81,SSE,163,0.0,0.0,84,0.00,,CLR,0.00,0.00,VWS V14.00,2013-10-11 12:24:00,
2013-10-11 07:25:00,57.3,52.5,29.81,SSE,163,0.0,0.0,84,0.00,,OVC043,0.00,0.00,VWS V14.00,2013-10-11 12:25:00,
2013-10-11 07:27:00,57.2,52.4,29.81,SSE,163,1.0,1.0,84,0.00,,CLR,0.00,0.00,VWS V14.00,2013-10-11 12:27:00,
2013-10-11 07:28:00,57.2,52.4,29.80,SSE,163,0.0,1.0,84,0.00,,CLR,0.00,5.00,VWS V14.00,2013-10-11 12:28:00,
2013-10-11 07:29:00,57.2,52.4,29.80,SE,142,2.0,2.0,84,0.00,,CLR,0.00,5.00,VWS V14.00,2013-10-11 12:29:00,
2013-10-11 07:30:00,57.2,52.4,29.80,SSE,163,0.0,1.0,84,0.00,,OVC043,0.00,5.00,VWS V14.00,2013-10-11 12:30:00,
2013-10-11 07:32:00,57.2,52.4,29.80,SE,143,0.0,4.0,84,0.00,,CLR,0.00,7.00,VWS V14.00,2013-10-11 12:32:00,
2013-10-11 07:33:00,57.1,52.3,29.81,SE,143,0.0,0.0,84,0.00,,CLR,0.00,7.00,VWS V14.00,2013-10-11 12:33:00,
2013-10-11 07:34:00,57.1,52.3,29.81,SE,142,0.0,0.0,84,0.00,,CLR,0.00,7.00,VWS V14.00,2013-10-11 12:34:00,
2013-10-11 07:35:00,57.2,52.4,29.80,SE,142,0.0,4.0,84,0.00,,OVC043,0.00,7.00,VWS V14.00,2013-10-11 12:35:00,
2013-10-11 07:37:00,57.1,52.3,29.81,SE,143,0.0,0.0,84,0.00,,CLR,0.00,9.00,VWS V14.00,2013-10-11 12:37:00,
2013-10-11 07:38:00,57.1,52.3,29.81,SE,142,0.0,0.0,84,0.00,,CLR,0.00,9.00,VWS V14.00,2013-10-11 12:38:00,
2013-10-11 07:39:00,57.1,52.3,29.81,SE,142,0.0,0.0,84,0.00,,CLR,0.00,9.00,VWS V14.00,2013-10-11 12:39:00,
2013-10-11 07:40:00,57.1,52.3,29.81,SE,142,0.0,0.0,84,0.00,,OVC043,0.00,9.00,VWS V14.00,2013-10-11 12:40:00,
2013-10-11 07:42:00,57.2,52.4,29.80,SE,142,0.0,0.0,84,0.00,,CLR,0.00,11.00,VWS V14.00,2013-10-11 12:42:00,
2013-10-11 07:44:00,57.2,52.4,29.80,SE,139,0.0,0.0,84,0.00,,CLR,0.00,12.00,VWS V14.00,2013-10-11 12:44:00,
2013-10-11 07:45:00,57.2,52.4,29.80,SE,139,0.0,1.0,84,0.00,,CLR,0.00,12.00,VWS V14.00,2013-10-11 12:45:00,
2013-10-11 07:47:00,57.2,52.4,29.80,SE,139,0.0,1.0,84,0.00,,CLR,0.00,14.00,VWS V14.00,2013-10-11 12:47:00,
2013-10-11 07:49:00,57.2,52.4,29.80,SE,138,0.0,0.0,84,0.00,,CLR,0.00,14.00,VWS V14.00,2013-10-11 12:49:00,
2013-10-11 07:50:00,57.3,52.5,29.80,SE,139,2.0,2.0,84,0.00,,CLR,0.00,14.00,VWS V14.00,2013-10-11 12:50:00,
2013-10-11 07:52:00,57.3,52.5,29.80,SE,139,0.0,2.0,84,0.00,,CLR,0.00,16.00,VWS V14.00,2013-10-11 12:52:00,
2013-10-11 07:54:00,57.3,52.5,29.80,SE,132,0.0,2.0,84,0.00,,CLR,0.00,16.00,VWS V14.00,2013-10-11 12:54:00,
2013-10-11 07:55:00,57.4,52.6,29.80,SE,132,0.0,2.0,84,0.00,,CLR,0.00,16.00,VWS V14.00,2013-10-11 12:55:00,
2013-10-11 07:57:00,57.4,52.6,29.80,SE,132,0.0,4.0,84,0.00,,CLR,0.00,18.00,VWS V14.00,2013-10-11 12:57:00,
2013-10-11 07:58:00,57.5,52.7,29.80,SE,133,0.0,4.0,84,0.00,,CLR,0.00,18.00,VWS V14.00,2013-10-11 12:58:00,
2013-10-11 08:00:00,57.5,52.7,29.80,SE,132,0.0,2.0,84,0.00,,CLR,0.00,19.00,VWS V14.00,2013-10-11 13:00:00,
2013-10-11 08:01:00,57.5,52.7,29.80,SE,132,0.0,2.0,84,0.00,,CLR,0.00,19.00,VWS V14.00,2013-10-11 13:01:00,
2013-10-11 08:03:00,57.6,52.8,29.80,SE,132,0.0,4.0,84,0.00,,CLR,0.00,19.00,VWS V14.00,2013-10-11 13:03:00,
2013-10-11 08:05:00,57.7,52.9,29.79,South,190,2.0,4.0,84,0.00,,CLR,0.00,21.00,VWS V14.00,2013-10-11 13:05:00,
2013-10-11 08:06:00,57.7,52.9,29.80,SE,134,4.0,5.0,84,0.00,,CLR,0.00,21.00,VWS V14.00,2013-10-11 13:06:00,
2013-10-11 08:08:00,57.8,53.0,29.79,SE,144,0.0,5.0,84,0.00,,CLR,0.00,23.00,VWS V14.00,2013-10-11 13:08:00,
2013-10-11 08:10:00,57.8,53.0,29.80,SE,144,0.0,0.0,84,0.00,,CLR,0.00,25.00,VWS V14.00,2013-10-11 13:10:00,
2013-10-11 08:11:00,57.9,53.1,29.80,SE,144,0.0,0.0,84,0.00,,CLR,0.00,25.00,VWS V14.00,2013-10-11 13:11:00,
2013-10-11 08:13:00,57.9,53.1,29.80,SSE,149,0.0,0.0,84,0.00,,CLR,0.00,25.00,VWS V14.00,2013-10-11 13:13:00,
2013-10-11 08:15:00,58.0,53.2,29.80,SSE,168,0.0,2.0,84,0.00,,CLR,0.00,26.00,VWS V14.00,2013-10-11 13:15:00,
2013-10-11 08:16:00,58.1,53.3,29.80,SSE,153,1.0,2.0,84,0.00,,CLR,0.00,26.00,VWS V14.00,2013-10-11 13:16:00,
2013-10-11 08:18:00,58.1,53.3,29.80,SSE,152,0.0,1.0,84,0.00,,CLR,0.00,26.00,VWS V14.00,2013-10-11 13:18:00,
2013-10-11 08:20:00,58.2,53.4,29.79,SE,128,0.0,4.0,84,0.00,,CLR,0.00,28.00,VWS V14.00,2013-10-11 13:20:00,
2013-10-11 08:21:00,58.2,53.4,29.79,SSE,154,0.0,4.0,84,0.00,,CLR,0.00,28.00,VWS V14.00,2013-10-11 13:21:00,
2013-10-11 08:22:00,58.2,53.4,29.79,SE,134,1.0,4.0,84,0.00,,CLR,0.00,28.00,VWS V14.00,2013-10-11 13:22:00,
2013-10-11 08:23:00,58.3,53.5,29.79,SSE,149,2.0,4.0,84,0.00,,CLR,0.00,28.00,VWS V14.00,2013-10-11 13:23:00,
2013-10-11 08:24:00,58.4,53.6,29.79,North,360,2.0,6.0,84,0.00,,CLR,0.00,28.00,VWS V14.00,2013-10-11 13:24:00,
2013-10-11 08:25:00,58.4,53.6,29.79,South,180,1.0,6.0,84,0.00,,CLR,0.00,30.00,VWS V14.00,2013-10-11 13:25:00,
2013-10-11 08:26:00,58.4,53.6,29.79,South,178,0.0,6.0,84,0.00,,CLR,0.00,30.00,VWS V14.00,2013-10-11 13:26:00,
2013-10-11 08:27:00,58.5,53.7,29.79,SE,132,0.0,6.0,84,0.00,,CLR,0.00,32.00,VWS V14.00,2013-10-11 13:27:00,
2013-10-11 08:28:00,58.5,53.7,29.79,ESE,113,5.0,6.0,84,0.00,,CLR,0.00,32.00,VWS V14.00,2013-10-11 13:28:00,
2013-10-11 08:30:00,58.6,53.8,29.79,SSE,153,0.0,6.0,84,0.00,,CLR,0.00,32.00,VWS V14.00,2013-10-11 13:30:00,
2013-10-11 08:31:00,58.7,53.9,29.79,SE,140,5.0,6.0,84,0.00,,CLR,0.00,33.00,VWS V14.00,2013-10-11 13:31:00,
2013-10-11 08:32:00,58.7,53.9,29.79,SE,126,1.0,6.0,84,0.00,,CLR,0.00,42.00,VWS V14.00,2013-10-11 13:32:00,
2013-10-11 08:33:00,58.8,54.0,29.79,South,190,0.0,2.0,84,0.00,,CLR,0.00,42.00,VWS V14.00,2013-10-11 13:33:00,
2013-10-11 08:35:00,58.9,53.8,29.79,SSE,157,0.0,6.0,83,0.00,,CLR,0.00,37.00,VWS V14.00,2013-10-11 13:35:00,
2013-10-11 08:36:00,58.9,53.8,29.79,SSE,157,0.0,6.0,83,0.00,,CLR,0.00,37.00,VWS V14.00,2013-10-11 13:36:00,
2013-10-11 08:38:00,59.0,54.2,29.79,SSE,158,0.0,6.0,84,0.00,,CLR,0.00,51.00,VWS V14.00,2013-10-11 13:38:00,
2013-10-11 08:39:00,59.1,54.3,29.79,ESE,107,1.0,2.0,84,0.00,,CLR,0.00,49.00,VWS V14.00,2013-10-11 13:39:00,
2013-10-11 08:40:00,59.0,54.2,29.79,SSE,157,0.0,6.0,84,0.00,,OVC043,0.00,56.00,VWS V14.00,2013-10-11 13:40:00,
2013-10-11 08:41:00,59.2,54.4,29.79,SE,126,5.0,6.0,84,0.00,,CLR,0.00,40.00,VWS V14.00,2013-10-11 13:41:00,
2013-10-11 08:42:00,59.3,54.2,29.79,ESE,116,5.0,6.0,83,0.00,,CLR,0.00,44.00,VWS V14.00,2013-10-11 13:42:00,
2013-10-11 08:43:00,59.3,54.2,29.79,South,169,0.0,6.0,83,0.00,,CLR,0.00,44.00,VWS V14.00,2013-10-11 13:43:00,
2013-10-11 08:44:00,59.3,54.2,29.79,SE,142,0.0,4.0,83,0.00,,CLR,0.00,47.00,VWS V14.00,2013-10-11 13:44:00,
2013-10-11 08:45:00,59.3,54.2,29.79,SE,125,4.0,6.0,83,0.00,,OVC043,0.00,47.00,VWS V14.00,2013-10-11 13:45:00,
2013-10-11 08:46:00,59.4,54.2,29.79,SSE,154,0.0,4.0,83,0.00,,CLR,0.00,42.00,VWS V14.00,2013-10-11 13:46:00,
2013-10-11 08:47:00,59.5,54.3,29.79,SE,144,2.0,5.0,83,0.00,,CLR,0.00,37.00,VWS V14.00,2013-10-11 13:47:00,
2013-10-11 08:48:00,59.5,54.3,29.79,SE,145,1.0,5.0,83,0.00,,CLR,0.00,37.00,VWS V14.00,2013-10-11 13:48:00,
2013-10-11 08:49:00,59.6,54.4,29.79,SE,146,0.0,1.0,83,0.00,,CLR,0.00,37.00,VWS V14.00,2013-10-11 13:49:00,
2013-10-11 08:50:00,59.5,54.3,29.79,SE,145,0.0,5.0,83,0.00,,OVC043,0.00,37.00,VWS V14.00,2013-10-11 13:50:00,
2013-10-11 08:51:00,59.6,54.4,29.79,SE,132,1.0,5.0,83,0.00,,CLR,0.00,44.00,VWS V14.00,2013-10-11 13:51:00,
2013-10-11 08:52:00,59.7,54.5,29.79,SSE,167,1.0,6.0,83,0.00,,CLR,0.00,44.00,VWS V14.00,2013-10-11 13:52:00,
2013-10-11 08:53:00,59.7,54.5,29.79,South,170,0.0,6.0,83,0.00,,CLR,0.00,39.00,VWS V14.00,2013-10-11 13:53:00,
2013-10-11 08:54:00,59.8,54.6,29.79,ESE,121,2.0,4.0,83,0.00,,CLR,0.00,39.00,VWS V14.00,2013-10-11 13:54:00,
2013-10-11 08:55:00,59.7,54.5,29.79,ESE,109,4.0,6.0,83,0.00,,OVC043,0.00,39.00,VWS V14.00,2013-10-11 13:55:00,
2013-10-11 08:56:00,59.8,54.6,29.79,South,180,3.0,6.0,83,0.00,,CLR,0.00,40.00,VWS V14.00,2013-10-11 13:56:00,
2013-10-11 08:57:00,59.9,54.7,29.79,SSE,165,1.0,7.0,83,0.00,,CLR,0.00,40.00,VWS V14.00,2013-10-11 13:57:00,
2013-10-11 08:58:00,60.0,54.8,29.79,SSE,153,5.0,7.0,83,0.00,,CLR,0.00,42.00,VWS V14.00,2013-10-11 13:58:00,
2013-10-11 08:59:00,60.0,54.8,29.79,SSE,148,1.0,2.0,83,0.00,,CLR,0.00,42.00,VWS V14.00,2013-10-11 13:59:00,
2013-10-11 09:00:00,60.0,54.8,29.79,SSE,153,2.0,7.0,83,0.00,,OVC043,0.00,42.00,VWS V14.00,2013-10-11 14:00:00,
2013-10-11 09:02:00,60.2,55.0,29.79,SSE,152,1.0,4.0,83,0.00,,CLR,0.00,44.00,VWS V14.00,2013-10-11 14:02:00,
2013-10-11 09:03:00,60.2,55.0,29.79,SSE,153,0.0,4.0,83,0.00,,CLR,0.00,67.00,VWS V14.00,2013-10-11 14:03:00,
2013-10-11 09:04:00,60.3,55.1,29.79,SSE,155,0.0,1.0,83,0.00,,CLR,0.00,86.00,VWS V14.00,2013-10-11 14:04:00,
2013-10-11 09:05:00,60.4,55.2,29.79,SSE,150,2.0,2.0,83,0.00,,CLR,0.00,111.00,VWS V14.00,2013-10-11 14:05:00,
2013-10-11 09:06:00,60.5,55.3,29.79,SE,145,0.0,2.0,83,0.00,,CLR,0.00,125.00,VWS V14.00,2013-10-11 14:06:00,
2013-10-11 09:08:00,60.7,55.5,29.79,ESE,121,0.0,1.0,83,0.00,,CLR,0.00,149.00,VWS V14.00,2013-10-11 14:08:00,
2013-10-11 09:09:00,60.8,55.6,29.79,SSE,158,0.0,1.0,83,0.00,,CLR,0.00,146.00,VWS V14.00,2013-10-11 14:09:00,
2013-10-11 09:10:00,60.6,55.4,29.79,ESE,111,0.0,2.0,83,0.00,,OVC043,0.00,149.00,VWS V14.00,2013-10-11 14:10:00,
2013-10-11 09:11:00,61.1,55.9,29.79,SE,134,4.0,4.0,83,0.00,,CLR,0.00,114.00,VWS V14.00,2013-10-11 14:11:00,
2013-10-11 09:13:00,61.2,55.7,29.79,South,172,0.0,1.0,82,0.00,,CLR,0.00,118.00,VWS V14.00,2013-10-11 14:13:00,
2013-10-11 09:14:00,61.2,55.7,29.79,South,173,1.0,1.0,82,0.00,,CLR,0.00,121.00,VWS V14.00,2013-10-11 14:14:00,
2013-10-11 09:15:00,61.1,55.6,29.79,South,173,0.0,6.0,82,0.00,,OVC043,0.00,118.00,VWS V14.00,2013-10-11 14:15:00,
2013-10-11 09:16:00,61.4,55.9,29.79,South,173,0.0,4.0,82,0.00,,CLR,0.00,114.00,VWS V14.00,2013-10-11 14:16:00,
2013-10-11 09:17:00,61.4,55.9,29.79,SE,136,4.0,4.0,82,0.00,,CLR,0.00,111.00,VWS V14.00,2013-10-11 14:17:00,
2013-10-11 09:18:00,61.6,56.1,29.79,South,178,0.0,1.0,82,0.00,,CLR,0.00,100.00,VWS V14.00,2013-10-11 14:18:00,
2013-10-11 09:19:00,61.6,56.1,29.79,South,178,0.0,1.0,82,0.00,,CLR,0.00,91.00,VWS V14.00,2013-10-11 14:19:00,
2013-10-11 09:20:00,61.5,56.0,29.79,South,178,0.0,5.0,82,0.00,,OVC043,0.00,100.00,VWS V14.00,2013-10-11 14:20:00,
2013-10-11 09:21:00,61.6,56.1,29.79,South,184,0.0,2.0,82,0.00,,CLR,0.00,79.00,VWS V14.00,2013-10-11 14:21:00,
2013-10-11 09:22:00,61.7,56.2,29.78,South,169,1.0,2.0,82,0.00,,CLR,0.00,70.00,VWS V14.00,2013-10-11 14:22:00,
2013-10-11 09:24:00,61.8,55.9,29.78,South,175,0.0,2.0,81,0.00,,CLR,0.00,58.00,VWS V14.00,2013-10-11 14:24:00,
2013-10-11 09:25:00,61.8,56.2,29.78,South,175,0.0,2.0,82,0.00,,CLR,0.00,58.00,VWS V14.00,2013-10-11 14:25:00,
2013-10-11 09:26:00,61.8,56.2,29.78,South,175,0.0,2.0,82,0.00,,CLR,0.00,53.00,VWS V14.00,2013-10-11 14:26:00,
2013-10-11 09:27:00,61.8,55.9,29.78,South,174,1.0,4.0,81,0.00,,CLR,0.00,90.00,VWS V14.00,2013-10-11 14:27:00,
2013-10-11 09:29:00,61.8,55.9,29.78,South,191,0.0,2.0,81,0.00,,CLR,0.00,72.00,VWS V14.00,2013-10-11 14:29:00,
2013-10-11 09:30:00,61.8,55.9,29.78,SSW,192,2.0,3.0,81,0.00,,CLR,0.00,60.00,VWS V14.00,2013-10-11 14:30:00,
2013-10-11 09:31:00,61.8,55.9,29.78,SE,125,0.0,6.0,81,0.00,,CLR,0.00,65.00,VWS V14.00,2013-10-11 14:31:00,
2013-10-11 09:32:00,61.9,56.0,29.78,SSE,161,0.0,6.0,81,0.00,,CLR,0.00,65.00,VWS V14.00,2013-10-11 14:32:00,
2013-10-11 09:33:00,61.9,56.0,29.78,SSE,159,0.0,6.0,81,0.00,,CLR,0.00,54.00,VWS V14.00,2013-10-11 14:33:00,
2013-10-11 09:34:00,62.0,56.1,29.78,SSE,168,0.0,1.0,81,0.00,,CLR,0.00,84.00,VWS V14.00,2013-10-11 14:34:00,
2013-10-11 09:35:00,62.0,56.1,29.77,SE,136,0.0,2.0,81,0.00,,CLR,0.00,63.00,VWS V14.00,2013-10-11 14:35:00,
2013-10-11 09:36:00,62.1,56.2,29.78,SW,217,0.0,2.0,81,0.00,,CLR,0.00,67.00,VWS V14.00,2013-10-11 14:36:00,
2013-10-11 09:37:00,62.2,56.3,29.78,SSE,155,1.0,4.0,81,0.00,,CLR,0.00,72.00,VWS V14.00,2013-10-11 14:37:00,
2013-10-11 09:38:00,62.2,56.3,29.78,SSE,155,4.0,5.0,81,0.00,,CLR,0.00,84.00,VWS V14.00,2013-10-11 14:38:00,
2013-10-11 09:39:00,62.3,56.4,29.77,SSW,196,0.0,4.0,81,0.00,,CLR,0.00,132.00,VWS V14.00,2013-10-11 14:39:00,
2013-10-11 09:40:00,62.4,56.5,29.77,SSE,151,1.0,6.0,81,0.00,,CLR,0.00,95.00,VWS V14.00,2013-10-11 14:40:00,
2013-10-11 09:42:00,62.6,56.7,29.77,South,171,2.0,6.0,81,0.00,,CLR,0.00,91.00,VWS V14.00,2013-10-11 14:42:00,
2013-10-11 09:43:00,62.7,56.8,29.77,SE,138,2.0,4.0,81,0.00,,CLR,0.00,167.00,VWS V14.00,2013-10-11 14:43:00,
2013-10-11 09:44:00,62.8,56.9,29.77,SSE,163,0.0,4.0,81,0.00,,CLR,0.00,190.00,VWS V14.00,2013-10-11 14:44:00,
2013-10-11 09:45:00,62.7,56.8,29.77,SE,143,1.0,6.0,81,0.00,,OVC043,0.00,167.00,VWS V14.00,2013-10-11 14:45:00,
2013-10-11 09:46:00,63.0,57.1,29.77,SSE,164,0.0,4.0,81,0.00,,CLR,0.00,257.00,VWS V14.00,2013-10-11 14:46:00,
2013-10-11 09:47:00,63.2,57.3,29.77,South,172,0.0,5.0,81,0.00,,CLR,0.00,181.00,VWS V14.00,2013-10-11 14:47:00,
2013-10-11 09:48:00,63.3,57.0,29.77,South,172,1.0,1.0,80,0.00,,CLR,0.00,241.00,VWS V14.00,2013-10-11 14:48:00,
2013-10-11 09:49:00,63.5,57.2,29.77,SSE,147,1.0,1.0,80,0.00,,CLR,0.00,272.00,VWS V14.00,2013-10-11 14:49:00,
2013-10-11 09:50:00,63.3,57.0,29.77,South,172,0.0,5.0,80,0.00,,OVC043,0.00,241.00,VWS V14.00,2013-10-11 14:50:00,
2013-10-11 09:51:00,63.7,57.4,29.77,SSE,165,0.0,3.0,80,0.00,,CLR,0.00,269.00,VWS V14.00,2013-10-11 14:51:00,
2013-10-11 09:52:00,63.9,57.3,29.77,South,173,5.0,5.0,79,0.00,,CLR,0.00,162.00,VWS V14.00,2013-10-11 14:52:00,
2013-10-11 09:53:00,63.9,57.3,29.77,South,171,2.0,5.0,79,0.00,,CLR,0.00,162.00,VWS V14.00,2013-10-11 14:53:00,
2013-10-11 09:54:00,64.0,57.4,29.76,South,190,1.0,5.0,79,0.00,,CLR,0.00,169.00,VWS V14.00,2013-10-11 14:54:00,
2013-10-11 09:55:00,63.9,57.3,29.77,SW,219,3.0,5.0,79,0.00,,OVC043,0.00,165.00,VWS V14.00,2013-10-11 14:55:00,
2013-10-11 09:56:00,64.0,57.4,29.76,South,185,0.0,6.0,79,0.00,,CLR,0.00,172.00,VWS V14.00,2013-10-11 14:56:00,
2013-10-11 09:57:00,64.0,57.4,29.76,SSE,162,1.0,6.0,79,0.00,,CLR,0.00,176.00,VWS V14.00,2013-10-11 14:57:00,
2013-10-11 09:58:00,64.1,57.5,29.76,South,177,4.0,6.0,79,0.00,,CLR,0.00,176.00,VWS V14.00,2013-10-11 14:58:00,
2013-10-11 10:00:00,64.1,57.5,29.76,South,188,0.0,6.0,79,0.00,,CLR,0.00,220.00,VWS V14.00,2013-10-11 15:00:00,
2013-10-11 10:01:00,64.2,57.6,29.76,South,190,2.0,6.0,79,0.00,,CLR,0.00,197.00,VWS V14.00,2013-10-11 15:01:00,
2013-10-11 10:02:00,64.3,57.7,29.76,South,183,2.0,6.0,79,0.00,,CLR,0.00,204.00,VWS V14.00,2013-10-11 15:02:00,
2013-10-11 10:03:00,64.3,57.7,29.76,South,171,1.0,6.0,79,0.00,,CLR,0.00,232.00,VWS V14.00,2013-10-11 15:03:00,
2013-10-11 10:05:00,64.5,57.8,29.76,SE,132,1.0,6.0,79,0.00,,CLR,0.00,185.00,VWS V14.00,2013-10-11 15:05:00,
2013-10-11 10:06:00,64.7,57.7,29.76,SSE,163,0.0,6.0,78,0.00,,CLR,0.00,156.00,VWS V14.00,2013-10-11 15:06:00,
2013-10-11 10:07:00,64.7,57.7,29.76,SSW,195,1.0,6.0,78,0.00,,CLR,0.00,156.00,VWS V14.00,2013-10-11 15:07:00,
2013-10-11 10:08:00,64.8,57.8,29.76,South,182,3.0,6.0,78,0.00,,CLR,0.00,167.00,VWS V14.00,2013-10-11 15:08:00,
2013-10-11 10:09:00,64.8,57.8,29.76,SE,135,2.0,6.0,78,0.00,,CLR,0.00,183.00,VWS V14.00,2013-10-11 15:09:00,
2013-10-11 10:10:00,64.9,57.9,29.76,South,188,4.0,8.0,78,0.00,,CLR,0.00,176.00,VWS V14.00,2013-10-11 15:10:00,
2013-10-11 10:12:00,64.9,57.9,29.75,SSE,155,0.0,8.0,78,0.00,,CLR,0.00,181.00,VWS V14.00,2013-10-11 15:12:00,
2013-10-11 10:14:00,65.0,58.0,29.74,South,173,0.0,5.0,78,0.00,,CLR,0.00,179.00,VWS V14.00,2013-10-11 15:14:00,
2013-10-11 10:15:00,65.0,58.0,29.75,South,184,1.0,6.0,78,0.00,,CLR,0.00,172.00,VWS V14.00,2013-10-11 15:15:00,
2013-10-11 10:17:00,65.0,58.0,29.75,SSE,147,1.0,6.0,78,0.00,,CLR,0.00,169.00,VWS V14.00,2013-10-11 15:17:00,
2013-10-11 10:19:00,65.0,57.6,29.75,South,181,2.0,6.0,77,0.00,,CLR,0.00,165.00,VWS V14.00,2013-10-11 15:19:00,
2013-10-11 10:20:00,65.1,57.7,29.74,SSE,163,4.0,6.0,77,0.00,,CLR,0.00,165.00,VWS V14.00,2013-10-11 15:20:00,
2013-10-11 10:21:00,65.1,57.7,29.74,SSE,159,0.0,6.0,77,0.00,,CLR,0.00,165.00,VWS V14.00,2013-10-11 15:21:00,
2013-10-11 10:22:00,65.1,58.1,29.75,WSW,254,3.0,6.0,78,0.00,,CLR,0.00,165.00,VWS V14.00,2013-10-11 15:22:00,
2013-10-11 10:23:00,65.1,58.1,29.75,SSW,200,2.0,2.0,78,0.00,,CLR,0.00,167.00,VWS V14.00,2013-10-11 15:23:00,
2013-10-11 10:24:00,65.1,57.7,29.75,South,169,6.0,6.0,77,0.00,,CLR,0.00,167.00,VWS V14.00,2013-10-11 15:24:00,
2013-10-11 10:25:00,65.1,58.1,29.75,WSW,238,0.0,6.0,78,0.00,,OVC043,0.00,167.00,VWS V14.00,2013-10-11 15:25:00,
2013-10-11 10:27:00,65.1,57.7,29.75,South,178,5.0,11.0,77,0.00,,CLR,0.00,171.00,VWS V14.00,2013-10-11 15:27:00,
2013-10-11 10:28:00,65.2,57.8,29.75,West,277,2.0,11.0,77,0.00,,CLR,0.00,174.00,VWS V14.00,2013-10-11 15:28:00,
2013-10-11 10:30:00,65.2,57.8,29.75,SSE,161,2.0,8.0,77,0.00,,CLR,0.00,178.00,VWS V14.00,2013-10-11 15:30:00,
2013-10-11 10:32:00,65.2,57.8,29.75,SSW,200,2.0,8.0,77,0.00,,CLR,0.00,178.00,VWS V14.00,2013-10-11 15:32:00,
2013-10-11 10:33:00,65.3,57.9,29.75,SSW,196,4.0,10.0,77,0.00,,CLR,0.00,179.00,VWS V14.00,2013-10-11 15:33:00,
2013-10-11 10:35:00,65.3,58.3,29.75,SSE,166,0.0,5.0,78,0.00,,CLR,0.00,185.00,VWS V14.00,2013-10-11 15:35:00,
2013-10-11 10:36:00,65.3,58.3,29.75,SSE,166,0.0,5.0,78,0.00,,CLR,0.00,190.00,VWS V14.00,2013-10-11 15:36:00,
2013-10-11 10:37:00,65.4,58.0,29.75,SSE,152,5.0,5.0,77,0.00,,CLR,0.00,192.00,VWS V14.00,2013-10-11 15:37:00,
2013-10-11 10:38:00,65.4,58.0,29.75,South,174,1.0,7.0,77,0.00,,CLR,0.00,202.00,VWS V14.00,2013-10-11 15:38:00,
2013-10-11 10:40:00,65.6,58.6,29.75,South,176,0.0,4.0,78,0.00,,CLR,0.00,216.00,VWS V14.00,2013-10-11 15:40:00,
2013-10-11 10:41:00,65.6,58.6,29.75,SSE,159,1.0,4.0,78,0.00,,CLR,0.00,223.00,VWS V14.00,2013-10-11 15:41:00,
2013-10-11 10:42:00,65.8,58.8,29.75,South,186,0.0,4.0,78,0.00,,CLR,0.00,218.00,VWS V14.00,2013-10-11 15:42:00,
2013-10-11 10:43:00,65.8,58.8,29.75,SSE,161,0.0,5.0,78,0.00,,CLR,0.00,230.00,VWS V14.00,2013-10-11 15:43:00,
2013-10-11 10:45:00,65.9,58.5,29.75,SSE,161,0.0,5.0,77,0.00,,OVC043,0.00,230.00,VWS V14.00,2013-10-11 15:45:00,
2013-10-11 10:46:00,66.1,59.0,29.75,SSW,196,3.0,4.0,78,0.00,,CLR,0.00,172.00,VWS V14.00,2013-10-11 15:46:00,
2013-10-11 10:47:00,66.3,58.9,29.75,SSW,195,2.0,5.0,77,0.00,,CLR,0.00,162.00,VWS V14.00,2013-10-11 15:47:00,
2013-10-11 10:48:00,66.3,58.9,29.75,SSE,157,2.0,8.0,77,0.00,,CLR,0.00,162.00,VWS V14.00,2013-10-11 15:48:00,
2013-10-11 10:49:00,66.3,58.5,29.75,South,180,2.0,8.0,76,0.00,,CLR,0.00,183.00,VWS V14.00,2013-10-11 15:49:00,
2013-10-11 10:50:00,66.3,58.9,29.75,SSE,159,1.0,8.0,77,0.00,,OVC043,0.00,162.00,VWS V14.00,2013-10-11 15:50:00,
2013-10-11 10:51:00,66.4,58.6,29.75,SSE,165,2.0,8.0,76,0.00,,CLR,0.00,167.00,VWS V14.00,2013-10-11 15:51:00,
2013-10-11 10:52:00,66.4,58.6,29.75,South,169,1.0,8.0,76,0.00,,CLR,0.00,167.00,VWS V14.00,2013-10-11 15:52:00,
2013-10-11 10:53:00,66.4,58.6,29.75,SSE,167,1.0,4.0,76,0.00,,CLR,0.00,169.00,VWS V14.00,2013-10-11 15:53:00,
2013-10-11 10:54:00,66.4,58.6,29.75,SSW,213,0.0,4.0,76,0.00,,CLR,0.00,178.00,VWS V14.00,2013-10-11 15:54:00,
2013-10-11 10:55:00,66.4,58.6,29.75,SSE,153,1.0,4.0,76,0.00,,CLR,0.00,185.00,VWS V14.00,2013-10-11 15:55:00,
2013-10-11 10:56:00,66.4,58.6,29.75,SSE,153,0.0,4.0,76,0.00,,CLR,0.00,185.00,VWS V14.00,2013-10-11 15:56:00,
2013-10-11 10:57:00,66.5,58.7,29.75,SE,142,1.0,6.0,76,0.00,,CLR,0.00,190.00,VWS V14.00,2013-10-11 15:57:00,
2013-10-11 10:58:00,66.5,59.1,29.74,South,175,0.0,0.0,77,0.00,,CLR,0.00,216.00,VWS V14.00,2013-10-11 15:58:00,
2013-10-11 10:59:00,66.5,59.1,29.74,South,187,1.0,4.0,77,0.00,,CLR,0.00,236.00,VWS V14.00,2013-10-11 15:59:00,
2013-10-11 11:00:00,66.6,59.2,29.74,ESE,115,2.0,5.0,77,0.00,,CLR,0.00,239.00,VWS V14.00,2013-10-11 16:00:00,
2013-10-11 11:01:00,66.6,58.8,29.74,South,188,1.0,5.0,76,0.00,,CLR,0.00,218.00,VWS V14.00,2013-10-11 16:01:00,
2013-10-11 11:02:00,66.7,58.9,29.74,SE,141,0.0,6.0,76,0.00,,CLR,0.00,211.00,VWS V14.00,2013-10-11 16:02:00,
2013-10-11 11:03:00,66.8,59.0,29.74,South,180,2.0,5.0,76,0.00,,CLR,0.00,232.00,VWS V14.00,2013-10-11 16:03:00,
2013-10-11 11:04:00,66.9,59.1,29.74,South,177,1.0,5.0,76,0.00,,CLR,0.00,223.00,VWS V14.00,2013-10-11 16:04:00,
2013-10-11 11:05:00,66.8,59.4,29.74,SW,229,4.0,6.0,77,0.00,,OVC043,0.00,232.00,VWS V14.00,2013-10-11 16:05:00,
2013-10-11 11:06:00,67.0,59.2,29.75,South,184,4.0,6.0,76,0.00,,CLR,0.00,230.00,VWS V14.00,2013-10-11 16:06:00,
2013-10-11 11:07:00,67.1,59.3,29.75,SSE,150,1.0,6.0,76,0.00,,CLR,0.00,237.00,VWS V14.00,2013-10-11 16:07:00,
2013-10-11 11:08:00,67.1,59.3,29.75,SSE,157,0.0,6.0,76,0.00,,CLR,0.00,251.00,VWS V14.00,2013-10-11 16:08:00,
2013-10-11 11:09:00,67.2,59.4,29.75,SE,132,5.0,5.0,76,0.00,,CLR,0.00,232.00,VWS V14.00,2013-10-11 16:09:00,
2013-10-11 11:10:00,67.3,59.5,29.75,SE,138,1.0,6.0,76,0.00,,CLR,0.00,232.00,VWS V14.00,2013-10-11 16:10:00,
2013-10-11 11:11:00,67.3,59.5,29.75,SE,144,2.0,6.0,76,0.00,,CLR,0.00,234.00,VWS V14.00,2013-10-11 16:11:00,
2013-10-11 11:13:00,67.4,59.6,29.75,East,98,0.0,6.0,76,0.00,,CLR,0.00,223.00,VWS V14.00,2013-10-11 16:13:00,
2013-10-11 11:15:00,67.4,59.2,29.75,South,188,2.0,4.0,75,0.00,,CLR,0.00,209.00,VWS V14.00,2013-10-11 16:15:00,
2013-10-11 11:16:00,67.5,59.3,29.75,South,171,0.0,5.0,75,0.00,,CLR,0.00,213.00,VWS V14.00,2013-10-11 16:16:00,
2013-10-11 11:18:00,67.4,59.2,29.75,SE,144,4.0,5.0,75,0.00,,CLR,0.00,209.00,VWS V14.00,2013-10-11 16:18:00,
2013-10-11 11:19:00,67.4,59.2,29.75,SE,142,0.0,4.0,75,0.00,,CLR,0.00,213.00,VWS V14.00,2013-10-11 16:19:00,
2013-10-11 11:20:00,67.4,59.2,29.75,West,272,5.0,6.0,75,0.00,,CLR,0.00,214.00,VWS V14.00,2013-10-11 16:20:00,
2013-10-11 11:21:00,67.5,59.3,29.75,South,177,0.0,6.0,75,0.00,,CLR,0.00,225.00,VWS V14.00,2013-10-11 16:21:00,
2013-10-11 11:22:00,67.5,59.3,29.75,South,180,0.0,6.0,75,0.00,,CLR,0.00,264.00,VWS V14.00,2013-10-11 16:22:00,
2013-10-11 11:23:00,67.5,59.7,29.75,SSW,194,2.0,6.0,76,0.00,,CLR,0.00,281.00,VWS V14.00,2013-10-11 16:23:00,
2013-10-11 11:24:00,67.6,59.4,29.75,SSE,159,1.0,4.0,75,0.00,,CLR,0.00,251.00,VWS V14.00,2013-10-11 16:24:00,
2013-10-11 11:25:00,67.7,59.9,29.75,South,189,0.0,4.0,76,0.00,,CLR,0.00,227.00,VWS V14.00,2013-10-11 16:25:00,
2013-10-11 11:27:00,67.8,59.6,29.74,SSE,163,0.0,4.0,75,0.00,,CLR,0.00,167.00,VWS V14.00,2013-10-11 16:27:00,
2013-10-11 11:28:00,67.9,59.7,29.74,South,171,0.0,4.0,75,0.00,,CLR,0.00,176.00,VWS V14.00,2013-10-11 16:28:00,
2013-10-11 11:29:00,67.9,59.7,29.74,South,171,0.0,4.0,75,0.00,,CLR,0.00,185.00,VWS V14.00,2013-10-11 16:29:00,
2013-10-11 11:30:00,68.0,59.8,29.74,SSW,201,2.0,5.0,75,0.00,,CLR,0.00,185.00,VWS V14.00,2013-10-11 16:30:00,
2013-10-11 11:31:00,68.0,59.8,29.74,South,174,4.0,7.0,75,0.00,,CLR,0.00,174.00,VWS V14.00,2013-10-11 16:31:00,
2013-10-11 11:32:00,68.0,59.8,29.74,South,175,0.0,7.0,75,0.00,,CLR,0.00,158.00,VWS V14.00,2013-10-11 16:32:00,
2013-10-11 11:33:00,68.0,59.8,29.73,South,175,0.0,1.0,75,0.00,,CLR,0.00,132.00,VWS V14.00,2013-10-11 16:33:00,
2013-10-11 11:35:00,68.0,59.8,29.73,SE,134,2.0,6.0,75,0.00,,CLR,0.00,123.00,VWS V14.00,2013-10-11 16:35:00,
2013-10-11 11:36:00,68.0,59.8,29.73,SSE,147,4.0,6.0,75,0.00,,CLR,0.00,121.00,VWS V14.00,2013-10-11 16:36:00,
2013-10-11 11:37:00,68.0,59.8,29.73,SE,127,8.0,8.0,75,0.00,,CLR,0.00,118.00,VWS V14.00,2013-10-11 16:37:00,
2013-10-11 11:38:00,68.0,59.4,29.73,SSE,166,2.0,9.0,74,0.00,,CLR,0.00,116.00,VWS V14.00,2013-10-11 16:38:00,
2013-10-11 11:39:00,68.0,59.8,29.73,South,183,3.0,4.0,75,0.00,,CLR,0.00,114.00,VWS V14.00,2013-10-11 16:39:00,
2013-10-11 11:40:00,68.0,59.8,29.73,South,172,7.0,7.0,75,0.00,,FEW050,0.00,104.00,VWS V14.00,2013-10-11 16:40:00,
2013-10-11 11:41:00,67.9,59.7,29.74,South,178,0.0,7.0,75,0.00,,FEW050,0.00,97.00,VWS V14.00,2013-10-11 16:41:00,
2013-10-11 11:42:00,67.9,59.7,29.74,SSW,198,1.0,7.0,75,0.00,,FEW050,0.00,90.00,VWS V14.00,2013-10-11 16:42:00,
2013-10-11 11:43:00,67.9,59.7,29.74,SSW,213,1.0,7.0,75,0.00,,FEW050,0.00,86.00,VWS V14.00,2013-10-11 16:43:00,
2013-10-11 11:44:00,67.9,59.7,29.74,South,179,0.0,2.0,75,0.00,,FEW050,0.00,88.00,VWS V14.00,2013-10-11 16:44:00,
2013-10-11 11:45:00,67.9,59.7,29.74,South,177,0.0,2.0,75,0.00,,FEW050,0.00,88.00,VWS V14.00,2013-10-11 16:45:00,
2013-10-11 11:46:00,67.9,59.7,29.74,South,178,0.0,2.0,75,0.00,,FEW050,0.00,90.00,VWS V14.00,2013-10-11 16:46:00,
2013-10-11 11:47:00,67.8,59.2,29.74,ESE,115,0.0,3.0,74,0.00,,FEW050,0.00,93.00,VWS V14.00,2013-10-11 16:47:00,
2013-10-11 11:48:00,67.9,59.7,29.74,South,170,0.0,1.0,75,0.00,,FEW050,0.00,76.00,VWS V14.00,2013-10-11 16:48:00,
2013-10-11 11:49:00,67.8,59.6,29.74,SSW,202,4.0,5.0,75,0.00,,FEW050,0.00,76.00,VWS V14.00,2013-10-11 16:49:00,
2013-10-11 11:50:00,67.8,59.6,29.74,SW,229,2.0,5.0,75,0.00,,FEW050,0.00,46.00,VWS V14.00,2013-10-11 16:50:00,
2013-10-11 11:52:00,67.8,59.6,29.75,South,182,0.0,5.0,75,0.00,,FEW050,0.00,42.00,VWS V14.00,2013-10-11 16:52:00,
2013-10-11 11:53:00,67.8,60.0,29.74,SSE,167,4.0,6.0,76,0.00,,FEW050,0.00,56.00,VWS V14.00,2013-10-11 16:53:00,
2013-10-11 11:54:00,67.7,59.9,29.74,SSW,198,1.0,6.0,76,0.00,,FEW050,0.00,76.00,VWS V14.00,2013-10-11 16:54:00,
2013-10-11 11:55:00,67.7,59.5,29.74,South,189,0.0,6.0,75,0.00,,FEW050,0.00,72.00,VWS V14.00,2013-10-11 16:55:00,
2013-10-11 11:57:00,67.7,59.9,29.74,South,183,2.0,6.0,76,0.00,,FEW050,0.00,88.00,VWS V14.00,2013-10-11 16:57:00,
2013-10-11 11:58:00,67.7,59.9,29.74,SSE,162,1.0,6.0,76,0.00,,FEW050,0.00,100.00,VWS V14.00,2013-10-11 16:58:00,
2013-10-11 11:59:00,67.6,59.8,29.74,South,185,0.0,5.0,76,0.00,,FEW050,0.00,121.00,VWS V14.00,2013-10-11 16:59:00,
2013-10-11 12:00:00,67.6,59.8,29.74,SSE,153,0.0,5.0,76,0.00,,SCT055,0.00,100.00,VWS V14.00,2013-10-11 17:00:00,
2013-10-11 12:02:00,67.7,59.9,29.74,South,171,1.0,5.0,76,0.00,,SCT055,0.00,83.00,VWS V14.00,2013-10-11 17:02:00,
2013-10-11 12:03:00,67.7,59.9,29.74,South,181,4.0,5.0,76,0.00,,SCT055,0.00,100.00,VWS V14.00,2013-10-11 17:03:00,
2013-10-11 12:04:00,67.7,59.9,29.74,South,178,2.0,4.0,76,0.00,,SCT055,0.00,109.00,VWS V14.00,2013-10-11 17:04:00,
2013-10-11 12:05:00,67.7,59.9,29.74,SSE,152,2.0,5.0,76,0.00,,SCT055,0.00,98.00,VWS V14.00,2013-10-11 17:05:00,
2013-10-11 12:07:00,67.7,59.9,29.74,South,180,1.0,5.0,76,0.00,,SCT055,0.00,88.00,VWS V14.00,2013-10-11 17:07:00,
2013-10-11 12:08:00,67.7,59.9,29.74,South,179,1.0,4.0,76,0.00,,SCT055,0.00,81.00,VWS V14.00,2013-10-11 17:08:00,
2013-10-11 12:09:00,67.8,60.0,29.74,South,179,0.0,4.0,76,0.00,,SCT055,0.00,79.00,VWS V14.00,2013-10-11 17:09:00,
2013-10-11 12:10:00,67.8,60.0,29.74,South,179,0.0,4.0,76,0.00,,SCT055,0.00,93.00,VWS V14.00,2013-10-11 17:10:00,
2013-10-11 12:11:00,67.8,60.0,29.74,South,179,2.0,4.0,76,0.00,,SCT055,0.00,105.00,VWS V14.00,2013-10-11 17:11:00,
2013-10-11 12:13:00,67.8,60.0,29.73,South,178,0.0,0.0,76,0.00,,SCT055,0.00,109.00,VWS V14.00,2013-10-11 17:13:00,
2013-10-11 12:14:00,67.9,60.4,29.74,South,178,0.0,1.0,77,0.00,,SCT055,0.00,93.00,VWS V14.00,2013-10-11 17:14:00,
2013-10-11 12:15:00,67.9,60.1,29.74,South,178,2.0,2.0,76,0.00,,SCT055,0.00,70.00,VWS V14.00,2013-10-11 17:15:00,
2013-10-11 12:16:00,67.9,60.4,29.74,South,178,0.0,2.0,77,0.00,,SCT055,0.00,60.00,VWS V14.00,2013-10-11 17:16:00,
2013-10-11 12:18:00,67.9,60.1,29.74,SSE,164,0.0,0.0,76,0.00,,SCT055,0.00,116.00,VWS V14.00,2013-10-11 17:18:00,
2013-10-11 12:19:00,67.9,60.1,29.73,SSE,164,0.0,0.0,76,0.00,,SCT055,0.00,107.00,VWS V14.00,2013-10-11 17:19:00,
2013-10-11 12:20:00,68.0,60.5,29.73,SSE,164,0.0,1.0,77,0.00,,SCT060,0.00,95.00,VWS V14.00,2013-10-11 17:20:00,
2013-10-11 12:21:00,68.0,60.5,29.73,SSE,164,0.0,1.0,77,0.00,,SCT060,0.00,95.00,VWS V14.00,2013-10-11 17:21:00,
2013-10-11 12:24:00,68.0,60.5,29.73,South,178,0.0,2.0,77,0.00,,SCT060,0.00,185.00,VWS V14.00,2013-10-11 17:24:00,
2013-10-11 12:25:00,68.0,60.2,29.73,SSE,164,0.0,1.0,76,0.00,,OVC043,0.00,171.00,VWS V14.00,2013-10-11 17:25:00,
2013-10-11 12:26:00,68.1,60.6,29.73,South,178,0.0,2.0,77,0.00,,SCT060,0.00,193.00,VWS V14.00,2013-10-11 17:26:00,
2013-10-11 12:30:00,68.2,60.7,29.74,South,170,0.0,2.0,77,0.00,,SCT060,0.00,121.00,VWS V14.00,2013-10-11 17:30:00,
2013-10-11 12:31:00,68.2,60.7,29.74,South,180,0.0,2.0,77,0.00,,SCT060,0.00,123.00,VWS V14.00,2013-10-11 17:31:00,
2013-10-11 12:35:00,68.4,60.9,29.73,SSE,166,1.0,7.0,77,0.00,,SCT060,0.00,301.00,VWS V14.00,2013-10-11 17:35:00,
2013-10-11 12:36:00,68.5,60.6,29.73,South,170,2.0,7.0,76,0.00,,SCT060,0.00,301.00,VWS V14.00,2013-10-11 17:36:00,
2013-10-11 12:40:00,68.8,60.9,29.73,South,171,0.0,2.0,76,0.00,,CLR,0.00,174.00,VWS V14.00,2013-10-11 17:40:00,
2013-10-11 12:41:00,68.9,61.0,29.73,South,171,0.0,4.0,76,0.00,,CLR,0.00,179.00,VWS V14.00,2013-10-11 17:41:00,
2013-10-11 12:42:00,68.9,61.0,29.73,South,171,0.0,4.0,76,0.00,,CLR,0.00,171.00,VWS V14.00,2013-10-11 17:42:00,
2013-10-11 12:45:00,69.2,61.3,29.73,SSW,192,2.0,5.0,76,0.00,,CLR,0.00,167.00,VWS V14.00,2013-10-11 17:45:00,
2013-10-11 12:46:00,69.3,61.4,29.73,SSE,162,4.0,5.0,76,0.00,,CLR,0.00,160.00,VWS V14.00,2013-10-11 17:46:00,
2013-10-11 12:47:00,69.3,61.4,29.73,WSW,256,4.0,5.0,76,0.00,,CLR,0.00,160.00,VWS V14.00,2013-10-11 17:47:00,
2013-10-11 12:48:00,69.3,60.7,29.73,SSW,202,2.0,9.0,74,0.00,,CLR,0.00,214.00,VWS V14.00,2013-10-11 17:48:00,
2013-10-11 12:50:00,69.6,61.3,29.73,South,188,3.0,7.0,75,0.00,,CLR,0.00,338.00,VWS V14.00,2013-10-11 17:50:00,
2013-10-11 12:51:00,69.6,61.3,29.73,South,177,4.0,7.0,75,0.00,,CLR,0.00,338.00,VWS V14.00,2013-10-11 17:51:00,
2013-10-11 12:52:00,69.7,61.0,29.73,South,190,3.0,7.0,74,0.00,,CLR,0.00,216.00,VWS V14.00,2013-10-11 17:52:00,
2013-10-11 12:53:00,70.0,61.3,29.73,SSW,193,4.0,6.0,74,0.00,,CLR,0.00,234.00,VWS V14.00,2013-10-11 17:53:00,
2013-10-11 12:55:00,69.9,61.2,29.73,SW,234,6.0,9.0,74,0.00,,OVC043,0.00,241.00,VWS V14.00,2013-10-11 17:55:00,
2013-10-11 12:56:00,70.1,61.0,29.73,SSW,197,5.0,9.0,73,0.00,,CLR,0.00,155.00,VWS V14.00,2013-10-11 17:56:00,
2013-10-11 12:57:00,70.1,61.0,29.73,SSW,195,3.0,9.0,73,0.00,,CLR,0.00,120.00,VWS V14.00,2013-10-11 17:57:00,
2013-10-11 12:59:00,70.1,61.0,29.73,SSW,213,5.0,5.0,73,0.00,,CLR,0.00,139.00,VWS V14.00,2013-10-11 17:59:00,
2013-10-11 13:00:00,70.1,61.0,29.73,South,178,2.0,9.0,73,0.00,,OVC043,0.00,134.00,VWS V14.00,2013-10-11 18:00:00,
2013-10-11 13:01:00,70.1,61.0,29.73,SW,217,4.0,10.0,73,0.00,,CLR,0.00,165.00,VWS V14.00,2013-10-11 18:01:00,
2013-10-11 13:02:00,70.1,60.7,29.73,SSE,158,7.0,10.0,72,0.00,,CLR,0.00,160.00,VWS V14.00,2013-10-11 18:02:00,
2013-10-11 13:03:00,70.0,60.6,29.72,SSW,199,0.0,10.0,72,0.00,,CLR,0.00,146.00,VWS V14.00,2013-10-11 18:03:00,
2013-10-11 13:05:00,70.0,61.0,29.72,South,183,0.0,7.0,73,0.00,,CLR,0.00,91.00,VWS V14.00,2013-10-11 18:05:00,
2013-10-11 13:06:00,70.0,61.0,29.72,South,180,2.0,7.0,73,0.00,,CLR,0.00,91.00,VWS V14.00,2013-10-11 18:06:00,
2013-10-11 13:07:00,70.0,61.0,29.72,South,180,2.0,7.0,73,0.00,,CLR,0.00,90.00,VWS V14.00,2013-10-11 18:07:00,
2013-10-11 13:08:00,70.0,61.0,29.72,SW,227,2.0,7.0,73,0.00,,CLR,0.00,107.00,VWS V14.00,2013-10-11 18:08:00,
2013-10-11 13:09:00,69.9,60.9,29.72,South,179,0.0,7.0,73,0.00,,CLR,0.00,116.00,VWS V14.00,2013-10-11 18:09:00,
2013-10-11 13:10:00,70.0,61.0,29.72,SSW,192,1.0,7.0,73,0.00,,OVC043,0.00,107.00,VWS V14.00,2013-10-11 18:10:00,
2013-10-11 13:11:00,69.9,60.9,29.72,SSW,196,3.0,7.0,73,0.00,,CLR,0.00,109.00,VWS V14.00,2013-10-11 18:11:00,
2013-10-11 13:12:00,69.9,60.9,29.72,South,179,5.0,9.0,73,0.00,,CLR,0.00,104.00,VWS V14.00,2013-10-11 18:12:00,
2013-10-11 13:13:00,69.9,60.9,29.72,SSW,205,3.0,9.0,73,0.00,,CLR,0.00,95.00,VWS V14.00,2013-10-11 18:13:00,
2013-10-11 13:14:00,69.9,60.9,29.72,South,178,4.0,5.0,73,0.00,,CLR,0.00,84.00,VWS V14.00,2013-10-11 18:14:00,
2013-10-11 13:15:00,69.9,60.9,29.72,SSW,205,3.0,9.0,73,0.00,,OVC043,0.00,95.00,VWS V14.00,2013-10-11 18:15:00,
2013-10-11 13:16:00,69.9,60.9,29.72,SSW,199,2.0,8.0,73,0.00,,CLR,0.00,120.00,VWS V14.00,2013-10-11 18:16:00,
2013-10-11 13:17:00,69.9,60.9,29.72,South,178,1.0,8.0,73,0.00,,CLR,0.00,134.00,VWS V14.00,2013-10-11 18:17:00,
2013-10-11 13:18:00,69.9,60.9,29.72,South,182,0.0,8.0,73,0.00,,CLR,0.00,134.00,VWS V14.00,2013-10-11 18:18:00,
2013-10-11 13:19:00,69.9,61.2,29.71,SSE,149,2.0,8.0,74,0.00,,CLR,0.00,192.00,VWS V14.00,2013-10-11 18:19:00,
2013-10-11 13:20:00,69.9,60.9,29.72,South,182,4.0,8.0,73,0.00,,OVC043,0.00,192.00,VWS V14.00,2013-10-11 18:20:00,
2013-10-11 13:21:00,70.0,61.0,29.71,South,171,6.0,8.0,73,0.00,,BKN120,0.00,283.00,VWS V14.00,2013-10-11 18:21:00,
2013-10-11 13:22:00,70.1,61.0,29.71,SW,214,1.0,8.0,73,0.00,,BKN120,0.00,306.00,VWS V14.00,2013-10-11 18:22:00,
2013-10-11 13:23:00,70.1,61.0,29.71,SSE,161,2.0,8.0,73,0.00,,BKN120,0.00,278.00,VWS V14.00,2013-10-11 18:23:00,
2013-10-11 13:24:00,70.2,61.2,29.71,South,180,3.0,5.0,73,0.00,,BKN120,0.00,255.00,VWS V14.00,2013-10-11 18:24:00,
2013-10-11 13:25:00,70.2,61.2,29.71,SW,214,3.0,8.0,73,0.00,,OVC043,0.00,278.00,VWS V14.00,2013-10-11 18:25:00,
2013-10-11 13:27:00,70.5,61.8,29.71,South,188,2.0,6.0,74,0.00,,BKN120,0.00,243.00,VWS V14.00,2013-10-11 18:27:00,
2013-10-11 13:28:00,70.7,61.6,29.71,SSW,194,2.0,7.0,73,0.00,,BKN120,0.00,253.00,VWS V14.00,2013-10-11 18:28:00,
2013-10-11 13:29:00,70.8,61.3,29.71,SSW,194,0.0,5.0,72,0.00,,BKN120,0.00,192.00,VWS V14.00,2013-10-11 18:29:00,
2013-10-11 13:30:00,70.9,61.4,29.71,South,185,4.0,5.0,72,0.00,,BKN120,0.00,192.00,VWS V14.00,2013-10-11 18:30:00,
2013-10-11 13:32:00,71.0,61.5,29.71,SW,224,2.0,6.0,72,0.00,,BKN120,0.00,153.00,VWS V14.00,2013-10-11 18:32:00,
2013-10-11 13:33:00,71.0,61.5,29.71,South,169,4.0,7.0,72,0.00,,BKN120,0.00,139.00,VWS V14.00,2013-10-11 18:33:00,
2013-10-11 13:34:00,71.0,61.5,29.71,SW,227,5.0,8.0,72,0.00,,BKN120,0.00,149.00,VWS V14.00,2013-10-11 18:34:00,
2013-10-11 13:35:00,71.0,61.5,29.71,SSW,196,2.0,8.0,72,0.00,,BKN120,0.00,149.00,VWS V14.00,2013-10-11 18:35:00,
2013-10-11 13:37:00,70.9,61.4,29.71,South,188,1.0,8.0,72,0.00,,BKN120,0.00,178.00,VWS V14.00,2013-10-11 18:37:00,
2013-10-11 13:38:00,70.9,61.4,29.71,South,184,3.0,4.0,72,0.00,,BKN120,0.00,116.00,VWS V14.00,2013-10-11 18:38:00,
2013-10-11 13:40:00,70.9,61.4,29.71,South,186,3.0,5.0,72,0.00,,OVC044,0.00,118.00,VWS V14.00,2013-10-11 18:40:00,
2013-10-11 13:42:00,70.8,61.3,29.70,SSW,209,8.0,10.0,72,0.00,,OVC044,0.00,132.00,VWS V14.00,2013-10-11 18:42:00,
2013-10-11 13:43:00,70.8,61.3,29.71,SW,221,4.0,6.0,72,0.00,,OVC044,0.00,114.00,VWS V14.00,2013-10-11 18:43:00,
2013-10-11 13:44:00,70.7,61.2,29.71,South,186,3.0,7.0,72,0.00,,OVC044,0.00,120.00,VWS V14.00,2013-10-11 18:44:00,
2013-10-11 13:45:00,70.7,61.2,29.70,South,170,4.0,9.0,72,0.00,,OVC044,0.00,125.00,VWS V14.00,2013-10-11 18:45:00,
2013-10-11 13:46:00,70.7,61.2,29.70,SSE,161,2.0,9.0,72,0.00,,OVC044,0.00,125.00,VWS V14.00,2013-10-11 18:46:00,
2013-10-11 13:47:00,70.7,61.6,29.71,South,175,9.0,9.0,73,0.00,,OVC044,0.00,107.00,VWS V14.00,2013-10-11 18:47:00,
2013-10-11 13:48:00,70.7,61.2,29.71,South,177,6.0,9.0,72,0.00,,OVC044,0.00,107.00,VWS V14.00,2013-10-11 18:48:00,
2013-10-11 13:50:00,70.6,61.1,29.70,South,178,2.0,8.0,72,0.00,,OVC044,0.00,116.00,VWS V14.00,2013-10-11 18:50:00,
2013-10-11 13:51:00,70.6,61.1,29.70,South,179,5.0,8.0,72,0.00,,OVC044,0.00,128.00,VWS V14.00,2013-10-11 18:51:00,
2013-10-11 13:52:00,70.6,61.1,29.70,South,185,2.0,8.0,72,0.00,,OVC044,0.00,134.00,VWS V14.00,2013-10-11 18:52:00,
2013-10-11 13:53:00,70.6,61.1,29.70,South,180,1.0,8.0,72,0.00,,OVC044,0.00,114.00,VWS V14.00,2013-10-11 18:53:00,
2013-10-11 13:54:00,70.6,61.1,29.70,SSW,194,2.0,6.0,72,0.00,,OVC044,0.00,114.00,VWS V14.00,2013-10-11 18:54:00,
2013-10-11 13:55:00,70.7,61.2,29.70,South,184,2.0,9.0,72,0.00,,OVC044,0.00,174.00,VWS V14.00,2013-10-11 18:55:00,
2013-10-11 13:56:00,70.6,61.1,29.70,SW,221,9.0,9.0,72,0.00,,OVC044,0.00,160.00,VWS V14.00,2013-10-11 18:56:00,
2013-10-11 13:58:00,70.7,61.2,29.70,South,183,4.0,10.0,72,0.00,,OVC044,0.00,121.00,VWS V14.00,2013-10-11 18:58:00,
2013-10-11 13:59:00,70.7,61.2,29.70,SSW,193,3.0,8.0,72,0.00,,OVC044,0.00,109.00,VWS V14.00,2013-10-11 18:59:00,
2013-10-11 14:00:00,70.7,61.6,29.70,South,173,8.0,12.0,73,0.00,,OVC043,0.00,121.00,VWS V14.00,2013-10-11 19:00:00,
2013-10-11 14:01:00,70.7,61.2,29.70,South,188,6.0,10.0,72,0.00,,OVC034,0.00,90.00,VWS V14.00,2013-10-11 19:01:00,
2013-10-11 14:02:00,70.7,61.2,29.70,South,175,7.0,10.0,72,0.00,,OVC034,0.00,88.00,VWS V14.00,2013-10-11 19:02:00,
2013-10-11 14:03:00,70.7,61.2,29.70,SSE,167,5.0,10.0,72,0.00,,OVC034,0.00,81.00,VWS V14.00,2013-10-11 19:03:00,
2013-10-11 14:04:00,70.7,61.2,29.70,SSE,167,2.0,6.0,72,0.00,,OVC034,0.00,95.00,VWS V14.00,2013-10-11 19:04:00,
2013-10-11 14:05:00,70.7,61.2,29.70,South,188,2.0,10.0,72,0.00,,OVC043,0.00,81.00,VWS V14.00,2013-10-11 19:05:00,
2013-10-11 14:07:00,70.6,61.5,29.70,South,188,3.0,9.0,73,0.00,,OVC034,0.00,91.00,VWS V14.00,2013-10-11 19:07:00,
2013-10-11 14:08:00,70.6,61.1,29.70,South,176,0.0,9.0,72,0.00,,OVC034,0.00,84.00,VWS V14.00,2013-10-11 19:08:00,
2013-10-11 14:09:00,70.6,61.5,29.70,SW,223,0.0,5.0,73,0.00,,OVC034,0.00,77.00,VWS V14.00,2013-10-11 19:09:00,
2013-10-11 14:10:00,70.6,61.5,29.70,South,184,2.0,9.0,73,0.00,,OVC043,0.00,84.00,VWS V14.00,2013-10-11 19:10:00,
2013-10-11 14:12:00,70.6,61.5,29.70,South,188,3.0,9.0,73,0.00,,OVC034,0.00,67.00,VWS V14.00,2013-10-11 19:12:00,
2013-10-11 14:13:00,70.6,61.5,29.70,South,189,4.0,9.0,73,0.00,,OVC034,0.00,67.00,VWS V14.00,2013-10-11 19:13:00,
2013-10-11 14:14:00,70.5,61.4,29.70,South,190,4.0,7.0,73,0.00,,OVC034,0.00,76.00,VWS V14.00,2013-10-11 19:14:00,
2013-10-11 14:15:00,70.6,61.5,29.70,South,185,4.0,9.0,73,0.00,,OVC043,0.00,67.00,VWS V14.00,2013-10-11 19:15:00,
2013-10-11 14:17:00,70.5,61.4,29.70,South,186,1.0,9.0,73,0.00,,OVC034,0.00,69.00,VWS V14.00,2013-10-11 19:17:00,
2013-10-11 14:18:00,70.5,61.4,29.70,South,178,1.0,9.0,73,0.00,,OVC034,0.00,60.00,VWS V14.00,2013-10-11 19:18:00,
2013-10-11 14:19:00,70.5,61.4,29.70,SSW,206,1.0,10.0,73,0.00,,OVC034,0.00,51.00,VWS V14.00,2013-10-11 19:19:00,
2013-10-11 14:20:00,70.5,61.4,29.70,South,178,1.0,9.0,73,0.00,,OVC043,0.00,60.00,VWS V14.00,2013-10-11 19:20:00,
2013-10-11 14:22:00,70.5,61.4,29.70,SSE,162,0.0,10.0,73,0.00,,OVC033,0.00,63.00,VWS V14.00,2013-10-11 19:22:00,
2013-10-11 14:23:00,70.4,61.3,29.70,South,182,2.0,4.0,73,0.00,,OVC033,0.00,69.00,VWS V14.00,2013-10-11 19:23:00,
2013-10-11 14:24:00,70.4,61.3,29.70,South,182,0.0,4.0,73,0.00,,OVC033,0.00,69.00,VWS V14.00,2013-10-11 19:24:00,
2013-10-11 14:25:00,70.5,61.4,29.70,South,182,4.0,10.0,73,0.00,,OVC043,0.00,69.00,VWS V14.00,2013-10-11 19:25:00,
2013-10-11 14:28:00,70.4,61.3,29.70,SSW,200,3.0,11.0,73,0.00,,OVC033,0.00,56.00,VWS V14.00,2013-10-11 19:28:00,
2013-10-11 14:29:00,70.4,61.3,29.70,SSW,196,1.0,6.0,73,0.00,,OVC033,0.00,51.00,VWS V14.00,2013-10-11 19:29:00,
2013-10-11 14:30:00,70.5,61.4,29.70,South,188,3.0,8.0,73,0.00,,OVC033,0.00,54.00,VWS V14.00,2013-10-11 19:30:00,
2013-10-11 14:34:00,70.4,61.3,29.69,South,179,1.0,2.0,73,0.00,,OVC033,0.00,62.00,VWS V14.00,2013-10-11 19:34:00,
2013-10-11 14:35:00,70.4,61.3,29.69,South,180,1.0,7.0,73,0.00,,OVC033,0.00,76.00,VWS V14.00,2013-10-11 19:35:00,
2013-10-11 14:39:00,70.4,61.3,29.68,SW,236,3.0,5.0,73,0.00,,OVC033,0.00,120.00,VWS V14.00,2013-10-11 19:39:00,
2013-10-11 14:40:00,70.4,61.3,29.68,South,175,0.0,5.0,73,0.00,,OVC032,0.00,120.00,VWS V14.00,2013-10-11 19:40:00,
2013-10-11 14:44:00,70.6,61.9,29.68,SSE,165,7.0,7.0,74,0.00,,OVC032,0.00,88.00,VWS V14.00,2013-10-11 19:44:00,
2013-10-11 14:45:00,70.6,61.5,29.68,SSE,154,4.0,7.0,73,0.00,,OVC032,0.00,88.00,VWS V14.00,2013-10-11 19:45:00,
2013-10-11 14:47:00,70.6,61.5,29.68,SSE,163,7.0,8.0,73,0.00,,OVC032,0.00,88.00,VWS V14.00,2013-10-11 19:47:00,
2013-10-11 14:49:00,70.7,61.6,29.68,South,184,2.0,9.0,73,0.00,,OVC032,0.00,88.00,VWS V14.00,2013-10-11 19:49:00,
2013-10-11 14:50:00,70.7,61.6,29.68,South,190,3.0,9.0,73,0.00,,OVC032,0.00,88.00,VWS V14.00,2013-10-11 19:50:00,
2013-10-11 14:52:00,70.7,61.6,29.68,SSW,209,5.0,9.0,73,0.00,,OVC032,0.00,95.00,VWS V14.00,2013-10-11 19:52:00,
2013-10-11 14:55:00,70.7,61.6,29.68,SSW,209,0.0,6.0,73,0.00,,OVC032,0.00,95.00,VWS V14.00,2013-10-11 19:55:00,
2013-10-11 14:56:00,70.7,61.6,29.68,SSW,198,4.0,6.0,73,0.00,,OVC032,0.00,86.00,VWS V14.00,2013-10-11 19:56:00,
2013-10-11 14:58:00,70.8,61.7,29.68,SSW,202,2.0,8.0,73,0.00,,OVC032,0.00,88.00,VWS V14.00,2013-10-11 19:58:00,
2013-10-11 15:00:00,70.8,61.7,29.68,South,186,2.0,8.0,73,0.00,,OVC032,0.00,84.00,VWS V14.00,2013-10-11 20:00:00,
2013-10-11 15:01:00,70.8,61.7,29.68,SSE,155,5.0,8.0,73,0.00,,OVC032,0.00,83.00,VWS V14.00,2013-10-11 20:01:00,
2013-10-11 15:03:00,70.8,61.7,29.68,SSW,205,3.0,4.0,73,0.00,,OVC032,0.00,86.00,VWS V14.00,2013-10-11 20:03:00,
2013-10-11 15:05:00,70.9,61.8,29.68,SSW,200,4.0,5.0,73,0.00,,OVC032,0.00,90.00,VWS V14.00,2013-10-11 20:05:00,
2013-10-11 15:06:00,70.9,61.8,29.68,South,187,4.0,8.0,73,0.00,,OVC032,0.00,72.00,VWS V14.00,2013-10-11 20:06:00,
2013-10-11 15:08:00,70.8,61.7,29.68,South,174,7.0,7.0,73,0.00,,OVC032,0.00,84.00,VWS V14.00,2013-10-11 20:08:00,
2013-10-11 15:10:00,70.9,61.8,29.68,South,174,5.0,7.0,73,0.00,,OVC032,0.00,51.00,VWS V14.00,2013-10-11 20:10:00,
2013-10-11 15:11:00,70.9,61.8,29.68,South,181,2.0,7.0,73,0.00,,OVC032,0.00,51.00,VWS V14.00,2013-10-11 20:11:00,
2013-10-11 15:12:00,70.9,61.8,29.68,South,185,1.0,9.0,73,0.00,,OVC032,0.00,62.00,VWS V14.00,2013-10-11 20:12:00,
2013-10-11 15:14:00,70.9,61.8,29.68,South,190,6.0,6.0,73,0.00,,OVC032,0.00,81.00,VWS V14.00,2013-10-11 20:14:00,
2013-10-11 15:15:00,70.9,61.8,29.68,SSW,202,3.0,6.0,73,0.00,,OVC032,0.00,95.00,VWS V14.00,2013-10-11 20:15:00,
2013-10-11 15:16:00,70.8,61.7,29.68,South,174,2.0,6.0,73,0.00,,OVC032,0.00,95.00,VWS V14.00,2013-10-11 20:16:00,
2013-10-11 15:17:00,70.9,61.8,29.68,SSW,194,2.0,6.0,73,0.00,,OVC032,0.00,58.00,VWS V14.00,2013-10-11 20:17:00,
2013-10-11 15:19:00,70.9,61.8,29.68,South,191,3.0,9.0,73,0.00,,OVC032,0.00,51.00,VWS V14.00,2013-10-11 20:19:00,
2013-10-11 15:20:00,70.9,61.8,29.68,SSW,202,3.0,9.0,73,0.00,,OVC032,0.00,72.00,VWS V14.00,2013-10-11 20:20:00,
2013-10-11 15:21:00,70.9,61.8,29.68,SSW,202,3.0,9.0,73,0.00,,OVC032,0.00,90.00,VWS V14.00,2013-10-11 20:21:00,
2013-10-11 15:22:00,70.9,61.8,29.68,SSW,198,4.0,9.0,73,0.00,,OVC032,0.00,90.00,VWS V14.00,2013-10-11 20:22:00,
2013-10-11 15:25:00,71.0,61.9,29.68,SSW,195,3.0,7.0,73,0.00,,OVC032,0.00,79.00,VWS V14.00,2013-10-11 20:25:00,
2013-10-11 15:26:00,71.0,61.9,29.68,SSW,192,3.0,7.0,73,0.00,,OVC032,0.00,79.00,VWS V14.00,2013-10-11 20:26:00,
2013-10-11 15:27:00,71.0,61.9,29.68,SSW,194,3.0,7.0,73,0.00,,OVC032,0.00,79.00,VWS V14.00,2013-10-11 20:27:00,
2013-10-11 15:30:00,71.0,61.9,29.68,South,182,3.0,6.0,73,0.00,,OVC032,0.00,65.00,VWS V14.00,2013-10-11 20:30:00,
2013-10-11 15:31:00,71.0,61.9,29.68,South,173,5.0,6.0,73,0.00,,OVC032,0.00,62.00,VWS V14.00,2013-10-11 20:31:00,
2013-10-11 15:32:00,71.0,61.9,29.68,South,180,3.0,6.0,73,0.00,,OVC032,0.00,62.00,VWS V14.00,2013-10-11 20:32:00,
2013-10-11 15:33:00,71.0,61.9,29.68,South,180,4.0,6.0,73,0.00,,OVC032,0.00,70.00,VWS V14.00,2013-10-11 20:33:00,
2013-10-11 15:35:00,71.0,61.9,29.68,South,180,3.0,7.0,73,0.00,,OVC043,0.00,58.00,VWS V14.00,2013-10-11 20:35:00,
2013-10-11 15:36:00,71.0,61.9,29.68,South,174,7.0,9.0,73,0.00,,OVC032,0.00,44.00,VWS V14.00,2013-10-11 20:36:00,
2013-10-11 15:37:00,71.0,61.9,29.68,South,180,7.0,9.0,73,0.00,,OVC032,0.00,42.00,VWS V14.00,2013-10-11 20:37:00,
2013-10-11 15:38:00,71.0,61.9,29.68,South,190,4.0,9.0,73,0.00,,OVC032,0.00,49.00,VWS V14.00,2013-10-11 20:38:00,
2013-10-11 15:40:00,71.0,61.9,29.68,SW,223,7.0,9.0,73,0.00,,OVC043,0.00,49.00,VWS V14.00,2013-10-11 20:40:00,
2013-10-11 15:41:00,71.0,61.9,29.68,SSW,196,5.0,9.0,73,0.00,,OVC032,0.00,49.00,VWS V14.00,2013-10-11 20:41:00,
2013-10-11 15:42:00,71.0,61.9,29.68,SSW,201,8.0,9.0,73,0.00,,OVC032,0.00,49.00,VWS V14.00,2013-10-11 20:42:00,
2013-10-11 15:43:00,71.0,61.9,29.68,SE,137,2.0,11.0,73,0.00,,OVC032,0.00,53.00,VWS V14.00,2013-10-11 20:43:00,
2013-10-11 15:45:00,71.0,61.9,29.68,SSW,192,3.0,11.0,73,0.00,,OVC043,0.00,53.00,VWS V14.00,2013-10-11 20:45:00,
2013-10-11 15:46:00,71.0,61.9,29.68,South,178,2.0,6.0,73,0.00,,OVC032,0.00,54.00,VWS V14.00,2013-10-11 20:46:00,
2013-10-11 15:47:00,71.0,61.9,29.69,South,185,4.0,9.0,73,0.00,,OVC032,0.00,44.00,VWS V14.00,2013-10-11 20:47:00,
2013-10-11 15:48:00,71.0,61.9,29.69,South,178,5.0,9.0,73,0.00,,OVC032,0.00,46.00,VWS V14.00,2013-10-11 20:48:00,
2013-10-11 15:50:00,71.0,61.9,29.69,SW,227,2.0,9.0,73,0.00,,OVC043,0.00,46.00,VWS V14.00,2013-10-11 20:50:00,
2013-10-11 15:51:00,71.0,61.9,29.69,South,179,8.0,8.0,73,0.00,,OVC032,0.00,42.00,VWS V14.00,2013-10-11 20:51:00,
2013-10-11 15:52:00,71.0,61.9,29.69,South,183,1.0,9.0,73,0.00,,OVC032,0.00,40.00,VWS V14.00,2013-10-11 20:52:00,
2013-10-11 15:53:00,71.0,61.9,29.69,SSE,164,6.0,9.0,73,0.00,,OVC032,0.00,40.00,VWS V14.00,2013-10-11 20:53:00,
2013-10-11 15:55:00,71.0,61.9,29.69,SSE,157,4.0,9.0,73,0.00,,OVC043,0.00,40.00,VWS V14.00,2013-10-11 20:55:00,
2013-10-11 15:56:00,71.1,62.0,29.69,SSW,200,2.0,6.0,73,0.00,,OVC032,0.00,62.00,VWS V14.00,2013-10-11 20:56:00,
2013-10-11 15:57:00,71.1,62.0,29.69,SSW,213,0.0,6.0,73,0.00,,OVC032,0.00,62.00,VWS V14.00,2013-10-11 20:57:00,
2013-10-11 15:58:00,71.1,62.0,29.69,South,190,4.0,6.0,73,0.00,,OVC032,0.00,54.00,VWS V14.00,2013-10-11 20:58:00,
2013-10-11 16:00:00,71.1,62.0,29.69,SSW,194,4.0,6.0,73,0.00,,OVC043,0.00,54.00,VWS V14.00,2013-10-11 21:00:00,
2013-10-11 16:01:00,71.1,62.0,29.69,SSW,202,2.0,7.0,73,0.00,,OVC032,0.00,39.00,VWS V14.00,2013-10-11 21:01:00,
2013-10-11 16:02:00,71.1,62.4,29.69,SSW,206,1.0,7.0,74,0.00,,OVC032,0.00,40.00,VWS V14.00,2013-10-11 21:02:00,
2013-10-11 16:03:00,71.1,62.4,29.69,South,181,1.0,7.0,74,0.00,,OVC032,0.00,40.00,VWS V14.00,2013-10-11 21:03:00,
2013-10-11 16:04:00,71.1,62.0,29.69,SSE,164,1.0,5.0,73,0.00,,OVC032,0.00,33.00,VWS V14.00,2013-10-11 21:04:00,
2013-10-11 16:05:00,71.1,62.4,29.69,SW,219,3.0,7.0,74,0.00,,OVC043,0.00,39.00,VWS V14.00,2013-10-11 21:05:00,
2013-10-11 16:06:00,71.0,61.9,29.69,SW,217,3.0,7.0,73,0.00,,OVC032,0.00,28.00,VWS V14.00,2013-10-11 21:06:00,
2013-10-11 16:08:00,71.0,61.9,29.69,SSW,203,2.0,10.0,73,0.00,,OVC032,0.00,32.00,VWS V14.00,2013-10-11 21:08:00,
2013-10-11 16:09:00,71.0,62.3,29.69,South,178,1.0,7.0,74,0.00,,OVC032,0.00,26.00,VWS V14.00,2013-10-11 21:09:00,
2013-10-11 16:10:00,71.0,62.3,29.69,South,181,3.0,10.0,74,0.00,,OVC043,0.00,32.00,VWS V14.00,2013-10-11 21:10:00,
2013-10-11 16:11:00,71.0,61.9,29.69,SSW,198,4.0,9.0,73,0.00,,OVC032,0.00,32.00,VWS V14.00,2013-10-11 21:11:00,
2013-10-11 16:13:00,71.1,62.0,29.69,South,181,3.0,9.0,73,0.00,,OVC032,0.00,26.00,VWS V14.00,2013-10-11 21:13:00,
2013-10-11 16:14:00,71.1,62.0,29.69,South,173,7.0,7.0,73,0.00,,OVC032,0.00,25.00,VWS V14.00,2013-10-11 21:14:00,
2013-10-11 16:15:00,71.1,62.0,29.69,SSW,204,4.0,9.0,73,0.00,,OVC043,0.00,26.00,VWS V14.00,2013-10-11 21:15:00,
2013-10-11 16:16:00,71.1,62.0,29.69,SW,214,3.0,7.0,73,0.00,,OVC032,0.00,18.00,VWS V14.00,2013-10-11 21:16:00,
2013-10-11 16:18:00,71.1,62.0,29.69,South,190,4.0,9.0,73,0.00,,OVC032,0.00,19.00,VWS V14.00,2013-10-11 21:18:00,
2013-10-11 16:19:00,71.1,62.4,29.69,SSW,194,4.0,6.0,74,0.00,,OVC032,0.00,18.00,VWS V14.00,2013-10-11 21:19:00,
2013-10-11 16:20:00,71.1,62.0,29.69,South,190,1.0,9.0,73,0.00,,OVC043,0.00,19.00,VWS V14.00,2013-10-11 21:20:00,
2013-10-11 16:21:00,71.1,62.4,29.69,SW,232,2.0,9.0,74,0.00,,OVC033,0.00,14.00,VWS V14.00,2013-10-11 21:21:00,
2013-10-11 16:23:00,71.1,62.4,29.70,SSW,201,2.0,9.0,74,0.00,,OVC033,0.00,14.00,VWS V14.00,2013-10-11 21:23:00,
2013-10-11 16:24:00,71.1,62.4,29.69,South,187,0.0,4.0,74,0.00,,OVC033,0.00,14.00,VWS V14.00,2013-10-11 21:24:00,
2013-10-11 16:25:00,71.1,62.4,29.70,SSE,167,5.0,5.0,74,0.00,,OVC033,0.00,16.00,VWS V14.00,2013-10-11 21:25:00,
2013-10-11 16:26:00,71.1,62.4,29.70,South,175,0.0,5.0,74,0.00,,OVC033,0.00,16.00,VWS V14.00,2013-10-11 21:26:00,
2013-10-11 16:28:00,71.0,62.3,29.70,SSW,193,1.0,1.0,74,0.00,,OVC033,0.00,18.00,VWS V14.00,2013-10-11 21:28:00,
2013-10-11 16:29:00,71.0,62.3,29.70,SSW,209,1.0,4.0,74,0.00,,OVC033,0.00,18.00,VWS V14.00,2013-10-11 21:29:00,
2013-10-11 16:30:00,71.0,62.3,29.70,SW,222,3.0,5.0,74,0.00,,OVC033,0.00,18.00,VWS V14.00,2013-10-11 21:30:00,
2013-10-11 16:31:00,71.0,62.3,29.70,South,171,2.0,5.0,74,0.00,,OVC033,0.00,14.00,VWS V14.00,2013-10-11 21:31:00,
2013-10-11 16:34:00,70.9,62.2,29.70,SSW,194,0.0,3.0,74,0.00,,OVC033,0.00,16.00,VWS V14.00,2013-10-11 21:34:00,
2013-10-11 16:35:00,71.0,62.3,29.70,SSW,201,3.0,3.0,74,0.00,,OVC033,0.00,14.00,VWS V14.00,2013-10-11 21:35:00,
2013-10-11 16:36:00,70.9,62.2,29.70,SW,222,4.0,5.0,74,0.00,,OVC033,0.00,14.00,VWS V14.00,2013-10-11 21:36:00,
2013-10-11 16:39:00,70.9,62.2,29.70,SW,223,4.0,7.0,74,0.00,,OVC033,0.00,14.00,VWS V14.00,2013-10-11 21:39:00,
2013-10-11 16:40:00,70.9,62.2,29.70,SW,222,0.0,7.0,74,0.00,,OVC033,0.00,12.00,VWS V14.00,2013-10-11 21:40:00,
2013-10-11 16:42:00,70.9,62.6,29.70,SW,223,0.0,7.0,75,0.00,,OVC033,0.00,12.00,VWS V14.00,2013-10-11 21:42:00,
2013-10-11 16:44:00,70.9,62.6,29.70,SW,215,1.0,5.0,75,0.00,,OVC033,0.00,9.00,VWS V14.00,2013-10-11 21:44:00,
2013-10-11 16:45:00,70.9,62.6,29.70,SW,215,0.0,5.0,75,0.00,,OVC033,0.00,12.00,VWS V14.00,2013-10-11 21:45:00,
2013-10-11 16:46:00,70.8,62.5,29.70,SW,214,0.0,5.0,75,0.00,,OVC033,0.00,14.00,VWS V14.00,2013-10-11 21:46:00,
2013-10-11 16:47:00,70.8,62.5,29.70,South,184,1.0,5.0,75,0.00,,OVC033,0.00,25.00,VWS V14.00,2013-10-11 21:47:00,
2013-10-11 16:50:00,70.8,62.5,29.70,SW,217,0.0,4.0,75,0.00,,OVC033,0.00,19.00,VWS V14.00,2013-10-11 21:50:00,
2013-10-11 16:51:00,70.8,62.5,29.70,SW,217,0.0,4.0,75,0.00,,OVC033,0.00,25.00,VWS V14.00,2013-10-11 21:51:00,
2013-10-11 16:52:00,70.8,62.5,29.70,SW,216,0.0,4.0,75,0.00,,OVC033,0.00,35.00,VWS V14.00,2013-10-11 21:52:00,
2013-10-11 16:55:00,70.8,62.5,29.70,South,189,2.0,8.0,75,0.00,,OVC033,0.00,60.00,VWS V14.00,2013-10-11 21:55:00,
2013-10-11 16:56:00,70.8,62.5,29.70,South,182,4.0,8.0,75,0.00,,OVC033,0.00,95.00,VWS V14.00,2013-10-11 21:56:00,
2013-10-11 16:57:00,70.8,62.5,29.70,South,170,2.0,8.0,75,0.00,,OVC033,0.00,107.00,VWS V14.00,2013-10-11 21:57:00,
2013-10-11 17:00:00,70.9,62.6,29.70,SSW,195,0.0,3.0,75,0.00,,OVC032,0.00,84.00,VWS V14.00,2013-10-11 22:00:00,
2013-10-11 17:01:00,70.9,62.6,29.70,SW,216,4.0,6.0,75,0.00,,OVC032,0.00,84.00,VWS V14.00,2013-10-11 22:01:00,
2013-10-11 17:02:00,71.0,62.7,29.70,South,171,4.0,6.0,75,0.00,,OVC032,0.00,84.00,VWS V14.00,2013-10-11 22:02:00,
2013-10-11 17:05:00,71.1,62.8,29.70,South,172,4.0,6.0,75,0.00,,OVC032,0.00,70.00,VWS V14.00,2013-10-11 22:05:00,
2013-10-11 17:06:00,71.1,62.8,29.70,SW,222,4.0,8.0,75,0.00,,OVC032,0.00,65.00,VWS V14.00,2013-10-11 22:06:00,
2013-10-11 17:07:00,71.1,62.8,29.70,South,178,2.0,8.0,75,0.00,,OVC032,0.00,69.00,VWS V14.00,2013-10-11 22:07:00,
2013-10-11 17:10:00,71.2,62.9,29.70,SW,220,1.0,7.0,75,0.00,,OVC032,0.00,51.00,VWS V14.00,2013-10-11 22:10:00,
2013-10-11 17:11:00,71.2,62.9,29.70,SSW,198,1.0,7.0,75,0.00,,OVC032,0.00,63.00,VWS V14.00,2013-10-11 22:11:00,
2013-10-11 17:12:00,71.2,62.9,29.70,South,180,5.0,7.0,75,0.00,,OVC032,0.00,62.00,VWS V14.00,2013-10-11 22:12:00,
2013-10-11 17:15:00,71.2,62.9,29.70,South,174,4.0,8.0,75,0.00,,OVC032,0.00,40.00,VWS V14.00,2013-10-11 22:15:00,
2013-10-11 17:16:00,71.2,62.9,29.70,SSW,213,2.0,8.0,75,0.00,,OVC032,0.00,39.00,VWS V14.00,2013-10-11 22:16:00,
2013-10-11 17:17:00,71.2,62.9,29.70,SSW,194,3.0,8.0,75,0.00,,OVC032,0.00,40.00,VWS V14.00,2013-10-11 22:17:00,
2013-10-11 17:20:00,71.3,63.0,29.70,WSW,248,4.0,8.0,75,0.00,,OVC043,0.00,35.00,VWS V14.00,2013-10-11 22:20:00,
2013-10-11 17:21:00,71.3,63.0,29.71,SSW,195,3.0,6.0,75,0.00,,OVC045,0.00,37.00,VWS V14.00,2013-10-11 22:21:00,
2013-10-11 17:22:00,71.2,62.9,29.71,SW,214,2.0,6.0,75,0.00,,OVC045,0.00,47.00,VWS V14.00,2013-10-11 22:22:00,
2013-10-11 17:23:00,71.3,63.0,29.71,South,175,2.0,6.0,75,0.00,,OVC045,0.00,54.00,VWS V14.00,2013-10-11 22:23:00,
2013-10-11 17:25:00,71.3,63.0,29.71,South,173,2.0,6.0,75,0.00,,OVC043,0.00,54.00,VWS V14.00,2013-10-11 22:25:00,
2013-10-11 17:26:00,71.3,63.0,29.71,SSW,197,3.0,10.0,75,0.00,,OVC045,0.00,172.00,VWS V14.00,2013-10-11 22:26:00,
2013-10-11 17:27:00,71.5,63.2,29.71,South,180,1.0,10.0,75,0.00,,OVC045,0.00,160.00,VWS V14.00,2013-10-11 22:27:00,
2013-10-11 17:28:00,71.5,63.2,29.71,South,187,6.0,10.0,75,0.00,,OVC045,0.00,160.00,VWS V14.00,2013-10-11 22:28:00,
2013-10-11 17:30:00,71.5,63.2,29.71,SW,229,7.0,10.0,75,0.00,,OVC043,0.00,160.00,VWS V14.00,2013-10-11 22:30:00,
2013-10-11 17:31:00,71.9,63.2,29.71,SSW,194,0.0,8.0,74,0.00,,OVC045,0.00,139.00,VWS V14.00,2013-10-11 22:31:00,
2013-10-11 17:32:00,71.9,63.2,29.71,SSW,207,2.0,8.0,74,0.00,,OVC045,0.00,125.00,VWS V14.00,2013-10-11 22:32:00,
2013-10-11 17:33:00,72.0,63.3,29.71,SSW,200,3.0,8.0,74,0.00,,OVC045,0.00,113.00,VWS V14.00,2013-10-11 22:33:00,
2013-10-11 17:35:00,72.0,63.3,29.71,SSW,200,3.0,8.0,74,0.00,,OVC043,0.00,113.00,VWS V14.00,2013-10-11 22:35:00,
2013-10-11 17:36:00,72.1,63.4,29.71,South,171,4.0,9.0,74,0.00,,OVC045,0.00,93.00,VWS V14.00,2013-10-11 22:36:00,
2013-10-11 17:37:00,72.1,63.4,29.70,SSE,163,2.0,9.0,74,0.00,,OVC045,0.00,79.00,VWS V14.00,2013-10-11 22:37:00,
2013-10-11 17:38:00,72.1,63.4,29.70,South,171,5.0,9.0,74,0.00,,OVC045,0.00,79.00,VWS V14.00,2013-10-11 22:38:00,
2013-10-11 17:40:00,72.1,63.4,29.70,South,184,2.0,9.0,74,0.00,,OVC043,0.00,63.00,VWS V14.00,2013-10-11 22:40:00,
2013-10-11 17:42:00,72.1,63.4,29.71,South,173,4.0,14.0,74,0.00,,BKN045,0.00,49.00,VWS V14.00,2013-10-11 22:42:00,
2013-10-11 17:43:00,72.0,63.3,29.71,South,169,1.0,14.0,74,0.00,,BKN045,0.00,47.00,VWS V14.00,2013-10-11 22:43:00,
2013-10-11 17:44:00,72.0,63.3,29.71,SW,223,2.0,7.0,74,0.00,,BKN045,0.00,44.00,VWS V14.00,2013-10-11 22:44:00,
2013-10-11 17:45:00,72.0,63.3,29.71,SW,215,6.0,14.0,74,0.00,,OVC043,0.00,46.00,VWS V14.00,2013-10-11 22:45:00,
2013-10-11 17:47:00,71.9,63.2,29.71,SW,231,4.0,9.0,74,0.00,,BKN045,0.00,39.00,VWS V14.00,2013-10-11 22:47:00,
2013-10-11 17:48:00,71.8,63.1,29.71,South,186,2.0,9.0,74,0.00,,BKN045,0.00,39.00,VWS V14.00,2013-10-11 22:48:00,
2013-10-11 17:49:00,71.8,63.5,29.71,South,184,0.0,4.0,75,0.00,,BKN045,0.00,35.00,VWS V14.00,2013-10-11 22:49:00,
2013-10-11 17:50:00,71.9,63.2,29.71,South,177,1.0,9.0,74,0.00,,OVC043,0.00,37.00,VWS V14.00,2013-10-11 22:50:00,
2013-10-11 17:52:00,71.7,63.4,29.71,South,183,2.0,8.0,75,0.00,,BKN045,0.00,30.00,VWS V14.00,2013-10-11 22:52:00,
2013-10-11 17:53:00,71.7,63.4,29.71,South,177,6.0,8.0,75,0.00,,BKN045,0.00,30.00,VWS V14.00,2013-10-11 22:53:00,
2013-10-11 17:54:00,71.6,63.3,29.71,SSW,208,3.0,10.0,75,0.00,,BKN045,0.00,30.00,VWS V14.00,2013-10-11 22:54:00,
2013-10-11 17:55:00,71.6,63.3,29.71,South,178,8.0,10.0,75,0.00,,BKN045,0.00,30.00,VWS V14.00,2013-10-11 22:55:00,
2013-10-11 17:57:00,71.5,63.2,29.71,South,169,5.0,10.0,75,0.00,,BKN045,0.00,28.00,VWS V14.00,2013-10-11 22:57:00,
2013-10-11 17:58:00,71.5,63.2,29.71,South,184,4.0,10.0,75,0.00,,BKN045,0.00,28.00,VWS V14.00,2013-10-11 22:58:00,
2013-10-11 18:00:00,71.4,63.1,29.71,South,175,8.0,8.0,75,0.00,,BKN050,0.00,28.00,VWS V14.00,2013-10-11 23:00:00,
2013-10-11 18:01:00,71.4,63.1,29.71,SSW,204,3.0,11.0,75,0.00,,BKN050,0.00,30.00,VWS V14.00,2013-10-11 23:01:00,
2013-10-11 18:03:00,71.3,63.0,29.71,South,182,1.0,11.0,75,0.00,,BKN050,0.00,32.00,VWS V14.00,2013-10-11 23:03:00,
2013-10-11 18:04:00,71.3,63.0,29.71,SW,223,4.0,4.0,75,0.00,,BKN050,0.00,33.00,VWS V14.00,2013-10-11 23:04:00,
2013-10-11 18:05:00,71.3,63.0,29.71,South,190,2.0,11.0,75,0.00,,OVC043,0.00,32.00,VWS V14.00,2013-10-11 23:05:00,
2013-10-11 18:06:00,71.3,63.0,29.71,South,184,3.0,6.0,75,0.00,,BKN050,0.00,37.00,VWS V14.00,2013-10-11 23:06:00,
2013-10-11 18:07:00,71.3,63.0,29.72,SW,236,0.0,6.0,75,0.00,,BKN050,0.00,35.00,VWS V14.00,2013-10-11 23:07:00,
2013-10-11 18:08:00,71.2,62.9,29.72,SW,215,0.0,6.0,75,0.00,,BKN050,0.00,35.00,VWS V14.00,2013-10-11 23:08:00,
2013-10-11 18:09:00,71.2,62.9,29.72,South,176,0.0,5.0,75,0.00,,BKN050,0.00,35.00,VWS V14.00,2013-10-11 23:09:00,
2013-10-11 18:10:00,71.2,62.9,29.72,SW,215,0.0,6.0,75,0.00,,OVC043,0.00,35.00,VWS V14.00,2013-10-11 23:10:00,
2013-10-11 18:12:00,71.2,63.3,29.71,SSW,193,1.0,5.0,76,0.00,,BKN050,0.00,33.00,VWS V14.00,2013-10-11 23:12:00,
2013-10-11 18:13:00,71.2,63.3,29.72,SSW,194,0.0,5.0,76,0.00,,BKN050,0.00,26.00,VWS V14.00,2013-10-11 23:13:00,
2013-10-11 18:14:00,71.2,63.3,29.72,South,186,0.0,2.0,76,0.00,,BKN050,0.00,26.00,VWS V14.00,2013-10-11 23:14:00,
2013-10-11 18:15:00,71.2,63.3,29.72,SSW,194,0.0,5.0,76,0.00,,OVC043,0.00,26.00,VWS V14.00,2013-10-11 23:15:00,
2013-10-11 18:17:00,71.1,63.2,29.72,South,180,2.0,9.0,76,0.00,,BKN050,0.00,21.00,VWS V14.00,2013-10-11 23:17:00,
2013-10-11 18:18:00,71.1,63.2,29.71,SSW,211,3.0,9.0,76,0.00,,BKN050,0.00,18.00,VWS V14.00,2013-10-11 23:18:00,
2013-10-11 18:19:00,71.1,63.2,29.71,SSE,166,4.0,7.0,76,0.00,,BKN050,0.00,16.00,VWS V14.00,2013-10-11 23:19:00,
2013-10-11 18:20:00,71.1,63.2,29.71,SSW,211,3.0,9.0,76,0.00,,OVC043,0.00,18.00,VWS V14.00,2013-10-11 23:20:00,
2013-10-11 18:22:00,71.1,63.2,29.71,SSW,201,3.0,8.0,76,0.00,,BKN075,0.00,12.00,VWS V14.00,2013-10-11 23:22:00,
2013-10-11 18:23:00,71.0,63.1,29.71,SW,227,3.0,8.0,76,0.00,,BKN075,0.00,12.00,VWS V14.00,2013-10-11 23:23:00,
2013-10-11 18:24:00,71.0,63.1,29.72,South,188,4.0,5.0,76,0.00,,BKN075,0.00,12.00,VWS V14.00,2013-10-11 23:24:00,
2013-10-11 18:25:00,71.0,63.1,29.71,South,189,3.0,8.0,76,0.00,,OVC043,0.00,12.00,VWS V14.00,2013-10-11 23:25:00,
2013-10-11 18:27:00,70.9,63.0,29.72,South,186,4.0,7.0,76,0.00,,BKN075,0.00,9.00,VWS V14.00,2013-10-11 23:27:00,
2013-10-11 18:28:00,70.9,63.0,29.72,South,184,2.0,7.0,76,0.00,,BKN075,0.00,9.00,VWS V14.00,2013-10-11 23:28:00,
2013-10-11 18:29:00,70.9,63.0,29.71,South,171,5.0,8.0,76,0.00,,BKN075,0.00,7.00,VWS V14.00,2013-10-11 23:29:00,
2013-10-11 18:30:00,70.9,63.0,29.71,South,179,5.0,8.0,76,0.00,,BKN075,0.00,7.00,VWS V14.00,2013-10-11 23:30:00,
2013-10-11 18:33:00,70.8,62.9,29.71,South,185,2.0,2.0,76,0.00,,BKN075,0.00,5.00,VWS V14.00,2013-10-11 23:33:00,
2013-10-11 18:34:00,70.8,62.9,29.71,South,169,5.0,6.0,76,0.00,,BKN075,0.00,5.00,VWS V14.00,2013-10-11 23:34:00,
2013-10-11 18:35:00,70.7,62.8,29.71,South,169,1.0,7.0,76,0.00,,BKN075,0.00,5.00,VWS V14.00,2013-10-11 23:35:00,
2013-10-11 18:38:00,70.6,62.7,29.72,South,182,4.0,5.0,76,0.00,,BKN075,0.00,0.00,VWS V14.00,2013-10-11 23:38:00,
2013-10-11 18:39:00,70.6,62.7,29.72,South,175,1.0,5.0,76,0.00,,BKN075,0.00,0.00,VWS V14.00,2013-10-11 23:39:00,
2013-10-11 18:40:00,70.5,62.6,29.72,SSE,162,1.0,5.0,76,0.00,,BKN075,0.00,0.00,VWS V14.00,2013-10-11 23:40:00,
2013-10-11 18:43:00,70.4,62.8,29.72,SSE,153,7.0,7.0,77,0.00,,BKN075,0.00,0.00,VWS V14.00,2013-10-11 23:43:00,
2013-10-11 18:44:00,70.3,62.8,29.72,South,173,2.0,7.0,77,0.00,,BKN075,0.00,0.00,VWS V14.00,2013-10-11 23:44:00,
2013-10-11 18:45:00,70.3,62.8,29.72,South,172,2.0,7.0,77,0.00,,BKN075,0.00,0.00,VWS V14.00,2013-10-11 23:45:00,
2013-10-11 18:48:00,70.1,62.6,29.72,SSW,207,1.0,9.0,77,0.00,,BKN075,0.00,0.00,VWS V14.00,2013-10-11 23:48:00,
2013-10-11 18:49:00,70.1,62.6,29.72,South,182,2.0,9.0,77,0.00,,BKN075,0.00,0.00,VWS V14.00,2013-10-11 23:49:00,
2013-10-11 18:50:00,70.1,62.6,29.72,SSE,162,0.0,9.0,77,0.00,,BKN075,0.00,0.00,VWS V14.00,2013-10-11 23:50:00,
2013-10-11 18:54:00,70.0,62.5,29.72,South,171,4.0,4.0,77,0.00,,BKN075,0.00,0.00,VWS V14.00,2013-10-11 23:54:00,
2013-10-11 18:55:00,70.0,62.5,29.72,South,173,4.0,6.0,77,0.00,,BKN075,0.00,0.00,VWS V14.00,2013-10-11 23:55:00,
2013-10-11 18:56:00,69.9,62.7,29.72,South,181,2.0,6.0,78,0.00,,BKN075,0.00,0.00,VWS V14.00,2013-10-11 23:56:00,
2013-10-11 18:59:00,69.8,62.6,29.72,South,170,2.0,2.0,78,0.00,,BKN075,0.00,0.00,VWS V14.00,2013-10-11 23:59:00,
2013-10-11 19:00:00,69.7,62.5,29.72,South,172,2.0,4.0,78,0.00,,SCT070,0.00,0.00,VWS V14.00,2013-10-12 00:00:00,
2013-10-11 19:01:00,69.7,62.5,29.72,South,169,2.0,5.0,78,0.00,,SCT070,0.00,0.00,VWS V14.00,2013-10-12 00:01:00,
2013-10-11 19:04:00,69.6,62.4,29.72,South,169,2.0,5.0,78,0.00,,SCT070,0.00,0.00,VWS V14.00,2013-10-12 00:04:00,
2013-10-11 19:05:00,69.6,62.4,29.72,South,169,0.0,5.0,78,0.00,,SCT070,0.00,0.00,VWS V14.00,2013-10-12 00:05:00,
2013-10-11 19:06:00,69.6,62.4,29.72,South,171,2.0,5.0,78,0.00,,SCT070,0.00,0.00,VWS V14.00,2013-10-12 00:06:00,
2013-10-11 19:10:00,69.4,62.6,29.72,South,175,0.0,5.0,79,0.00,,SCT070,0.00,0.00,VWS V14.00,2013-10-12 00:10:00,
2013-10-11 19:11:00,69.4,62.6,29.72,South,175,0.0,5.0,79,0.00,,SCT070,0.00,0.00,VWS V14.00,2013-10-12 00:11:00,
2013-10-11 19:15:00,69.3,62.5,29.72,South,172,1.0,6.0,79,0.00,,SCT070,0.00,0.00,VWS V14.00,2013-10-12 00:15:00,
2013-10-11 19:16:00,69.3,62.5,29.72,South,175,5.0,6.0,79,0.00,,SCT070,0.00,0.00,VWS V14.00,2013-10-12 00:16:00,
2013-10-11 19:17:00,69.3,62.5,29.72,South,172,6.0,6.0,79,0.00,,SCT070,0.00,0.00,VWS V14.00,2013-10-12 00:17:00,
2013-10-11 19:20:00,69.2,62.4,29.72,South,171,2.0,5.0,79,0.00,,FEW035,0.00,0.00,VWS V14.00,2013-10-12 00:20:00,
2013-10-11 19:21:00,69.2,62.4,29.72,South,171,1.0,5.0,79,0.00,,FEW035,0.00,0.00,VWS V14.00,2013-10-12 00:21:00,
2013-10-11 19:22:00,69.2,62.4,29.72,South,172,1.0,5.0,79,0.00,,FEW035,0.00,0.00,VWS V14.00,2013-10-12 00:22:00,
2013-10-11 19:25:00,69.1,62.3,29.72,South,173,2.0,2.0,79,0.00,,FEW035,0.00,0.00,VWS V14.00,2013-10-12 00:25:00,
2013-10-11 19:26:00,69.1,62.3,29.72,South,173,2.0,4.0,79,0.00,,FEW035,0.00,0.00,VWS V14.00,2013-10-12 00:26:00,
2013-10-11 19:27:00,69.0,62.2,29.72,South,173,0.0,4.0,79,0.00,,FEW035,0.00,0.00,VWS V14.00,2013-10-12 00:27:00,
2013-10-11 19:30:00,69.0,62.6,29.73,South,173,0.0,4.0,80,0.00,,FEW035,0.00,0.00,VWS V14.00,2013-10-12 00:30:00,
2013-10-11 19:31:00,69.0,62.6,29.73,South,171,1.0,5.0,80,0.00,,FEW035,0.00,0.00,VWS V14.00,2013-10-12 00:31:00,
2013-10-11 19:32:00,69.0,62.6,29.73,South,171,0.0,5.0,80,0.00,,FEW035,0.00,0.00,VWS V14.00,2013-10-12 00:32:00,
2013-10-11 19:35:00,68.9,62.5,29.73,South,171,1.0,2.0,80,0.00,,FEW035,0.00,0.00,VWS V14.00,2013-10-12 00:35:00,
2013-10-11 19:36:00,68.8,62.4,29.73,South,171,0.0,2.0,80,0.00,,FEW035,0.00,0.00,VWS V14.00,2013-10-12 00:36:00,
2013-10-11 19:38:00,68.8,62.4,29.73,South,171,0.0,2.0,80,0.00,,FEW035,0.00,0.00,VWS V14.00,2013-10-12 00:38:00,
2013-10-11 19:40:00,68.7,62.3,29.73,South,169,0.0,4.0,80,0.00,,CLR,0.00,0.00,VWS V14.00,2013-10-12 00:40:00,
2013-10-11 19:41:00,68.7,62.3,29.73,SSE,157,1.0,4.0,80,0.00,,CLR,0.00,0.00,VWS V14.00,2013-10-12 00:41:00,
2013-10-11 19:42:00,68.7,62.3,29.73,South,173,4.0,4.0,80,0.00,,CLR,0.00,0.00,VWS V14.00,2013-10-12 00:42:00,
2013-10-11 19:43:00,68.7,62.3,29.73,South,172,0.0,4.0,80,0.00,,CLR,0.00,0.00,VWS V14.00,2013-10-12 00:43:00,
2013-10-11 19:45:00,68.7,62.3,29.73,South,171,0.0,4.0,80,0.00,,OVC043,0.00,0.00,VWS V14.00,2013-10-12 00:45:00,
2013-10-11 19:46:00,68.6,62.2,29.73,South,171,0.0,2.0,80,0.00,,CLR,0.00,0.00,VWS V14.00,2013-10-12 00:46:00,
2013-10-11 19:47:00,68.6,62.2,29.73,South,169,0.0,5.0,80,0.00,,CLR,0.00,0.00,VWS V14.00,2013-10-12 00:47:00,
2013-10-11 19:48:00,68.6,62.2,29.73,South,169,0.0,5.0,80,0.00,,CLR,0.00,0.00,VWS V14.00,2013-10-12 00:48:00,
2013-10-11 19:50:00,68.6,62.2,29.73,South,169,0.0,5.0,80,0.00,,OVC043,0.00,0.00,VWS V14.00,2013-10-12 00:50:00,
2013-10-11 19:51:00,68.5,62.1,29.73,South,169,0.0,2.0,80,0.00,,CLR,0.00,0.00,VWS V14.00,2013-10-12 00:51:00,
2013-10-11 19:52:00,68.4,62.0,29.74,South,169,0.0,2.0,80,0.00,,CLR,0.00,0.00,VWS V14.00,2013-10-12 00:52:00,
2013-10-11 19:53:00,68.3,61.9,29.74,South,169,0.0,0.0,80,0.00,,CLR,0.00,0.00,VWS V14.00,2013-10-12 00:53:00,
2013-10-11 19:54:00,68.3,61.9,29.74,South,169,0.0,1.0,80,0.00,,CLR,0.00,0.00,VWS V14.00,2013-10-12 00:54:00,
2013-10-11 19:55:00,68.4,62.0,29.74,South,169,0.0,2.0,80,0.00,,OVC043,0.00,0.00,VWS V14.00,2013-10-12 00:55:00,
2013-10-11 19:56:00,68.2,62.2,29.74,South,169,0.0,1.0,81,0.00,,CLR,0.00,0.00,VWS V14.00,2013-10-12 00:56:00,
2013-10-11 19:57:00,68.2,62.2,29.74,South,169,0.0,1.0,81,0.00,,CLR,0.00,0.00,VWS V14.00,2013-10-12 00:57:00,
2013-10-11 19:58:00,68.1,62.1,29.74,South,169,2.0,2.0,81,0.00,,CLR,0.00,0.00,VWS V14.00,2013-10-12 00:58:00,
2013-10-11 19:59:00,68.1,62.1,29.74,South,169,1.0,2.0,81,0.00,,CLR,0.00,0.00,VWS V14.00,2013-10-12 00:59:00,
2013-10-11 20:00:00,68.1,62.1,29.74,South,169,0.0,4.0,81,0.00,,OVC043,0.00,0.00,VWS V14.00,2013-10-12 01:00:00,
2013-10-11 20:01:00,68.0,62.0,29.74,South,169,0.0,2.0,81,0.00,,CLR,0.00,0.00,VWS V14.00,2013-10-12 01:01:00,
2013-10-11 20:03:00,68.0,62.0,29.74,South,169,0.0,2.0,81,0.00,,CLR,0.00,0.00,VWS V14.00,2013-10-12 01:03:00,
2013-10-11 20:04:00,67.9,61.9,29.74,South,169,0.0,1.0,81,0.00,,CLR,0.00,0.00,VWS V14.00,2013-10-12 01:04:00,
2013-10-11 20:05:00,67.9,61.9,29.74,South,169,0.0,1.0,81,0.00,,CLR,0.00,0.00,VWS V14.00,2013-10-12 01:05:00,
2013-10-11 20:06:00,67.8,61.8,29.74,South,169,0.0,4.0,81,0.00,,CLR,0.00,0.00,VWS V14.00,2013-10-12 01:06:00,
2013-10-11 20:07:00,67.8,61.8,29.74,South,169,0.0,4.0,81,0.00,,CLR,0.00,0.00,VWS V14.00,2013-10-12 01:07:00,
2013-10-11 20:08:00,67.8,61.8,29.74,South,169,0.0,4.0,81,0.00,,CLR,0.00,0.00,VWS V14.00,2013-10-12 01:08:00,
2013-10-11 20:09:00,67.7,61.7,29.74,South,169,0.0,1.0,81,0.00,,CLR,0.00,0.00,VWS V14.00,2013-10-12 01:09:00,
2013-10-11 20:10:00,67.7,61.7,29.74,South,169,0.0,1.0,81,0.00,,CLR,0.00,0.00,VWS V14.00,2013-10-12 01:10:00,
2013-10-11 20:12:00,67.6,61.6,29.74,South,169,0.0,1.0,81,0.00,,CLR,0.00,0.00,VWS V14.00,2013-10-12 01:12:00,
2013-10-11 20:13:00,67.5,61.5,29.74,South,169,0.0,1.0,81,0.00,,CLR,0.00,0.00,VWS V14.00,2013-10-12 01:13:00,
2013-10-11 20:14:00,67.5,61.5,29.74,South,169,0.0,0.0,81,0.00,,CLR,0.00,0.00,VWS V14.00,2013-10-12 01:14:00,
2013-10-11 20:15:00,67.5,61.5,29.74,South,169,0.0,1.0,81,0.00,,OVC043,0.00,0.00,VWS V14.00,2013-10-12 01:15:00,
2013-10-11 20:16:00,67.4,61.7,29.74,South,169,0.0,0.0,82,0.00,,CLR,0.00,0.00,VWS V14.00,2013-10-12 01:16:00,
2013-10-11 20:17:00,67.4,61.7,29.74,South,169,0.0,1.0,82,0.00,,CLR,0.00,0.00,VWS V14.00,2013-10-12 01:17:00,
2013-10-11 20:18:00,67.3,61.6,29.74,South,169,0.0,1.0,82,0.00,,CLR,0.00,0.00,VWS V14.00,2013-10-12 01:18:00,
2013-10-11 20:19:00,67.2,61.5,29.74,South,169,0.0,2.0,82,0.00,,CLR,0.00,0.00,VWS V14.00,2013-10-12 01:19:00,
2013-10-11 20:20:00,67.2,61.5,29.74,South,169,0.0,4.0,82,0.00,,CLR,0.00,0.00,VWS V14.00,2013-10-12 01:20:00,
2013-10-11 20:21:00,67.1,61.4,29.74,South,169,0.0,4.0,82,0.00,,CLR,0.00,0.00,VWS V14.00,2013-10-12 01:21:00,
2013-10-11 20:22:00,67.1,61.4,29.74,South,169,0.0,4.0,82,0.00,,CLR,0.00,0.00,VWS V14.00,2013-10-12 01:22:00,
2013-10-11 20:23:00,67.1,61.4,29.74,South,169,0.0,4.0,82,0.00,,CLR,0.00,0.00,VWS V14.00,2013-10-12 01:23:00,
2013-10-11 20:24:00,67.1,61.4,29.74,South,169,0.0,1.0,82,0.00,,CLR,0.00,0.00,VWS V14.00,2013-10-12 01:24:00,
2013-10-11 20:25:00,67.0,61.3,29.74,South,169,0.0,1.0,82,0.00,,CLR,0.00,0.00,VWS V14.00,2013-10-12 01:25:00,
2013-10-11 20:27:00,67.0,61.3,29.74,South,169,0.0,2.0,82,0.00,,CLR,0.00,0.00,VWS V14.00,2013-10-12 01:27:00,
2013-10-11 20:28:00,66.9,61.2,29.74,South,169,0.0,0.0,82,0.00,,CLR,0.00,0.00,VWS V14.00,2013-10-12 01:28:00,
2013-10-11 20:29:00,66.9,61.2,29.74,South,169,0.0,0.0,82,0.00,,CLR,0.00,0.00,VWS V14.00,2013-10-12 01:29:00,
2013-10-11 20:30:00,66.8,61.1,29.74,South,169,0.0,1.0,82,0.00,,CLR,0.00,0.00,VWS V14.00,2013-10-12 01:30:00,
2013-10-11 20:32:00,66.7,61.0,29.74,South,169,0.0,1.0,82,0.00,,CLR,0.00,0.00,VWS V14.00,2013-10-12 01:32:00,
2013-10-11 20:33:00,66.7,61.0,29.74,South,170,0.0,1.0,82,0.00,,CLR,0.00,0.00,VWS V14.00,2013-10-12 01:33:00,
2013-10-11 20:34:00,66.7,61.0,29.74,South,169,0.0,0.0,82,0.00,,CLR,0.00,0.00,VWS V14.00,2013-10-12 01:34:00,
2013-10-11 20:35:00,66.7,61.0,29.74,South,169,0.0,1.0,82,0.00,,OVC043,0.00,0.00,VWS V14.00,2013-10-12 01:35:00,
2013-10-11 20:36:00,66.6,60.9,29.74,South,169,0.0,0.0,82,0.00,,CLR,0.00,0.00,VWS V14.00,2013-10-12 01:36:00,
2013-10-11 20:37:00,66.6,60.9,29.74,South,169,0.0,1.0,82,0.00,,CLR,0.00,0.00,VWS V14.00,2013-10-12 01:37:00,
2013-10-11 20:38:00,66.5,60.8,29.74,South,169,0.0,0.0,82,0.00,,CLR,0.00,0.00,VWS V14.00,2013-10-12 01:38:00,
2013-10-11 20:39:00,66.5,60.8,29.74,South,169,1.0,2.0,82,0.00,,CLR,0.00,0.00,VWS V14.00,2013-10-12 01:39:00,
2013-10-11 20:40:00,66.6,60.9,29.74,South,169,0.0,1.0,82,0.00,,OVC043,0.00,0.00,VWS V14.00,2013-10-12 01:40:00,
2013-10-11 20:41:00,66.4,60.7,29.74,South,169,0.0,2.0,82,0.00,,CLR,0.00,0.00,VWS V14.00,2013-10-12 01:41:00,
2013-10-11 20:42:00,66.4,60.7,29.74,SSE,167,0.0,2.0,82,0.00,,CLR,0.00,0.00,VWS V14.00,2013-10-12 01:42:00,
2013-10-11 20:43:00,66.4,60.7,29.74,SSE,161,0.0,0.0,82,0.00,,CLR,0.00,0.00,VWS V14.00,2013-10-12 01:43:00,
2013-10-11 20:44:00,66.3,60.7,29.74,SSE,161,0.0,0.0,82,0.00,,CLR,0.00,0.00,VWS V14.00,2013-10-12 01:44:00,
2013-10-11 20:45:00,66.4,60.7,29.74,SSE,161,0.0,2.0,82,0.00,,OVC043,0.00,0.00,VWS V14.00,2013-10-12 01:45:00,
2013-10-11 20:47:00,66.2,60.5,29.74,SSE,161,0.0,4.0,82,0.00,,CLR,0.00,0.00,VWS V14.00,2013-10-12 01:47:00,
2013-10-11 20:48:00,66.2,60.5,29.74,SSE,161,0.0,4.0,82,0.00,,CLR,0.00,0.00,VWS V14.00,2013-10-12 01:48:00,
2013-10-11 20:49:00,66.2,60.5,29.74,SSE,161,1.0,2.0,82,0.00,,CLR,0.00,0.00,VWS V14.00,2013-10-12 01:49:00,
2013-10-11 20:50:00,66.2,60.5,29.74,SSE,161,2.0,4.0,82,0.00,,OVC043,0.00,0.00,VWS V14.00,2013-10-12 01:50:00,
2013-10-11 20:52:00,66.1,60.8,29.74,SSE,161,0.0,4.0,83,0.00,,CLR,0.00,0.00,VWS V14.00,2013-10-12 01:52:00,
2013-10-11 20:53:00,66.1,60.8,29.74,SSE,161,1.0,4.0,83,0.00,,CLR,0.00,0.00,VWS V14.00,2013-10-12 01:53:00,
2013-10-11 20:54:00,66.1,60.8,29.74,SSE,161,0.0,1.0,83,0.00,,CLR,0.00,0.00,VWS V14.00,2013-10-12 01:54:00,
2013-10-11 20:55:00,66.1,60.8,29.74,SSE,161,0.0,4.0,83,0.00,,CLR,0.00,0.00,VWS V14.00,2013-10-12 01:55:00,
2013-10-11 20:57:00,66.0,60.7,29.74,South,170,0.0,6.0,83,0.00,,CLR,0.00,0.00,VWS V14.00,2013-10-12 01:57:00,
2013-10-11 20:58:00,66.0,60.7,29.74,South,169,2.0,6.0,83,0.00,,CLR,0.00,0.00,VWS V14.00,2013-10-12 01:58:00,
2013-10-11 20:59:00,66.0,60.7,29.74,South,170,0.0,2.0,83,0.00,,CLR,0.00,0.00,VWS V14.00,2013-10-12 01:59:00,
2013-10-11 21:00:00,66.0,60.7,29.74,South,170,0.0,2.0,83,0.00,,CLR,0.00,0.00,VWS V14.00,2013-10-12 02:00:00,
2013-10-11 21:02:00,65.9,60.6,29.74,South,170,0.0,4.0,83,0.00,,CLR,0.00,0.00,VWS V14.00,2013-10-12 02:02:00,
2013-10-11 21:03:00,65.9,60.6,29.74,South,170,0.0,4.0,83,0.00,,CLR,0.00,0.00,VWS V14.00,2013-10-12 02:03:00,
2013-10-11 21:04:00,65.9,60.6,29.74,South,170,0.0,4.0,83,0.00,,CLR,0.00,0.00,VWS V14.00,2013-10-12 02:04:00,
2013-10-11 21:05:00,65.9,60.6,29.74,South,170,0.0,4.0,83,0.00,,CLR,0.00,0.00,VWS V14.00,2013-10-12 02:05:00,
2013-10-11 21:06:00,65.9,60.6,29.74,South,170,0.0,4.0,83,0.00,,CLR,0.00,0.00,VWS V14.00,2013-10-12 02:06:00,
2013-10-11 21:07:00,65.8,60.5,29.73,South,170,0.0,4.0,83,0.00,,CLR,0.00,0.00,VWS V14.00,2013-10-12 02:07:00,
2013-10-11 21:08:00,65.8,60.5,29.74,South,170,1.0,1.0,83,0.00,,CLR,0.00,0.00,VWS V14.00,2013-10-12 02:08:00,
2013-10-11 21:09:00,65.9,60.6,29.73,South,170,0.0,1.0,83,0.00,,CLR,0.00,0.00,VWS V14.00,2013-10-12 02:09:00,
2013-10-11 21:10:00,65.8,60.5,29.73,South,170,0.0,4.0,83,0.00,,OVC043,0.00,0.00,VWS V14.00,2013-10-12 02:10:00,
2013-10-11 21:11:00,65.8,60.5,29.73,South,170,0.0,1.0,83,0.00,,CLR,0.00,0.00,VWS V14.00,2013-10-12 02:11:00,
2013-10-11 21:13:00,65.8,60.5,29.73,South,170,0.0,1.0,83,0.00,,CLR,0.00,0.00,VWS V14.00,2013-10-12 02:13:00,
2013-10-11 21:14:00,65.8,60.5,29.73,South,171,0.0,4.0,83,0.00,,CLR,0.00,0.00,VWS V14.00,2013-10-12 02:14:00,
2013-10-11 21:15:00,65.8,60.5,29.73,South,169,0.0,4.0,83,0.00,,CLR,0.00,0.00,VWS V14.00,2013-10-12 02:15:00,
2013-10-11 21:16:00,65.8,60.5,29.73,South,169,0.0,4.0,83,0.00,,CLR,0.00,0.00,VWS V14.00,2013-10-12 02:16:00,
2013-10-11 21:18:00,65.8,60.5,29.73,South,169,0.0,4.0,83,0.00,,CLR,0.00,0.00,VWS V14.00,2013-10-12 02:18:00,
2013-10-11 21:19:00,65.8,60.5,29.73,SSE,157,0.0,4.0,83,0.00,,CLR,0.00,0.00,VWS V14.00,2013-10-12 02:19:00,
2013-10-11 21:20:00,65.8,60.5,29.73,SSE,157,4.0,4.0,83,0.00,,CLR,0.00,0.00,VWS V14.00,2013-10-12 02:20:00,
2013-10-11 21:21:00,65.8,60.5,29.73,SSE,158,0.0,4.0,83,0.00,,CLR,0.00,0.00,VWS V14.00,2013-10-12 02:21:00,
2013-10-11 21:23:00,65.8,60.5,29.73,SSE,157,0.0,4.0,83,0.00,,CLR,0.00,0.00,VWS V14.00,2013-10-12 02:23:00,
2013-10-11 21:24:00,65.8,60.5,29.73,SSE,158,0.0,1.0,83,0.00,,CLR,0.00,0.00,VWS V14.00,2013-10-12 02:24:00,
2013-10-11 21:25:00,65.9,60.6,29.73,SSE,158,0.0,1.0,83,0.00,,CLR,0.00,0.00,VWS V14.00,2013-10-12 02:25:00,
2013-10-11 21:26:00,65.9,60.6,29.73,SSE,158,0.0,1.0,83,0.00,,CLR,0.00,0.00,VWS V14.00,2013-10-12 02:26:00,
2013-10-11 21:28:00,65.8,60.5,29.73,SSE,158,0.0,1.0,83,0.00,,CLR,0.00,0.00,VWS V14.00,2013-10-12 02:28:00,
2013-10-11 21:29:00,65.8,60.5,29.73,South,173,0.0,2.0,83,0.00,,CLR,0.00,0.00,VWS V14.00,2013-10-12 02:29:00,
2013-10-11 21:30:00,65.8,60.5,29.73,South,173,0.0,2.0,83,0.00,,CLR,0.00,0.00,VWS V14.00,2013-10-12 02:30:00,
2013-10-11 21:31:00,65.9,60.6,29.73,South,174,0.0,2.0,83,0.00,,CLR,0.00,0.00,VWS V14.00,2013-10-12 02:31:00,
2013-10-11 21:32:00,65.8,60.5,29.73,South,174,0.0,2.0,83,0.00,,CLR,0.00,0.00,VWS V14.00,2013-10-12 02:32:00,
2013-10-11 21:33:00,65.9,60.6,29.73,South,174,1.0,4.0,83,0.00,,CLR,0.00,0.00,VWS V14.00,2013-10-12 02:33:00,
2013-10-11 21:35:00,65.9,60.6,29.73,South,178,1.0,6.0,83,0.00,,CLR,0.00,0.00,VWS V14.00,2013-10-12 02:35:00,
2013-10-11 21:36:00,66.0,60.7,29.73,South,173,0.0,6.0,83,0.00,,CLR,0.00,0.00,VWS V14.00,2013-10-12 02:36:00,
2013-10-11 21:37:00,66.0,60.7,29.73,South,172,0.0,6.0,83,0.00,,CLR,0.00,0.00,VWS V14.00,2013-10-12 02:37:00,
2013-10-11 21:38:00,66.0,60.7,29.73,South,172,0.0,0.0,83,0.00,,CLR,0.00,0.00,VWS V14.00,2013-10-12 02:38:00,
2013-10-11 21:40:00,66.0,60.7,29.73,South,172,0.0,1.0,83,0.00,,CLR,0.00,0.00,VWS V14.00,2013-10-12 02:40:00,
2013-10-11 21:41:00,66.0,60.7,29.73,South,173,0.0,1.0,83,0.00,,CLR,0.00,0.00,VWS V14.00,2013-10-12 02:41:00,
2013-10-11 21:42:00,66.0,60.7,29.73,South,173,0.0,1.0,83,0.00,,CLR,0.00,0.00,VWS V14.00,2013-10-12 02:42:00,
2013-10-11 21:43:00,66.0,60.7,29.73,South,173,0.0,2.0,83,0.00,,CLR,0.00,0.00,VWS V14.00,2013-10-12 02:43:00,
2013-10-11 21:44:00,66.0,60.7,29.73,South,173,0.0,1.0,83,0.00,,CLR,0.00,0.00,VWS V14.00,2013-10-12 02:44:00,
2013-10-11 21:45:00,66.0,60.7,29.73,South,172,0.0,1.0,83,0.00,,CLR,0.00,0.00,VWS V14.00,2013-10-12 02:45:00,
2013-10-11 21:46:00,66.0,60.7,29.73,South,172,0.0,1.0,83,0.00,,CLR,0.00,0.00,VWS V14.00,2013-10-12 02:46:00,
2013-10-11 21:47:00,66.0,60.7,29.73,South,172,0.0,1.0,83,0.00,,CLR,0.00,0.00,VWS V14.00,2013-10-12 02:47:00,
2013-10-11 21:48:00,66.0,60.7,29.73,South,173,0.0,2.0,83,0.00,,CLR,0.00,0.00,VWS V14.00,2013-10-12 02:48:00,
2013-10-11 21:49:00,65.9,60.6,29.73,South,175,0.0,2.0,83,0.00,,CLR,0.00,0.00,VWS V14.00,2013-10-12 02:49:00,
2013-10-11 21:50:00,66.0,60.7,29.73,South,173,0.0,2.0,83,0.00,,OVC043,0.00,0.00,VWS V14.00,2013-10-12 02:50:00,
2013-10-11 21:51:00,65.9,60.6,29.73,SSE,153,0.0,4.0,83,0.00,,CLR,0.00,0.00,VWS V14.00,2013-10-12 02:51:00,
2013-10-11 21:52:00,65.9,60.6,29.73,SSE,157,0.0,4.0,83,0.00,,CLR,0.00,0.00,VWS V14.00,2013-10-12 02:52:00,
2013-10-11 21:53:00,65.9,60.6,29.73,SSE,157,0.0,4.0,83,0.00,,CLR,0.00,0.00,VWS V14.00,2013-10-12 02:53:00,
2013-10-11 21:54:00,65.9,60.6,29.73,SSE,157,0.0,0.0,83,0.00,,CLR,0.00,0.00,VWS V14.00,2013-10-12 02:54:00,
2013-10-11 21:55:00,65.9,60.6,29.73,SSE,157,0.0,4.0,83,0.00,,OVC043,0.00,0.00,VWS V14.00,2013-10-12 02:55:00,
2013-10-11 21:56:00,65.8,60.5,29.73,SSE,160,1.0,2.0,83,0.00,,CLR,0.00,0.00,VWS V14.00,2013-10-12 02:56:00,
2013-10-11 21:58:00,65.8,60.5,29.74,SSE,160,1.0,4.0,83,0.00,,CLR,0.00,0.00,VWS V14.00,2013-10-12 02:58:00,
2013-10-11 21:59:00,65.8,60.5,29.74,SSE,166,0.0,4.0,83,0.00,,CLR,0.00,0.00,VWS V14.00,2013-10-12 02:59:00,
2013-10-11 22:00:00,65.8,60.5,29.74,SSE,166,4.0,4.0,83,0.00,,OVC043,0.00,0.00,VWS V14.00,2013-10-12 03:00:00,
2013-10-11 22:01:00,65.8,60.5,29.73,SSE,165,0.0,4.0,83,0.00,,CLR,0.00,0.00,VWS V14.00,2013-10-12 03:01:00,
2013-10-11 22:02:00,65.8,60.5,29.73,SSE,166,0.0,4.0,83,0.00,,CLR,0.00,0.00,VWS V14.00,2013-10-12 03:02:00,
2013-10-11 22:03:00,65.8,60.5,29.74,SSE,167,2.0,5.0,83,0.00,,CLR,0.00,0.00,VWS V14.00,2013-10-12 03:03:00,
2013-10-11 22:04:00,65.8,60.5,29.74,SSE,167,0.0,5.0,83,0.00,,CLR,0.00,0.00,VWS V14.00,2013-10-12 03:04:00,
2013-10-11 22:05:00,65.8,60.5,29.74,SSE,167,5.0,5.0,83,0.00,,OVC043,0.00,0.00,VWS V14.00,2013-10-12 03:05:00,
2013-10-11 22:06:00,65.7,60.4,29.74,SSE,167,1.0,5.0,83,0.00,,CLR,0.00,0.00,VWS V14.00,2013-10-12 03:06:00,
2013-10-11 22:07:00,65.7,60.4,29.74,SSE,167,0.0,5.0,83,0.00,,CLR,0.00,0.00,VWS V14.00,2013-10-12 03:07:00,
2013-10-11 22:08:00,65.7,60.4,29.74,SSE,167,0.0,0.0,83,0.00,,CLR,0.00,0.00,VWS V14.00,2013-10-12 03:08:00,
2013-10-11 22:09:00,65.7,60.4,29.74,SSE,167,0.0,1.0,83,0.00,,CLR,0.00,0.00,VWS V14.00,2013-10-12 03:09:00,
2013-10-11 22:10:00,65.7,60.4,29.74,SSE,167,0.0,1.0,83,0.00,,CLR,0.00,0.00,VWS V14.00,2013-10-12 03:10:00,
2013-10-11 22:11:00,65.7,60.4,29.74,SSE,167,0.0,2.0,83,0.00,,CLR,0.00,0.00,VWS V14.00,2013-10-12 03:11:00,
2013-10-11 22:12:00,65.7,60.4,29.74,SSE,167,0.0,2.0,83,0.00,,CLR,0.00,0.00,VWS V14.00,2013-10-12 03:12:00,
2013-10-11 22:13:00,65.7,60.4,29.74,SSE,167,0.0,0.0,83,0.00,,CLR,0.00,0.00,VWS V14.00,2013-10-12 03:13:00,
2013-10-11 22:14:00,65.6,60.3,29.74,SSE,167,0.0,0.0,83,0.00,,CLR,0.00,0.00,VWS V14.00,2013-10-12 03:14:00,
2013-10-11 22:15:00,65.6,60.3,29.74,SSE,167,0.0,0.0,83,0.00,,CLR,0.00,0.00,VWS V14.00,2013-10-12 03:15:00,
2013-10-11 22:16:00,65.6,60.3,29.74,SSE,167,0.0,0.0,83,0.00,,CLR,0.00,0.00,VWS V14.00,2013-10-12 03:16:00,
2013-10-11 22:17:00,65.6,60.3,29.74,SSE,167,0.0,1.0,83,0.00,,CLR,0.00,0.00,VWS V14.00,2013-10-12 03:17:00,
2013-10-11 22:18:00,65.5,60.2,29.74,SSE,167,0.0,0.0,83,0.00,,CLR,0.00,0.00,VWS V14.00,2013-10-12 03:18:00,
2013-10-11 22:19:00,65.5,60.2,29.74,SSE,167,0.0,1.0,83,0.00,,CLR,0.00,0.00,VWS V14.00,2013-10-12 03:19:00,
2013-10-11 22:20:00,65.5,60.2,29.74,SSE,167,0.0,1.0,83,0.00,,CLR,0.00,0.00,VWS V14.00,2013-10-12 03:20:00,
2013-10-11 22:22:00,65.4,60.1,29.74,SSE,167,0.0,1.0,83,0.00,,CLR,0.00,0.00,VWS V14.00,2013-10-12 03:22:00,
2013-10-11 22:23:00,65.4,60.1,29.74,SSE,167,0.0,0.0,83,0.00,,CLR,0.00,0.00,VWS V14.00,2013-10-12 03:23:00,
2013-10-11 22:24:00,65.5,60.2,29.74,SSE,167,0.0,0.0,83,0.00,,CLR,0.00,0.00,VWS V14.00,2013-10-12 03:24:00,
2013-10-11 22:25:00,65.5,60.2,29.74,SSE,167,0.0,1.0,83,0.00,,CLR,0.00,0.00,VWS V14.00,2013-10-12 03:25:00,
2013-10-11 22:27:00,65.5,60.2,29.74,SSE,161,0.0,6.0,83,0.00,,CLR,0.00,0.00,VWS V14.00,2013-10-12 03:27:00,
2013-10-11 22:29:00,65.5,60.2,29.74,SSE,161,0.0,0.0,83,0.00,,CLR,0.00,0.00,VWS V14.00,2013-10-12 03:29:00,
2013-10-11 22:30:00,65.5,60.2,29.74,SSE,161,0.0,0.0,83,0.00,,CLR,0.00,0.00,VWS V14.00,2013-10-12 03:30:00,
2013-10-11 22:32:00,65.5,60.2,29.74,SSE,161,0.0,1.0,83,0.00,,CLR,0.00,0.00,VWS V14.00,2013-10-12 03:32:00,
2013-10-11 22:33:00,65.5,60.2,29.74,SSE,161,0.0,1.0,83,0.00,,CLR,0.00,0.00,VWS V14.00,2013-10-12 03:33:00,
2013-10-11 22:34:00,65.5,60.2,29.74,SSE,161,0.0,1.0,83,0.00,,CLR,0.00,0.00,VWS V14.00,2013-10-12 03:34:00,
2013-10-11 22:35:00,65.5,60.2,29.74,SSE,161,0.0,1.0,83,0.00,,CLR,0.00,0.00,VWS V14.00,2013-10-12 03:35:00,
2013-10-11 22:37:00,65.5,60.2,29.75,SSE,161,0.0,2.0,83,0.00,,CLR,0.00,0.00,VWS V14.00,2013-10-12 03:37:00,
2013-10-11 22:38:00,65.5,60.2,29.75,SSE,161,0.0,2.0,83,0.00,,CLR,0.00,0.00,VWS V14.00,2013-10-12 03:38:00,
2013-10-11 22:39:00,65.5,60.2,29.75,SSE,161,0.0,1.0,83,0.00,,CLR,0.00,0.00,VWS V14.00,2013-10-12 03:39:00,
2013-10-11 22:40:00,65.5,60.2,29.75,SW,230,2.0,8.0,83,0.00,,CLR,0.00,0.00,VWS V14.00,2013-10-12 03:40:00,
2013-10-11 22:41:00,65.5,60.2,29.74,SW,230,0.0,8.0,83,0.00,,CLR,0.00,0.00,VWS V14.00,2013-10-12 03:41:00,
2013-10-11 22:43:00,65.5,60.2,29.75,South,184,0.0,0.0,83,0.00,,CLR,0.00,0.00,VWS V14.00,2013-10-12 03:43:00,
2013-10-11 22:44:00,65.5,60.2,29.75,South,184,0.0,0.0,83,0.00,,CLR,0.00,0.00,VWS V14.00,2013-10-12 03:44:00,
2013-10-11 22:45:00,65.5,60.2,29.75,South,184,0.0,0.0,83,0.00,,CLR,0.00,0.00,VWS V14.00,2013-10-12 03:45:00,
2013-10-11 22:46:00,65.5,60.2,29.75,South,183,0.0,0.0,83,0.00,,CLR,0.00,0.00,VWS V14.00,2013-10-12 03:46:00,
2013-10-11 22:47:00,65.5,60.2,29.75,South,184,0.0,0.0,83,0.00,,CLR,0.00,0.00,VWS V14.00,2013-10-12 03:47:00,
2013-10-11 22:49:00,65.5,60.2,29.75,South,183,1.0,2.0,83,0.00,,CLR,0.00,0.00,VWS V14.00,2013-10-12 03:49:00,
2013-10-11 22:50:00,65.5,60.2,29.75,South,183,0.0,2.0,83,0.00,,CLR,0.00,0.00,VWS V14.00,2013-10-12 03:50:00,
2013-10-11 22:51:00,65.5,60.2,29.75,South,183,0.0,3.0,83,0.00,,CLR,0.00,0.00,VWS V14.00,2013-10-12 03:51:00,
2013-10-11 22:52:00,65.5,60.2,29.75,South,183,0.0,3.0,83,0.00,,CLR,0.00,0.00,VWS V14.00,2013-10-12 03:52:00,
2013-10-11 22:54:00,65.5,60.2,29.75,South,184,0.0,0.0,83,0.00,,CLR,0.00,0.00,VWS V14.00,2013-10-12 03:54:00,
2013-10-11 22:55:00,65.5,60.2,29.75,South,183,0.0,0.0,83,0.00,,CLR,0.00,0.00,VWS V14.00,2013-10-12 03:55:00,
2013-10-11 22:56:00,65.4,60.1,29.75,South,183,0.0,1.0,83,0.00,,CLR,0.00,0.00,VWS V14.00,2013-10-12 03:56:00,
2013-10-11 22:58:00,65.4,60.1,29.75,South,183,0.0,1.0,83,0.00,,CLR,0.00,0.00,VWS V14.00,2013-10-12 03:58:00,
2013-10-11 22:59:00,65.4,60.1,29.75,South,183,0.0,0.0,83,0.00,,CLR,0.00,0.00,VWS V14.00,2013-10-12 03:59:00,
2013-10-11 23:00:00,65.4,60.1,29.75,South,184,0.0,0.0,83,0.00,,CLR,0.00,0.00,VWS V14.00,2013-10-12 04:00:00,
2013-10-11 23:01:00,65.4,60.1,29.75,South,183,0.0,0.0,83,0.00,,CLR,0.00,0.00,VWS V14.00,2013-10-12 04:01:00,
2013-10-11 23:05:00,65.3,60.0,29.75,South,182,0.0,0.0,83,0.00,,OVC043,0.00,0.00,VWS V14.00,2013-10-12 04:05:00,
2013-10-11 23:06:00,65.2,59.9,29.75,South,183,0.0,1.0,83,0.00,,CLR,0.00,0.00,VWS V14.00,2013-10-12 04:06:00,
2013-10-11 23:10:00,65.1,59.8,29.75,South,183,0.0,1.0,83,0.00,,OVC043,0.00,0.00,VWS V14.00,2013-10-12 04:10:00,
2013-10-11 23:11:00,64.9,59.6,29.76,WNW,286,4.0,5.0,83,0.00,,CLR,0.00,0.00,VWS V14.00,2013-10-12 04:11:00,
2013-10-11 23:15:00,64.8,59.5,29.77,WNW,283,0.0,5.0,83,0.00,,OVC043,0.00,0.00,VWS V14.00,2013-10-12 04:15:00,
2013-10-11 23:16:00,64.8,59.5,29.77,WNW,284,1.0,4.0,83,0.00,,CLR,0.00,0.00,VWS V14.00,2013-10-12 04:16:00,
2013-10-11 23:17:00,64.8,59.5,29.77,WNW,284,0.0,4.0,83,0.00,,CLR,0.00,0.00,VWS V14.00,2013-10-12 04:17:00,
2013-10-11 23:20:00,64.8,59.5,29.77,WNW,284,0.0,4.0,83,0.00,,OVC043,0.00,0.00,VWS V14.00,2013-10-12 04:20:00,
2013-10-11 23:21:00,64.8,59.5,29.77,West,277,0.0,3.0,83,0.00,,CLR,0.00,0.00,VWS V14.00,2013-10-12 04:21:00,
2013-10-11 23:22:00,64.7,59.4,29.78,WNW,289,3.0,8.0,83,0.00,,CLR,0.00,0.00,VWS V14.00,2013-10-12 04:22:00,
2013-10-11 23:25:00,64.7,59.1,29.78,WNW,283,0.0,8.0,82,0.00,,OVC043,0.00,0.00,VWS V14.00,2013-10-12 04:25:00,
2013-10-11 23:26:00,64.7,58.0,29.78,WNW,283,7.0,11.0,79,0.00,,CLR,0.00,0.00,VWS V14.00,2013-10-12 04:26:00,
2013-10-11 23:27:00,64.7,57.7,29.78,WNW,284,0.0,11.0,78,0.00,,CLR,0.00,0.00,VWS V14.00,2013-10-12 04:27:00,
2013-10-11 23:28:00,64.7,57.3,29.78,WNW,292,4.0,11.0,77,0.00,,CLR,0.00,0.00,VWS V14.00,2013-10-12 04:28:00,
2013-10-11 23:30:00,64.7,57.3,29.78,West,278,3.0,11.0,77,0.00,,OVC043,0.00,0.00,VWS V14.00,2013-10-12 04:30:00,
2013-10-11 23:32:00,64.7,56.6,29.78,WNW,288,4.0,9.0,75,0.00,,CLR,0.00,0.00,VWS V14.00,2013-10-12 04:32:00,
2013-10-11 23:33:00,64.6,55.8,29.78,WSW,244,6.0,9.0,73,0.00,,CLR,0.00,0.00,VWS V14.00,2013-10-12 04:33:00,
2013-10-11 23:35:00,64.6,55.8,29.78,West,271,7.0,9.0,73,0.00,,OVC043,0.00,0.00,VWS V14.00,2013-10-12 04:35:00,
2013-10-11 23:37:00,64.4,55.6,29.78,West,281,5.0,8.0,73,0.00,,CLR,0.00,0.00,VWS V14.00,2013-10-12 04:37:00,
2013-10-11 23:38:00,64.3,54.7,29.78,WNW,294,3.0,10.0,71,0.00,,CLR,0.00,0.00,VWS V14.00,2013-10-12 04:38:00,
2013-10-11 23:39:00,64.2,55.0,29.78,WNW,284,3.0,6.0,72,0.00,,CLR,0.00,0.00,VWS V14.00,2013-10-12 04:39:00,
2013-10-11 23:40:00,64.2,54.6,29.78,WNW,288,4.0,10.0,71,0.00,,OVC043,0.00,0.00,VWS V14.00,2013-10-12 04:40:00,
2013-10-11 23:42:00,63.8,54.2,29.78,WNW,288,5.0,8.0,71,0.00,,CLR,0.00,0.00,VWS V14.00,2013-10-12 04:42:00,
2013-10-11 23:43:00,63.7,54.1,29.78,WNW,292,6.0,8.0,71,0.00,,CLR,0.00,0.00,VWS V14.00,2013-10-12 04:43:00,
2013-10-11 23:44:00,63.6,54.0,29.78,WNW,282,3.0,4.0,71,0.00,,CLR,0.00,0.00,VWS V14.00,2013-10-12 04:44:00,
2013-10-11 23:45:00,63.6,54.0,29.78,WNW,290,3.0,8.0,71,0.00,,OVC043,0.00,0.00,VWS V14.00,2013-10-12 04:45:00,
2013-10-11 23:47:00,63.1,53.9,29.79,West,281,2.0,7.0,72,0.00,,CLR,0.00,0.00,VWS V14.00,2013-10-12 04:47:00,
2013-10-11 23:48:00,63.0,53.8,29.79,WNW,285,5.0,7.0,72,0.00,,CLR,0.00,0.00,VWS V14.00,2013-10-12 04:48:00,
2013-10-11 23:49:00,62.9,53.4,29.79,NW,306,3.0,5.0,71,0.00,,CLR,0.00,0.00,VWS V14.00,2013-10-12 04:49:00,
2013-10-11 23:50:00,62.7,53.2,29.79,West,276,2.0,6.0,71,0.00,,CLR,0.00,0.00,VWS V14.00,2013-10-12 04:50:00,
2013-10-11 23:52:00,62.4,52.9,29.79,West,263,4.0,8.0,71,0.00,,CLR,0.00,0.00,VWS V14.00,2013-10-12 04:52:00,
2013-10-11 23:53:00,62.3,52.8,29.79,WNW,288,4.0,8.0,71,0.00,,CLR,0.00,0.00,VWS V14.00,2013-10-12 04:53:00,
2013-10-11 23:54:00,62.2,52.7,29.79,West,278,6.0,6.0,71,0.00,,CLR,0.00,0.00,VWS V14.00,2013-10-12 04:54:00,
2013-10-11 23:55:00,62.0,52.5,29.79,WNW,294,3.0,9.0,71,0.00,,CLR,0.00,0.00,VWS V14.00,2013-10-12 04:55:00,
2013-10-11 23:58:00,61.8,52.3,29.79,WNW,285,5.0,10.0,71,0.00,,CLR,0.00,0.00,VWS V14.00,2013-10-12 04:58:00,
2013-10-11 23:59:00,61.7,52.2,29.79,NW,319,6.0,10.0,71,0.00,,CLR,0.00,0.00,VWS V14.00,2013-10-12 04:59:00,